GFSSGP_sfc_dewp_000.txt.gz
Dewpoint
48 34 33 24 14 13 11 9 12 13 25 47 52 50 50 51 50 48 62 61 61 61 64 66 68 70 70 71 71 71 72 72 72 71 70 70 69 68 67 67 65 62 63 62 63 67 66 68 67
42 31 17 18 14 10 11 11 12 14 40 46 46 53 53 55 59 61 61 61 61 62 65 67 68 69 70 70 70 70 70 70 71 70 70 70 68 68 67 65 63 61 60 63 65 65 63 66 63
35 32 9 13 13 12 10 12 11 25 44 34 50 53 55 54 60 61 62 62 63 64 66 66 67 68 70 70 70 70 70 70 71 70 70 69 68 68 66 63 64 62 62 63 65 66 64 64 63
28 15 10 6 13 10 13 13 16 21 46 49 52 52 56 57 58 62 63 63 64 64 65 66 67 68 69 70 69 69 69 69 70 70 69 68 68 66 66 64 63 63 64 64 65 64 66 64 63
22 12 7 4 5 11 8 12 23 40 45 47 48 47 54 57 60 62 62 63 64 64 66 66 67 67 68 67 68 68 69 69 69 69 69 68 67 65 63 63 64 65 64 65 65 67 65 65 65
9 10 5 5 6 6 7 11 20 32 44 46 48 50 51 58 57 61 62 64 65 65 66 66 67 66 66 66 66 66 67 68 68 68 68 68 67 66 66 66 66 64 63 62 63 63 64 62 63
9 6 5 3 4 6 7 10 12 11 12 35 45 47 53 54 58 58 61 63 65 65 65 65 65 65 65 64 64 64 66 67 68 67 66 66 66 66 65 64 64 64 64 65 65 64 64 64 65
9 6 7 3 2 2 2 9 13 13 10 43 45 43 44 53 55 57 56 61 63 66 65 64 64 63 61 61 64 64 64 65 67 66 65 64 64 64 63 63 63 62 61 61 61 63 63 64 63
10 7 6 10 7 12 7 11 14 15 14 21 38 44 47 50 57 55 55 56 57 62 65 64 64 64 61 59 61 64 64 65 66 66 65 63 61 61 61 61 62 61 61 59 59 59 61 60 59
9 7 17 13 10 9 11 12 11 9 20 23 45 46 49 56 55 55 54 54 53 56 58 60 62 62 62 60 62 62 63 63 63 64 64 62 60 59 59 61 61 60 60 60 59 59 59 57 55
29 15 16 18 17 15 17 18 17 13 16 23 44 43 50 54 53 53 53 53 50 49 53 56 58 60 58 59 62 62 62 62 62 61 60 59 58 58 59 58 58 57 58 56 57 56 55 55 55
16 18 19 18 18 19 19 29 20 32 16 24 37 48 49 51 52 52 46 48 45 45 49 55 57 57 57 57 61 60 60 61 60 59 58 58 57 56 57 56 57 56 56 55 55 54 54 52 53
19 20 21 21 20 19 22 19 19 19 18 23 32 36 40 43 43 43 44 43 43 42 47 53 55 57 56 53 52 51 52 54 53 54 54 58 57 56 57 56 56 55 55 55 54 54 57 56 56
28 24 23 22 21 22 21 21 21 20 18 23 31 31 32 33 34 36 34 36 37 40 45 52 53 55 55 53 51 49 48 48 50 52 53 55 55 54 55 55 55 53 53 52 51 50 50 50 52
28 23 23 23 22 20 17 13 14 16 18 22 25 30 32 32 33 34 33 33 34 39 42 47 50 51 50 53 51 49 47 46 48 50 51 52 49 46 47 48 51 50 51 51 51 48 49 48 50
25 23 20 20 22 18 13 11 13 16 21 22 23 25 29 31 31 33 33 33 34 36 40 41 45 48 47 50 51 50 47 45 46 49 49 49 49 47 46 46 45 43 45 47 39 40 40 40 41
21 16 19 18 18 18 15 13 19 21 19 21 21 22 25 27 28 29 31 33 33 36 37 32 40 41 41 42 44 42 43 41 43 49 49 48 47 46 45 47 45 42 43 41 40 39 39 37 38
18 16 18 18 20 25 21 21 23 20 19 19 18 21 23 26 30 32 31 32 33 33 35 32 29 32 38 39 37 37 39 39 40 46 48 47 45 44 41 45 44 42 42 41 41 38 39 39 38
21 20 21 22 24 26 25 24 24 21 21 22 23 25 26 29 33 33 32 33 32 31 31 33 33 33 35 35 35 34 34 37 38 40 46 46 45 43 40 41 44 43 41 41 39 38 38 37 38
21 24 23 25 26 28 26 25 19 18 20 22 25 25 26 28 30 32 32 31 30 30 30 31 31 33 34 34 35 34 34 35 36 37 39 45 44 41 39 39 41 41 41 39 39 40 39 39 39
21 25 25 25 28 28 26 23 18 20 25 25 25 26 26 26 28 31 33 32 32 31 32 32 31 32 35 36 34 35 36 36 36 36 37 40 42 42 41 39 40 39 39 38 38 37 37 36 38
21 24 27 27 27 24 26 23 21 19 21 24 25 25 25 27 29 28 29 33 35 34 34 33 34 34 35 37 35 33 32 32 33 34 35 38 41 41 40 40 40 39 40 39 40 39 39 39 36
23 28 30 30 28 27 25 22 20 20 19 22 26 28 28 30 29 29 30 30 31 34 36 37 37 36 37 38 38 37 34 35 35 36 34 35 38 40 41 40 40 41 41 37 34 34 32 36 35
30 31 32 32 28 24 26 22 21 22 21 26 29 29 30 30 31 32 33 34 36 38 38 40 39 39 39 40 39 39 37 36 36 36 37 39 37 37 39 38 37 36 35 34 33 32 29 30 31
30 30 25 23 23 23 28 25 22 24 25 26 27 28 29 29 31 31 35 37 38 38 39 39 39 40 41 41 41 41 40 39 37 36 37 38 35 35 34 34 35 34 33 34 34 34 34 32 30
30 31 26 21 21 24 27 23 24 25 27 26 26 28 30 32 33 34 37 38 39 39 39 39 38 37 37 39 39 40 40 41 41 38 38 36 36 35 34 34 35 36 37 36 36 37 37 35 32
30 29 32 27 23 23 27 28 25 27 30 30 31 32 33 34 36 37 38 39 39 38 39 39 39 38 38 38 37 35 35 36 33 32 34 34 33 33 35 38 40 41 42 41 37 35 33 34 33
31 32 28 29 19 25 26 26 25 28 32 33 32 32 33 33 34 36 37 39 39 39 40 41 40 39 39 33 34 31 31 32 32 32 31 32 34 38 40 41 41 42 39 37 35 34 32 32 33
29 31 32 32 30 27 25 28 30 32 33 33 34 34 33 33 34 37 38 39 39 39 40 40 39 39 32 29 33 32 29 30 29 30 31 31 33 35 36 37 36 36 35 34 32 31 31 31 31
33 33 33 27 28 28 27 28 32 33 32 34 33 34 34 34 36 38 39 39 39 39 39 39 40 34 30 31 32 31 29 27 28 29 30 31 30 30 30 31 31 31 31 31 30 30 28 28 27

GFSSGP_sfc_dewp_003.txt.gz
Dewpoint
51 35 32 24 13 12 11 8 11 11 46 51 50 48 48 52 48 41 61 59 60 63 65 67 69 71 71 71 72 72 72 71 70 70 69 68 67 67 67 67 64 63 63 61 65 65 67 67 66
43 30 17 18 12 9 9 12 18 34 50 52 52 52 54 55 59 61 60 59 60 64 66 66 69 70 70 70 71 71 71 71 70 70 69 68 68 66 67 64 64 62 60 61 61 63 66 66 67
36 25 9 14 12 10 11 14 27 45 47 40 52 55 54 55 60 61 61 61 64 64 65 66 68 69 70 70 70 70 70 71 70 70 69 68 67 67 66 64 63 61 61 61 62 64 63 63 64
26 13 10 7 7 10 13 21 17 34 45 50 52 52 55 57 59 61 61 62 63 63 63 65 67 69 69 68 68 68 69 69 70 69 68 67 66 65 65 63 62 62 62 62 63 64 66 65 64
14 10 5 4 5 9 13 33 38 41 44 46 47 50 54 57 62 62 62 62 62 63 64 65 66 67 68 67 67 68 68 68 69 69 68 67 66 64 62 63 64 63 64 64 65 66 65 65 64
9 8 4 5 4 6 9 22 26 39 42 44 47 50 52 58 61 62 63 63 63 63 65 65 66 66 66 67 67 67 68 68 68 68 68 67 65 65 64 63 63 64 64 63 63 63 63 63 62
7 5 4 4 4 4 8 13 12 10 21 33 47 51 54 56 59 62 63 64 64 64 64 64 64 64 65 65 65 66 66 67 67 66 66 66 66 66 64 64 63 63 64 64 64 64 63 63 64
9 6 3 3 3 1 3 10 13 12 16 42 46 44 51 56 57 60 62 64 64 63 64 63 63 63 61 61 64 64 65 66 66 66 65 64 64 64 63 62 62 61 61 59 59 61 62 62 62
9 7 9 8 6 11 9 17 14 15 28 26 43 44 46 56 57 57 58 59 61 64 63 63 63 62 60 59 61 64 65 66 66 65 64 62 60 59 59 60 61 61 60 60 60 59 59 57 56
11 9 9 12 10 14 12 24 12 11 29 41 47 46 51 55 56 54 55 57 58 61 63 63 63 62 61 60 61 61 62 63 63 64 62 60 58 57 58 60 60 59 59 59 59 59 58 56 55
14 14 14 17 14 13 19 20 17 13 20 39 43 45 54 56 54 54 54 56 55 60 60 61 62 61 61 61 61 60 61 61 61 61 61 59 58 57 57 57 58 56 57 55 55 54 53 51 52
15 18 18 18 18 18 18 28 21 31 16 24 43 44 53 54 53 51 53 53 50 50 53 56 58 58 57 60 61 61 60 60 60 59 58 57 56 55 56 56 56 56 55 54 54 54 54 53 53
20 19 20 21 20 19 22 18 17 18 18 23 43 45 51 52 52 52 50 50 47 45 49 55 56 57 55 54 53 55 57 60 59 58 57 57 56 55 55 55 55 54 54 54 53 52 52 53 54
27 24 22 22 22 22 21 20 20 19 19 22 36 44 48 48 48 40 44 45 44 43 46 52 55 56 54 51 50 50 51 52 53 53 53 56 56 55 55 55 55 54 52 51 50 48 48 48 49
25 21 23 23 22 22 20 12 16 19 18 21 31 36 36 37 35 35 41 42 41 41 44 51 52 54 53 53 51 49 48 48 49 51 52 54 53 50 52 53 53 52 50 50 49 45 46 43 46
21 21 17 19 23 20 14 12 13 17 17 18 23 28 30 31 32 34 34 34 34 38 43 46 48 50 49 52 51 50 49 47 47 49 50 51 49 46 45 45 48 46 43 49 42 37 38 39 39
21 15 17 17 22 22 15 13 14 22 19 18 21 23 27 28 27 28 30 32 33 37 40 38 46 47 45 48 49 47 46 44 43 47 49 48 48 48 46 46 45 43 42 42 39 39 39 37 37
18 16 21 17 21 27 24 19 23 25 20 20 20 21 22 24 30 33 32 32 34 37 34 31 38 39 40 40 39 37 38 41 42 42 47 48 48 47 44 45 46 43 42 41 41 39 39 38 38
21 21 23 22 24 27 27 26 26 24 21 21 21 23 28 30 32 31 32 32 32 34 33 29 29 31 36 36 36 35 35 36 38 39 41 47 47 46 43 42 45 44 41 41 41 39 37 37 38
24 23 21 25 26 28 27 25 18 19 20 23 25 27 28 30 30 30 31 30 29 30 31 31 32 32 33 34 34 34 34 34 35 37 38 44 47 46 43 41 42 44 42 41 41 39 39 38 39
20 23 23 24 27 28 26 23 18 21 25 25 25 26 27 29 31 31 30 29 29 29 30 30 30 31 33 35 34 34 35 36 35 35 36 37 43 46 44 41 39 41 43 41 39 39 38 36 38
21 23 26 27 27 23 26 20 22 19 22 24 25 25 26 27 28 29 31 32 32 32 33 33 33 33 34 35 35 34 33 32 34 35 35 35 40 40 43 42 39 39 40 39 38 38 37 36 33
25 30 29 30 27 28 25 21 23 23 19 24 27 28 28 29 28 28 30 30 31 33 34 37 38 38 38 38 38 39 38 38 38 38 37 36 36 41 41 42 40 39 41 40 39 37 34 33 33
30 31 30 30 28 23 25 23 20 22 23 27 28 29 31 29 31 32 34 36 38 39 39 39 39 39 39 39 40 40 39 39 39 39 38 38 38 38 40 40 40 37 35 34 31 30 29 31 31
31 30 23 20 22 22 28 23 22 25 26 28 28 28 29 29 30 33 35 37 38 38 38 38 38 38 38 39 39 38 38 39 39 39 39 38 35 35 34 35 33 34 35 36 36 36 36 34 34
30 30 25 18 20 24 27 24 24 27 27 28 28 29 32 34 34 36 37 38 38 39 39 39 39 38 38 39 36 36 36 38 39 39 37 37 34 34 36 38 39 40 40 41 41 41 40 40 38
31 29 31 27 22 22 27 28 27 30 32 30 31 33 34 35 36 37 38 38 37 38 39 39 39 39 39 37 33 34 34 34 35 33 34 34 34 36 39 40 41 41 40 41 42 40 38 36 35
31 32 28 29 18 22 27 28 26 29 32 33 32 32 32 33 34 36 37 38 38 38 39 40 39 39 39 30 31 33 33 32 32 33 33 33 36 39 40 40 40 40 41 40 40 37 35 34 34
31 31 31 31 29 24 21 27 32 32 32 33 33 33 32 33 34 36 37 38 38 39 39 39 39 39 35 31 32 33 34 31 30 31 32 34 36 36 35 34 35 38 38 37 36 34 32 32 31
33 32 31 29 25 27 23 27 31 32 33 34 33 34 35 35 36 38 39 39 39 39 39 38 39 38 32 34 33 33 33 30 28 30 30 32 30 30 30 30 31 32 32 31 30 30 29 28 27

GFSSGP_sfc_dewp_006.txt.gz
Dewpoint
49 34 31 23 13 11 10 9 11 19 46 51 51 47 51 53 48 40 60 59 62 63 65 66 70 70 71 72 71 71 71 71 70 70 69 68 67 67 67 66 64 63 62 62 64 65 66 67 67
46 29 17 17 11 9 10 13 36 38 51 52 52 52 54 53 59 60 58 59 62 64 65 66 69 70 70 71 71 71 71 70 70 70 69 68 67 67 67 65 64 62 61 61 63 62 65 66 66
34 16 10 14 12 10 17 15 41 47 49 44 53 55 55 55 60 61 59 60 64 63 64 67 68 69 69 70 70 70 71 71 70 70 69 68 67 66 66 64 62 62 62 62 62 64 64 65 65
23 12 9 9 8 10 16 21 43 45 45 51 54 52 55 58 60 60 60 63 62 61 62 66 67 68 69 68 68 68 69 69 69 69 68 67 66 65 65 64 63 64 64 63 64 64 65 66 65
13 9 6 5 6 13 22 33 33 40 44 45 49 51 54 59 61 61 61 62 61 61 62 64 67 68 68 67 67 68 68 69 69 69 68 67 66 64 61 62 64 63 64 64 64 64 64 64 64
8 7 5 4 6 6 11 21 33 39 41 46 50 52 52 60 60 61 62 61 62 62 63 63 66 66 67 67 67 67 67 67 67 68 68 66 65 65 64 64 64 64 64 64 64 64 63 63 63
5 5 4 3 3 5 7 7 11 17 27 38 51 50 54 57 61 62 62 61 62 62 62 62 63 64 65 65 65 66 66 67 66 66 66 66 66 65 64 63 63 62 62 61 61 62 63 63 62
8 5 9 2 2 2 6 10 13 14 29 43 46 50 50 56 60 62 63 62 62 62 62 61 61 61 61 61 64 65 65 66 66 65 64 64 64 63 62 60 61 61 61 60 60 60 60 59 58
9 8 7 12 4 12 10 25 14 17 31 30 44 47 47 57 59 60 59 60 61 63 62 61 61 61 59 58 61 64 65 66 66 65 64 62 59 57 57 60 61 60 59 59 59 59 58 57 56
10 9 15 11 9 26 13 17 12 20 35 44 45 49 55 57 57 58 59 60 60 61 62 62 61 61 59 59 59 60 61 62 63 63 61 59 57 56 57 59 60 59 58 58 58 57 56 53 52
27 14 14 16 13 12 16 17 17 19 29 39 38 47 54 56 54 57 58 59 60 60 62 63 62 61 60 60 60 59 59 60 60 61 60 59 58 56 57 56 56 55 57 54 54 54 53 52 52
16 17 17 18 19 18 17 27 19 15 16 30 41 49 54 56 55 54 55 57 56 59 61 61 61 60 59 59 60 59 59 59 59 59 59 57 56 54 55 55 55 55 55 53 53 53 53 53 53
19 19 19 20 18 18 22 19 17 18 19 21 40 49 54 55 55 52 54 54 53 55 56 56 57 57 56 58 58 58 59 59 59 58 57 57 55 54 54 55 55 55 54 53 53 51 50 49 50
25 24 23 23 21 22 21 21 31 19 19 21 43 44 51 54 54 49 50 49 50 49 50 54 55 56 54 52 52 53 55 56 57 56 57 56 56 55 54 54 54 53 53 52 50 48 46 46 47
25 22 21 21 22 22 21 15 15 20 17 20 29 44 46 49 49 46 43 47 48 45 46 52 54 55 53 52 50 49 49 50 51 52 52 53 55 54 53 53 53 53 52 49 49 46 45 43 43
19 19 16 18 22 19 15 15 15 16 18 18 20 34 42 43 38 34 35 40 43 40 45 50 51 53 52 52 52 50 49 48 47 49 50 52 53 51 48 49 50 52 49 49 48 39 38 39 39
19 16 17 17 25 27 21 16 16 19 24 22 19 23 30 30 29 28 31 34 36 38 43 46 46 49 48 49 51 50 49 48 46 46 49 50 50 50 46 46 46 47 44 44 45 38 39 38 37
20 14 22 18 22 27 26 22 25 27 24 22 22 22 24 25 30 32 32 32 33 38 41 39 43 46 44 42 40 39 39 40 43 43 44 48 49 48 47 46 46 45 43 42 40 39 40 39 37
20 19 22 28 25 27 27 26 22 20 21 21 20 24 29 30 31 32 32 34 35 36 33 32 34 35 37 37 37 36 36 36 38 39 41 44 47 48 47 45 45 46 43 41 41 40 39 38 39
21 22 19 23 26 28 27 25 18 22 23 25 27 28 28 29 29 30 30 30 31 33 33 31 30 31 32 34 34 35 34 35 35 37 38 39 42 45 46 45 43 43 44 41 41 40 38 38 39
23 20 21 23 26 29 25 21 22 21 25 25 26 27 29 29 28 30 30 29 29 30 30 30 30 31 33 34 34 34 35 35 35 35 35 36 39 41 45 45 44 42 43 42 41 40 39 37 38
23 23 25 26 27 23 25 18 24 23 22 25 25 25 26 28 30 31 31 30 34 31 33 34 35 36 36 38 37 37 35 35 37 37 37 37 38 39 41 45 44 42 41 42 41 40 39 37 35
26 31 30 29 28 27 25 20 21 23 20 23 26 27 27 28 28 28 29 33 38 36 38 39 39 39 39 38 39 39 38 39 40 40 39 40 40 39 39 40 42 42 41 40 40 38 37 34 33
31 31 27 29 27 23 25 23 21 23 24 26 28 28 29 32 30 33 36 38 38 38 38 39 39 39 39 39 39 38 37 37 37 37 39 40 40 38 38 39 40 38 37 34 34 35 33 32 33
31 26 20 20 21 22 27 24 21 25 26 27 27 28 29 31 32 32 37 37 37 38 39 39 39 38 39 39 35 34 34 35 35 35 37 38 38 34 35 35 36 37 38 39 40 39 38 38 38
29 29 23 15 19 23 27 23 24 27 29 28 28 32 34 35 37 37 37 37 37 37 38 39 39 38 39 38 33 34 35 35 35 35 36 36 34 35 38 39 40 39 39 40 40 40 40 41 40
30 29 31 26 21 21 26 28 28 31 32 32 32 33 32 33 34 35 37 38 38 38 39 39 39 39 40 38 33 35 35 35 35 34 34 34 34 38 39 39 39 39 40 41 40 39 38 37 37
31 32 26 28 18 20 25 26 26 30 31 32 32 31 32 33 35 37 37 38 39 39 39 40 39 39 40 35 34 35 35 35 35 33 33 33 35 38 38 38 37 37 36 38 40 40 40 38 37
31 30 30 30 28 21 20 25 31 30 32 32 32 34 35 35 34 35 37 39 39 39 39 40 39 39 40 33 35 35 35 34 33 32 32 33 36 36 33 33 34 35 37 37 37 36 35 33 32
33 31 30 24 22 26 23 25 31 32 34 33 35 35 37 37 36 36 38 39 39 39 40 40 39 40 35 35 35 35 33 29 29 30 31 32 30 29 29 30 30 31 30 31 31 30 29 28 27

GFSSGP_sfc_dewp_009.txt.gz
Dewpoint
45 31 31 25 16 16 12 13 11 35 47 51 51 46 50 54 47 43 60 60 61 64 66 67 70 71 71 71 71 70 71 71 70 70 69 68 68 67 67 66 65 64 62 62 64 63 66 68 68
40 23 23 20 15 14 21 20 23 45 52 53 53 54 53 52 60 59 58 59 60 63 65 67 69 70 71 71 71 71 71 70 70 69 68 68 67 67 67 66 64 62 63 63 64 65 64 65 65
30 14 17 18 16 13 25 26 46 50 49 49 53 55 55 56 60 58 60 59 61 62 64 67 68 69 69 70 71 71 71 71 71 70 69 68 67 67 67 65 63 63 64 64 64 64 65 66 65
21 15 15 22 19 16 25 35 48 47 47 53 53 51 56 59 60 61 58 60 60 60 64 66 67 68 68 68 69 69 69 69 69 69 68 68 67 66 65 64 64 64 64 65 64 65 65 66 65
15 15 16 21 22 24 27 32 41 42 44 47 50 52 55 60 62 59 60 61 58 60 63 64 66 67 68 67 67 67 68 69 69 68 68 67 66 64 63 62 64 64 65 65 65 64 63 63 62
12 14 16 19 17 8 22 25 38 41 46 49 51 52 55 61 60 60 61 60 59 59 62 63 66 67 67 67 67 67 67 67 67 67 67 67 66 65 65 65 64 63 63 62 63 64 64 64 64
12 12 7 7 7 5 8 8 20 28 34 39 50 49 56 60 60 61 61 60 61 61 61 62 62 63 66 65 65 65 66 66 66 66 66 65 65 64 63 63 62 62 62 61 61 61 61 61 60
11 10 6 5 4 4 7 12 13 20 31 45 49 45 53 58 61 62 62 61 61 62 62 63 63 61 62 62 64 65 65 66 65 65 64 63 64 62 61 59 60 61 60 60 60 59 59 58 58
12 10 6 4 5 8 11 12 15 23 35 31 41 50 49 59 62 62 63 62 62 62 62 63 63 62 61 61 62 63 65 65 65 64 63 62 61 60 58 59 60 60 59 58 58 58 57 56 55
13 12 10 10 9 11 14 11 11 21 33 40 44 49 56 60 61 61 61 60 61 62 63 62 64 63 62 58 61 62 62 63 65 64 64 62 62 60 59 59 59 59 59 58 58 57 55 52 52
18 15 15 15 11 14 17 17 15 22 25 32 32 48 56 59 60 60 60 60 60 61 62 62 64 65 63 60 61 61 61 62 63 65 65 63 62 62 61 60 59 60 58 58 57 57 57 58 57
18 17 18 18 18 17 17 19 17 20 18 26 37 51 56 56 58 59 60 60 60 62 63 64 64 65 65 63 62 62 61 62 62 62 64 64 62 61 60 58 59 60 60 59 59 59 58 57 56
20 19 19 19 18 18 21 19 18 19 20 20 41 52 55 56 56 58 59 60 60 60 62 64 65 64 63 61 62 62 62 62 62 62 63 62 61 61 59 58 58 59 59 58 58 57 53 50 49
25 23 23 23 21 22 20 21 20 19 20 23 40 47 53 56 56 55 55 56 57 58 59 61 60 60 59 58 60 61 62 62 62 62 62 62 61 60 58 58 58 58 58 58 58 54 49 48 47
25 20 20 22 22 20 20 18 17 19 17 19 31 42 51 54 56 55 53 53 53 55 55 57 58 59 59 57 55 54 55 56 58 60 61 60 60 59 59 58 57 57 58 58 55 51 49 46 45
20 22 19 20 25 22 19 19 20 19 21 23 23 29 44 49 49 45 45 41 46 49 52 54 54 56 58 56 55 54 53 53 52 53 54 56 56 57 57 56 55 56 57 56 53 51 46 42 42
22 13 18 20 26 27 26 24 24 26 26 26 24 22 36 42 38 32 35 36 43 47 49 52 54 54 55 54 53 55 55 53 52 51 50 53 54 55 55 54 53 54 52 53 52 49 47 41 41
19 16 20 20 23 28 27 26 27 22 23 25 23 24 30 33 31 34 35 34 37 44 47 49 49 51 51 49 48 46 45 45 46 46 46 49 49 53 53 52 53 51 49 49 48 47 45 42 41
21 20 21 22 26 28 28 26 20 24 24 24 25 27 28 31 32 33 36 38 39 43 45 45 45 46 45 42 41 40 41 40 41 40 43 45 45 48 50 49 50 51 49 48 48 47 46 43 43
22 21 19 24 26 28 28 23 22 25 26 28 29 30 31 31 31 33 35 38 39 41 41 37 36 37 37 37 39 40 40 40 40 42 44 44 44 44 44 48 47 48 47 49 49 48 44 43 44
25 21 22 23 26 28 26 22 24 22 26 27 28 29 30 31 31 31 33 35 38 37 38 36 37 39 41 42 40 41 42 41 40 38 39 40 44 44 44 45 46 47 47 46 49 49 46 43 43
25 25 29 27 28 23 27 19 24 24 24 26 26 28 30 30 31 32 34 36 39 40 43 42 42 41 41 43 41 41 38 36 38 40 39 41 44 44 43 43 44 46 46 46 47 46 47 45 42
29 31 30 29 29 27 27 21 23 25 23 23 27 28 30 32 33 35 39 39 40 42 43 43 42 41 42 41 40 39 40 39 39 39 39 40 41 42 42 42 43 44 44 45 46 46 45 43 42
32 31 28 29 29 26 26 24 24 25 25 26 28 29 32 33 33 36 40 40 40 42 43 44 42 41 42 42 40 41 41 40 39 40 39 38 39 39 40 40 42 41 41 41 40 40 40 39 39
32 27 24 28 28 26 27 25 24 28 28 28 29 31 36 38 38 38 38 38 40 40 42 42 41 40 42 43 39 39 41 41 40 39 38 38 38 38 39 40 41 41 42 42 42 42 42 41 40
32 30 28 19 24 25 28 24 26 31 32 31 34 35 35 36 38 39 38 39 39 40 41 42 41 40 41 43 40 39 40 39 38 38 38 38 37 37 41 41 41 41 41 41 42 42 40 39 39
30 31 31 28 25 29 26 28 30 31 32 34 32 34 35 35 37 38 39 40 40 41 42 43 42 40 41 43 40 40 40 39 38 39 37 36 37 39 41 42 41 41 41 41 40 41 39 38 37
32 32 28 31 25 21 23 26 24 29 31 32 33 36 37 37 37 38 38 40 41 42 43 44 43 40 41 42 38 38 38 38 37 34 35 36 38 41 41 38 36 35 36 35 37 38 38 38 38
32 31 31 31 30 28 26 25 32 31 32 32 34 36 38 38 38 38 39 40 41 42 41 42 42 41 41 37 38 39 38 34 31 33 35 36 38 36 33 32 33 34 34 34 35 35 34 33 32
33 31 29 27 23 29 29 26 30 33 33 34 35 37 38 39 39 39 40 40 41 40 40 41 42 41 38 38 38 37 33 30 31 33 33 35 33 32 32 32 35 35 34 33 31 30 29 27 26

GFSSGP_sfc_dewp_012.txt.gz
Dewpoint
40 29 30 26 17 21 23 25 32 42 43 48 47 43 45 50 45 43 57 58 54 59 64 66 70 71 71 71 71 71 70 70 70 70 68 68 68 68 67 66 65 64 63 63 64 64 67 67 66
30 21 23 20 14 14 20 27 31 41 47 48 48 48 43 45 52 55 56 56 54 59 62 64 69 71 72 71 71 71 70 70 69 69 68 68 68 67 67 65 64 63 64 63 63 65 66 66 65
26 19 16 17 16 17 21 29 42 46 47 47 46 50 49 47 52 54 55 54 53 57 60 64 68 69 70 71 71 71 71 70 70 69 69 68 68 67 66 64 64 64 65 65 65 66 66 66 65
21 15 21 15 17 25 28 36 39 43 48 48 41 43 52 57 55 56 57 55 50 52 56 65 68 68 68 68 69 69 69 69 69 69 68 67 66 66 63 63 64 64 65 65 65 64 63 63 63
14 16 18 18 23 29 34 39 41 37 41 45 45 45 49 58 59 58 58 55 52 52 56 57 67 67 67 66 67 67 68 68 68 68 67 67 65 64 64 64 64 65 65 64 65 64 63 63 64
12 21 16 17 24 29 33 36 35 32 37 43 42 43 49 59 57 57 57 54 52 53 57 57 64 66 67 66 66 67 66 66 66 67 67 66 66 65 64 64 64 63 62 62 63 64 64 63 62
14 14 14 17 21 22 23 27 29 29 31 34 41 38 51 55 55 57 55 53 54 53 54 57 57 62 66 65 66 66 66 66 65 65 65 65 65 64 63 62 62 61 61 61 61 61 61 60 59
13 10 9 9 7 8 10 12 15 20 32 46 43 32 44 52 57 57 55 54 54 56 55 58 60 58 60 60 64 65 65 66 64 63 63 63 63 61 61 58 60 60 60 59 59 59 58 58 58
13 5 3 5 5 8 11 9 16 30 30 32 36 39 44 54 58 58 57 55 56 57 59 60 59 60 61 59 60 62 64 65 65 64 62 61 59 59 57 59 59 59 58 58 58 57 55 54 55
10 7 7 7 9 8 10 8 13 19 23 28 36 45 50 56 58 57 56 54 57 58 60 61 63 62 62 56 61 61 60 61 62 62 63 60 62 61 59 59 58 58 58 56 56 57 56 54 48
14 9 12 10 12 10 9 11 12 11 14 18 19 39 51 55 57 55 54 49 52 56 58 61 64 65 63 59 58 57 57 59 61 64 64 62 62 61 60 59 56 57 57 54 54 54 51 54 53
13 15 12 12 15 13 11 14 14 14 12 22 25 36 47 51 52 50 50 48 49 54 57 61 63 65 65 59 57 58 57 58 59 60 64 63 60 60 60 57 55 55 53 56 54 53 56 55 52
16 17 18 17 15 15 17 16 18 17 16 20 33 41 42 45 46 49 49 48 51 56 59 62 64 65 62 62 59 60 61 58 60 60 60 63 60 59 57 56 54 53 52 52 53 52 51 49 46
24 21 22 22 20 22 21 21 21 18 20 20 31 37 41 43 42 46 50 51 55 56 58 62 64 64 59 57 60 59 60 58 59 57 57 62 61 58 55 53 50 49 49 50 51 50 49 46 45
25 22 22 23 22 21 20 19 16 18 19 19 24 30 38 41 42 44 47 51 54 54 55 61 63 60 58 56 55 55 53 54 52 52 56 59 59 56 56 52 50 49 50 53 53 52 50 47 43
19 20 16 23 22 25 23 17 20 25 23 21 25 26 37 41 45 48 52 52 50 50 53 58 57 56 56 54 53 52 51 52 50 51 52 55 55 56 55 51 51 51 52 50 49 49 47 46 43
17 10 15 19 25 25 23 19 23 24 23 26 23 26 30 38 46 47 43 44 44 44 50 55 57 53 52 53 51 52 54 52 48 49 47 49 51 52 53 50 50 53 51 50 49 48 48 46 42
13 12 15 15 21 22 20 22 21 23 23 27 27 26 27 36 42 40 38 36 37 46 51 54 53 51 52 50 50 45 45 45 45 43 42 45 45 48 50 49 51 52 50 49 48 49 47 46 44
19 17 17 17 24 27 26 22 21 24 24 26 25 26 31 36 34 35 39 41 41 47 48 47 48 45 45 42 40 40 41 40 41 42 45 47 46 46 48 46 47 48 48 49 51 49 49 47 46
21 19 18 22 25 28 26 21 22 25 27 28 28 29 31 31 32 35 39 42 44 44 42 40 39 40 40 39 41 43 44 43 43 43 44 43 44 43 42 45 45 45 45 47 49 50 49 48 47
25 22 25 25 26 27 26 23 21 24 26 27 29 29 29 30 32 33 36 40 42 43 43 40 42 43 44 43 41 41 41 41 39 39 38 39 41 40 41 42 43 45 44 43 45 47 47 45 47
23 27 29 27 26 18 28 17 23 22 24 26 28 31 31 31 32 34 37 39 43 45 45 43 43 41 42 44 41 43 39 38 40 40 39 39 41 40 39 40 43 44 43 44 44 42 46 46 44
29 32 30 30 27 26 25 19 25 24 22 24 27 30 33 34 36 38 39 40 42 44 45 45 43 42 42 41 43 41 42 41 40 40 41 39 37 37 37 39 43 43 43 44 46 47 46 45 45
32 31 30 31 30 27 27 24 24 25 27 26 28 32 35 36 35 39 40 40 41 44 45 45 42 41 43 43 42 43 43 42 40 38 37 35 35 35 37 38 42 44 43 44 43 44 44 43 43
30 27 27 29 29 27 27 24 28 28 29 31 32 34 37 39 39 38 38 38 40 42 44 43 42 40 41 42 41 40 41 41 40 38 36 36 34 35 38 41 42 42 44 43 42 42 41 40 39
31 30 31 21 25 24 26 21 27 31 32 33 34 35 36 36 38 38 38 39 40 42 43 44 41 39 38 40 39 40 42 41 38 38 36 36 36 37 40 42 41 41 41 40 41 43 42 39 39
30 31 32 30 31 31 24 27 30 31 31 32 33 35 36 36 36 37 37 39 41 42 43 44 43 41 41 42 43 42 42 40 38 37 37 36 38 37 41 41 41 39 38 38 38 39 39 39 38
32 32 30 31 29 17 14 19 19 30 30 31 32 34 36 36 37 38 38 39 40 42 44 44 43 41 42 42 41 40 40 38 36 36 36 38 39 40 40 39 36 36 38 39 39 38 36 36 37
32 32 30 29 31 25 22 16 30 30 32 31 33 34 36 37 38 38 39 39 41 42 41 41 42 41 39 39 39 39 38 35 35 36 36 37 37 34 33 33 35 37 39 39 38 36 33 31 30
32 30 29 29 21 30 31 22 29 31 32 34 34 35 37 38 37 38 39 40 41 39 38 37 38 38 37 37 37 36 36 35 35 36 36 37 36 36 35 37 39 40 39 37 34 33 30 27 26

GFSSGP_sfc_dewp_015.txt.gz
Dewpoint
47 33 27 26 18 18 24 27 32 34 37 41 39 38 38 44 46 47 51 50 56 61 63 66 71 72 71 71 70 70 70 70 70 69 68 69 68 67 67 66 65 65 64 64 64 66 66 66 66
28 20 24 20 16 15 21 23 29 35 37 37 36 36 36 41 49 51 48 51 56 59 61 66 70 72 72 72 71 71 70 69 69 68 68 68 67 67 66 64 64 64 65 65 65 64 66 66 65
35 21 18 14 14 13 20 23 34 37 38 38 38 39 41 43 46 47 49 51 54 56 61 67 69 70 71 71 71 71 70 70 69 69 69 68 67 67 65 64 64 65 65 65 65 66 66 66 65
21 14 17 14 20 22 25 32 35 35 39 39 32 39 49 49 48 50 49 47 49 51 58 66 68 69 69 69 69 69 69 69 69 69 68 67 67 64 63 64 65 65 65 65 65 64 63 63 63
18 15 14 15 21 25 30 31 33 34 35 35 33 32 47 53 52 50 48 45 46 47 52 59 67 67 67 66 67 67 67 68 68 67 67 66 65 65 65 65 65 64 63 64 64 65 65 65 64
14 18 15 17 21 26 30 32 30 28 30 30 32 37 47 53 50 51 48 45 45 49 52 55 64 66 66 66 66 66 66 66 66 67 67 66 65 64 64 64 63 63 62 62 62 63 62 62 61
16 18 15 19 20 22 24 26 23 23 25 25 29 35 46 47 50 49 46 45 45 49 50 53 55 61 66 66 66 66 65 65 65 64 65 65 64 63 62 62 62 61 61 60 60 60 59 59 59
12 16 14 14 15 13 13 14 17 19 28 29 31 32 42 47 49 48 46 46 48 50 52 55 56 55 58 61 65 65 65 65 64 63 62 62 64 62 61 59 60 60 59 59 58 58 57 57 58
10 7 6 5 5 7 7 7 10 19 23 25 27 34 42 49 50 48 47 47 50 51 55 55 55 55 56 53 60 62 64 65 65 64 63 62 58 58 58 60 59 58 58 58 57 56 55 56 57
8 7 5 5 6 6 5 5 8 17 18 22 30 34 46 49 49 48 46 47 49 53 53 56 59 57 57 50 56 57 55 56 58 58 60 57 60 59 57 59 60 60 59 59 58 58 58 57 49
7 9 8 5 4 3 2 3 6 9 14 20 24 31 44 48 49 48 47 46 47 51 50 54 63 62 58 55 52 52 52 55 56 60 60 59 59 58 57 56 55 56 58 53 55 53 52 53 52
7 7 4 4 6 6 4 8 9 8 12 15 19 33 42 45 46 47 46 43 45 48 49 54 61 63 61 54 51 52 52 54 54 56 59 58 56 57 56 53 52 52 49 52 51 51 53 54 51
8 9 6 7 8 9 12 13 15 10 13 17 24 34 39 42 43 43 44 44 45 47 50 53 58 64 59 58 54 55 56 54 56 56 56 56 55 56 54 53 51 50 49 49 49 49 49 49 48
16 17 17 17 17 17 17 16 18 17 14 15 24 30 34 37 40 42 44 45 46 48 50 53 57 63 58 53 55 56 57 55 54 53 53 55 56 56 53 52 49 48 47 47 48 49 49 48 46
20 19 21 21 21 19 19 16 16 18 19 16 18 26 31 34 36 40 44 45 46 47 49 53 58 62 57 53 52 51 50 49 49 49 52 52 54 54 55 51 51 49 51 53 50 49 49 48 46
18 20 18 20 21 23 21 18 17 21 20 19 21 21 27 32 35 38 41 43 45 45 46 49 56 59 57 51 50 49 48 50 48 49 50 51 52 53 54 50 51 52 53 50 50 48 47 46 46
18 14 14 19 21 21 20 18 21 24 22 22 21 24 24 30 35 41 45 45 43 42 44 47 57 57 53 50 48 51 51 50 46 47 45 47 48 49 51 49 50 55 51 52 51 49 50 47 47
12 8 10 11 19 16 16 17 20 22 23 24 23 23 24 27 34 43 40 41 38 43 47 50 55 53 51 49 49 44 44 44 44 43 43 46 47 48 49 48 51 51 48 48 49 53 50 50 49
13 12 12 14 21 21 18 18 19 24 24 27 27 26 26 30 39 39 41 42 45 49 50 51 51 48 45 42 41 40 41 41 42 43 45 47 45 45 46 44 45 47 45 48 51 50 51 49 51
18 17 17 19 22 22 20 19 21 24 26 26 27 30 33 35 34 38 42 44 45 45 44 43 42 42 41 40 42 45 45 43 43 44 44 43 44 43 42 44 42 43 42 48 49 50 48 48 50
22 21 25 23 22 23 22 20 21 23 25 27 27 28 29 31 32 35 39 42 45 45 43 42 42 43 44 44 41 41 42 42 40 40 41 41 43 42 42 41 42 45 45 44 48 47 47 44 46
23 26 26 25 23 18 22 17 22 22 24 26 28 30 31 31 33 35 38 42 45 46 45 43 42 42 42 45 42 45 41 40 42 42 41 41 41 39 37 38 42 45 45 46 46 42 48 47 44
27 31 28 27 25 23 19 15 24 22 22 25 29 31 33 35 37 38 39 41 42 45 46 45 42 42 43 44 44 43 43 42 42 41 41 41 39 39 36 38 43 44 43 45 46 45 45 43 43
31 30 29 30 26 25 24 20 23 23 26 26 29 32 34 35 37 38 39 39 41 44 46 46 43 41 42 44 44 44 43 42 40 40 39 37 38 37 38 37 42 44 43 43 43 45 44 42 42
29 27 29 29 28 27 24 18 28 28 28 29 31 33 37 39 39 37 38 38 40 42 43 44 42 42 41 42 42 43 41 42 41 39 38 37 35 36 39 40 42 40 42 44 44 43 42 40 39
28 30 32 21 24 23 24 16 26 30 31 32 32 34 35 37 38 38 38 40 40 41 43 44 43 42 42 43 43 43 42 40 39 39 37 36 36 38 39 39 42 42 43 42 41 42 41 39 40
29 29 30 30 32 31 19 23 29 30 31 31 32 33 34 34 35 36 38 39 40 41 42 44 43 40 40 42 43 43 41 40 39 38 37 37 38 36 40 42 42 41 40 40 41 40 40 40 39
31 30 30 31 28 17 13 12 21 30 30 31 31 32 33 34 35 37 38 40 40 41 43 43 42 40 40 40 40 39 39 39 37 37 36 36 37 37 36 38 39 39 39 39 39 38 38 38 39
30 30 29 25 28 25 20 17 26 26 28 30 31 31 34 36 37 37 37 39 39 41 40 39 38 38 37 37 37 38 37 36 35 35 36 37 37 37 36 36 37 39 38 38 39 39 38 37 35
31 29 27 29 22 27 29 24 27 28 28 30 31 32 35 36 36 36 37 39 39 39 38 37 36 34 35 35 34 33 33 34 34 35 36 36 37 36 37 39 39 37 37 37 38 37 34 33 33

GFSSGP_sfc_dewp_018.txt.gz
Dewpoint
50 32 29 28 23 20 16 25 32 34 36 36 37 34 40 47 48 46 49 57 62 64 66 69 71 72 71 72 72 71 71 71 70 70 70 69 68 68 66 66 66 66 66 66 65 66 67 66 65
33 33 25 25 21 17 20 28 30 33 33 31 35 34 41 44 48 46 51 57 60 64 66 69 71 71 72 72 72 71 70 70 70 69 68 68 68 67 66 65 66 66 66 66 66 67 66 66 66
41 30 24 22 18 15 21 27 35 33 32 34 35 44 41 43 46 46 52 56 58 63 66 69 70 71 71 71 71 71 71 71 70 70 69 68 67 65 64 65 65 66 65 65 65 64 64 64 64
29 23 19 16 16 22 22 33 33 32 36 35 36 42 45 46 46 47 49 52 54 61 64 67 68 69 70 70 70 70 70 70 70 69 68 67 65 64 65 65 66 64 64 64 65 65 64 65 65
28 22 16 17 22 27 30 31 30 32 33 32 32 43 47 48 46 44 44 46 49 57 61 63 67 68 68 68 68 68 68 68 68 68 67 66 65 65 65 64 64 63 63 63 64 64 64 63 62
20 21 16 15 23 28 30 30 29 35 32 27 34 43 48 48 46 44 43 45 46 53 57 59 66 67 67 67 67 67 67 67 68 68 66 65 64 64 64 63 63 62 62 61 61 61 62 61 61
22 19 16 21 23 25 28 26 23 23 25 26 32 41 47 46 48 44 43 44 48 49 52 57 60 64 66 66 66 66 66 66 66 66 66 65 64 64 63 62 62 61 61 60 59 59 59 59 59
17 16 14 18 17 19 18 21 20 20 27 28 32 38 42 47 47 44 44 45 47 52 53 56 59 60 62 63 65 65 65 65 65 64 64 64 64 64 62 63 61 60 58 58 58 58 58 58 58
13 10 13 11 12 8 8 7 10 19 23 23 32 36 45 47 45 45 45 46 49 51 57 57 55 58 60 61 62 65 65 65 64 64 63 62 62 62 61 61 61 60 59 59 58 58 58 58 59
8 12 6 5 6 6 5 6 9 16 18 24 33 44 47 46 46 45 44 47 50 54 55 58 60 59 58 49 61 62 61 62 62 62 63 62 62 60 59 61 61 61 61 61 61 61 60 59 53
9 10 7 4 8 4 3 4 10 13 14 23 26 43 46 46 46 45 44 46 49 52 54 58 64 62 60 59 55 58 59 60 62 64 62 62 61 63 61 61 61 61 61 59 59 58 57 55 55
6 6 2 2 4 1 1 3 6 11 15 20 26 35 45 45 45 46 46 45 47 51 51 59 63 64 61 59 57 58 58 59 60 60 61 61 60 61 59 58 55 55 54 54 54 53 55 54 55
6 3 3 4 6 9 10 10 13 10 15 19 28 34 42 42 44 46 46 45 46 49 53 55 63 65 63 60 60 60 60 61 60 59 60 60 59 59 59 57 56 55 54 53 53 52 52 52 51
11 9 9 10 11 12 10 14 17 13 13 16 25 33 38 41 43 44 45 47 48 50 53 58 61 65 61 57 58 60 61 61 60 58 57 57 58 59 58 57 56 55 54 54 53 51 52 52 51
16 16 16 17 16 15 17 16 15 17 16 14 21 28 34 37 39 42 45 48 49 50 50 60 61 64 61 56 57 56 55 52 54 55 55 55 55 56 57 56 55 55 55 55 53 53 51 51 50
15 18 17 18 19 20 18 17 15 18 18 18 17 21 28 34 35 40 45 48 48 48 50 51 56 63 61 58 55 54 55 55 53 54 55 54 55 54 55 55 55 56 56 55 54 53 51 50 50
19 14 17 19 18 20 19 18 17 20 22 21 22 23 24 30 35 40 43 47 50 47 48 49 61 60 59 56 53 55 54 54 54 53 52 53 52 54 54 53 54 55 53 53 53 51 52 50 50
16 11 9 11 18 15 14 16 20 21 21 24 22 24 26 27 33 43 43 44 44 51 51 53 57 58 58 54 53 52 51 51 52 50 51 51 50 52 52 51 53 54 50 50 50 51 51 51 50
13 10 10 16 20 18 15 15 17 22 23 27 28 32 29 39 40 42 45 48 51 53 52 53 52 52 50 48 48 49 50 49 50 49 51 50 50 49 49 48 48 48 47 48 48 48 46 47 49
15 15 15 18 20 19 16 18 21 23 26 26 27 29 36 37 39 43 45 47 49 48 48 47 46 48 47 47 48 49 49 49 48 50 49 49 49 48 45 48 47 46 46 46 46 47 46 46 47
19 19 25 22 21 21 20 19 21 23 25 26 30 32 34 35 37 39 43 47 50 49 49 45 46 47 48 49 46 47 48 48 46 47 46 47 48 46 45 45 45 46 46 45 45 44 44 44 45
20 28 26 22 22 18 21 15 21 23 24 26 29 33 33 34 35 38 43 46 48 49 50 47 46 46 46 49 48 49 46 44 46 47 46 45 46 45 41 42 44 44 45 45 45 44 46 45 43
25 29 26 25 24 23 18 18 22 23 24 28 31 33 36 38 39 39 41 43 45 50 50 50 48 45 47 48 49 48 47 47 46 45 45 44 44 43 41 41 43 43 43 44 46 46 44 43 41
28 29 28 28 27 30 21 20 27 23 24 27 30 33 35 37 39 39 41 43 45 49 50 50 47 45 46 46 46 47 47 46 44 44 42 41 39 39 41 41 42 43 45 44 44 43 42 41 40
28 27 32 34 33 32 26 17 29 28 28 28 31 35 38 40 41 40 39 40 43 46 47 47 46 44 45 48 46 48 46 46 43 42 40 39 38 39 39 42 43 43 44 42 42 41 40 39 39
27 27 36 26 29 27 21 16 26 30 31 32 33 35 36 38 40 40 40 42 43 45 46 46 45 43 42 46 46 47 45 43 42 41 39 39 39 39 41 41 43 42 42 41 41 42 41 40 41
29 29 26 32 34 33 19 27 29 30 30 31 32 33 34 36 38 39 40 43 43 44 46 46 44 42 43 45 45 44 44 43 41 40 40 40 40 37 38 39 41 41 41 40 40 39 39 39 40
28 26 30 35 30 22 15 17 27 29 30 31 30 32 33 34 36 39 39 42 43 43 45 46 44 41 41 40 41 39 40 40 40 39 39 39 38 38 37 38 39 40 40 39 39 38 38 39 40
28 28 27 24 30 28 24 19 24 25 29 30 31 31 35 37 37 38 39 41 42 44 43 42 39 37 37 38 39 39 39 38 39 39 38 38 38 36 37 37 39 38 38 38 38 39 37 37 35
27 27 26 35 27 35 33 24 26 28 29 32 33 33 36 37 38 39 40 41 41 40 41 38 37 37 37 37 36 35 36 36 38 37 37 37 36 36 35 34 33 34 36 36 37 35 35 34 33

GFSSGP_sfc_dewp_024.txt.gz
Dewpoint
46 33 35 28 21 21 18 18 35 37 43 46 47 46 46 48 47 49 65 67 69 69 69 70 71 71 72 72 72 71 71 70 69 69 69 68 67 67 66 66 66 66 66 65 65 65 65 65 64
40 32 31 24 20 19 24 30 39 42 45 44 45 49 51 53 59 63 64 67 69 69 69 70 71 71 71 71 71 70 70 69 69 69 68 67 66 66 65 66 66 65 65 64 63 64 64 64 65
36 33 20 20 20 18 26 31 31 39 44 44 45 46 45 47 58 61 65 68 69 69 69 70 70 70 71 71 70 70 70 70 70 69 67 66 65 65 66 65 65 64 63 63 64 64 64 64 63
33 21 16 14 13 17 32 32 40 42 44 45 45 43 45 52 55 64 67 68 68 68 69 69 69 70 70 71 70 70 70 69 69 68 66 65 65 65 65 64 63 63 62 62 62 62 62 62 62
35 22 16 15 19 30 31 34 39 43 46 44 44 43 44 57 63 64 65 66 66 65 67 68 68 69 69 69 69 69 69 69 68 68 67 65 65 64 64 63 62 61 60 60 60 60 60 61 61
21 20 15 15 21 31 26 36 43 46 44 43 42 42 43 54 58 60 62 63 64 64 65 66 68 68 68 68 68 68 68 67 67 67 67 65 65 65 63 63 62 60 59 58 58 58 59 60 60
21 19 16 14 14 24 25 28 37 46 47 46 43 41 43 45 53 56 59 60 61 62 63 63 65 65 66 65 65 65 66 67 66 66 65 65 65 65 64 63 61 60 59 58 58 59 60 60 60
22 18 16 13 22 23 22 23 26 41 41 47 44 42 39 42 48 54 56 56 58 58 61 61 62 62 62 63 65 65 65 65 65 65 64 63 63 63 64 63 63 62 60 59 60 60 60 60 60
19 16 13 11 16 16 12 18 20 32 39 42 43 43 42 43 47 49 50 51 53 55 57 59 60 60 61 62 63 64 64 64 64 63 63 63 61 61 60 62 61 62 61 61 61 61 60 60 59
17 13 9 10 13 8 7 10 15 36 43 45 45 45 43 43 45 46 47 49 51 53 56 56 58 59 59 59 61 61 62 62 61 61 61 61 60 61 60 61 62 63 62 61 61 62 62 61 57
12 7 7 6 8 8 8 10 16 37 40 44 43 43 42 42 42 44 45 48 50 53 56 57 58 60 58 57 60 60 61 61 61 61 61 60 60 60 60 59 59 58 59 58 58 58 57 57 56
4 7 5 10 7 5 7 9 11 18 36 46 44 43 43 43 43 43 44 48 52 54 55 55 56 57 56 56 58 59 60 60 61 60 57 56 55 54 54 53 52 53 52 54 53 54 51 51 51
5 6 5 11 11 8 10 11 14 18 41 46 44 44 44 44 43 44 44 47 51 54 55 58 57 56 55 55 56 56 57 59 58 57 56 56 55 53 54 54 53 53 52 51 51 51 50 50 50
8 6 5 7 13 14 14 16 13 17 44 45 45 45 45 45 45 44 45 45 50 55 59 61 61 61 58 55 55 55 57 55 57 56 55 55 56 54 54 52 53 52 53 53 52 51 51 51 51
11 7 11 12 13 14 17 16 15 15 45 45 45 45 45 45 45 45 46 46 49 58 61 61 61 59 60 56 54 54 54 54 54 53 54 54 53 52 52 52 50 51 52 51 51 50 51 50 49
15 17 14 16 16 18 15 14 17 14 33 43 44 44 44 45 45 45 45 47 53 60 60 60 60 58 58 59 53 52 49 49 50 52 53 52 52 51 50 48 48 49 48 47 48 48 47 46 47
19 13 18 19 18 17 17 15 19 15 21 27 34 36 39 41 45 47 49 50 53 57 60 60 58 56 59 55 51 52 51 49 49 49 49 50 50 49 47 46 47 46 45 45 46 44 45 44 44
15 16 24 16 18 20 18 15 19 18 16 19 24 39 43 45 46 47 48 49 50 54 58 58 57 57 56 51 48 50 47 47 48 47 47 46 46 46 45 45 45 45 44 44 44 43 44 44 42
17 20 19 19 21 18 18 19 23 25 26 36 40 41 41 42 43 45 47 47 45 45 46 49 49 47 47 48 47 45 45 45 46 45 45 43 42 42 41 42 42 43 43 43 43 44 42 40 42
23 22 22 22 23 18 20 19 24 28 34 39 40 40 41 42 43 44 46 47 47 45 46 45 46 44 44 45 45 45 45 45 45 45 42 42 41 41 38 41 41 41 41 41 41 41 41 42 44
29 26 26 24 24 23 20 21 27 33 36 37 39 40 42 42 42 43 43 46 48 45 45 43 43 43 44 45 44 44 44 44 44 43 41 40 41 40 40 40 41 42 42 42 42 43 42 42 42
29 30 28 26 24 17 20 18 23 30 31 33 35 39 41 42 43 43 43 43 43 43 43 43 43 44 44 44 44 43 42 42 43 42 40 39 40 40 39 42 43 43 43 42 43 43 43 42 40
28 31 29 29 25 26 26 20 22 30 31 34 36 38 41 42 43 43 43 43 44 43 43 43 44 44 45 45 45 44 43 43 42 40 38 38 39 39 40 41 42 42 41 41 40 40 39 40 38
30 31 33 31 29 25 30 25 25 27 31 33 36 37 39 40 42 43 44 45 44 44 44 43 42 44 45 44 43 42 41 40 38 37 37 37 38 39 39 39 42 41 40 40 39 38 38 38 38
28 31 26 26 26 25 33 31 31 33 33 34 36 37 38 38 40 42 43 43 44 43 43 43 42 43 44 44 42 41 40 38 36 36 36 35 37 37 37 38 39 40 40 40 40 39 38 37 36
30 30 26 24 22 24 27 27 29 35 37 38 37 37 37 38 39 40 40 42 42 42 42 42 41 41 42 42 40 40 40 39 37 36 36 38 37 36 36 37 39 40 40 39 39 38 37 36 36
30 25 29 28 28 24 27 29 31 34 35 36 37 37 36 37 38 40 40 40 41 42 41 39 39 40 39 40 39 37 39 38 37 36 37 37 36 36 35 35 37 39 39 38 38 36 36 36 35
25 28 27 27 20 20 22 27 29 33 34 34 33 35 37 38 39 40 40 41 41 40 40 40 38 36 36 36 36 35 34 36 37 37 36 36 35 35 34 33 35 36 37 37 36 35 35 35 35
28 28 29 27 27 22 21 21 27 33 37 34 35 36 38 38 39 40 40 39 38 38 35 35 34 34 34 34 34 33 32 33 37 36 36 36 35 35 34 34 34 29 30 31 31 32 32 30 27
28 29 29 24 21 26 24 21 32 33 34 34 36 37 37 38 39 38 38 37 35 34 32 34 33 33 34 33 32 31 32 32 36 36 36 35 34 34 33 33 27 27 27 27 27 28 27 26 25

GFSSGP_sfc_dewp_030.txt.gz
Dewpoint
50 32 33 29 19 21 18 18 33 40 46 50 53 53 55 58 52 47 64 67 69 69 69 70 71 71 71 71 71 70 69 69 68 68 67 67 66 66 66 66 64 63 63 62 63 63 62 62 61
35 32 27 25 18 15 22 24 40 45 50 53 53 54 55 57 61 63 64 68 68 68 69 70 71 71 71 71 71 70 69 69 68 67 67 66 65 65 65 64 64 63 62 61 61 61 61 61 61
39 29 19 20 19 16 20 36 44 48 46 45 44 47 53 59 62 63 66 68 68 68 69 70 70 70 71 70 70 70 70 69 68 67 65 65 65 64 64 63 63 62 61 59 59 59 59 59 60
31 19 17 14 14 17 23 40 44 46 45 46 47 46 49 61 62 65 68 68 68 68 69 68 69 70 70 70 70 70 70 69 68 67 65 65 64 63 63 63 62 60 59 59 59 59 59 59 61
25 19 13 14 14 26 27 42 47 44 44 45 46 47 51 63 66 67 66 66 66 67 68 68 68 69 70 69 69 69 69 68 68 67 66 64 63 63 62 62 61 60 58 58 58 59 59 60 61
18 18 13 29 30 30 40 45 47 43 45 47 49 47 52 64 64 65 65 65 66 66 67 67 69 69 69 69 69 68 68 67 67 67 66 65 64 64 62 61 60 59 58 59 59 60 60 61 61
18 15 13 35 35 31 33 44 45 44 45 44 45 48 57 61 63 65 65 65 66 66 65 65 66 67 68 67 67 66 66 66 66 66 65 65 64 64 63 62 61 61 61 61 62 62 62 62 62
21 16 15 18 35 36 30 39 47 45 44 44 50 53 56 56 63 63 64 63 62 62 62 62 63 63 63 64 65 65 65 65 65 65 64 63 63 63 63 62 61 62 62 63 63 63 63 62 62
21 17 13 12 33 36 36 35 35 44 42 45 44 52 56 59 60 60 57 57 57 59 60 60 61 60 60 61 63 65 65 64 64 63 63 62 60 59 59 62 63 63 63 63 63 63 62 61 59
21 18 17 15 33 34 34 35 37 44 44 42 43 50 56 57 59 57 56 56 56 57 58 59 59 59 59 59 61 61 62 62 61 61 61 60 59 59 60 60 61 61 60 59 59 58 58 55 53
19 17 13 7 17 29 27 36 40 43 42 43 45 49 53 55 53 53 51 52 52 54 56 58 58 58 58 58 60 59 60 60 60 60 60 59 59 59 59 58 56 54 54 52 52 52 51 50 51
14 12 7 9 14 21 29 27 41 37 40 44 47 49 51 51 49 46 46 48 49 52 54 56 57 57 57 57 59 58 59 59 60 60 60 59 57 55 54 52 52 52 52 51 51 51 50 49 49
13 6 11 8 8 14 12 21 38 25 45 42 47 47 48 47 47 43 43 47 49 52 53 55 57 57 57 56 58 57 58 59 59 60 59 57 53 53 53 52 52 51 50 49 48 47 46 46 46
10 7 9 11 9 13 13 15 18 34 43 41 44 45 46 46 46 46 47 48 50 51 54 56 57 58 57 56 56 57 58 58 59 58 56 55 54 53 52 49 48 47 47 46 46 45 45 44 45
12 6 9 11 12 15 15 13 18 41 42 41 41 43 43 43 43 43 45 48 51 52 55 57 59 58 57 54 54 56 56 56 56 53 53 52 51 48 46 45 45 45 45 44 44 43 44 43 43
14 15 7 11 14 17 11 8 17 44 42 41 40 41 43 47 47 48 45 45 51 55 59 60 59 58 57 56 56 54 53 53 50 49 47 46 45 44 43 42 43 43 43 42 42 42 42 41 41
16 11 16 16 16 16 12 11 17 44 43 43 43 43 45 47 47 48 53 49 53 59 59 59 59 57 56 53 52 49 49 47 44 43 42 42 43 43 42 42 42 42 41 42 42 41 42 41 41
10 14 22 14 22 16 14 20 31 28 44 39 42 44 45 45 45 46 53 56 57 58 59 59 56 55 54 53 51 47 45 43 42 42 42 41 42 43 42 42 42 42 42 43 43 42 42 41 42
17 16 15 18 19 18 30 33 35 32 39 41 43 43 44 44 45 46 48 49 50 53 56 57 53 53 54 51 47 45 45 42 41 40 41 41 41 41 41 42 42 42 41 41 42 42 41 41 41
22 20 20 23 24 21 30 30 37 39 40 41 42 42 43 43 44 46 47 48 50 52 53 53 52 52 47 46 45 44 43 41 40 40 40 39 40 41 41 41 41 40 39 39 41 40 39 40 40
28 23 24 22 22 22 24 25 33 36 40 41 41 42 42 42 44 46 48 49 50 49 44 43 43 43 44 45 44 44 43 43 39 38 38 39 40 41 41 40 39 39 40 39 39 38 37 37 38
25 29 26 24 19 19 21 18 29 33 37 40 41 41 41 42 45 46 46 43 41 42 42 43 43 43 43 43 43 42 41 41 41 38 38 37 39 39 39 40 39 39 40 38 39 39 38 37 35
27 30 27 26 25 24 27 23 27 35 36 38 40 41 41 43 45 43 43 42 42 43 43 43 44 44 44 43 43 43 41 40 39 38 37 37 38 39 38 38 39 39 39 38 38 37 37 37 36
29 31 31 31 28 24 29 22 24 31 34 37 39 41 42 43 42 43 43 43 43 43 42 44 44 44 44 43 43 41 39 38 37 37 36 36 37 38 37 37 39 39 38 38 38 37 36 36 35
30 29 25 25 24 24 28 25 25 30 34 37 39 40 41 42 42 43 43 43 44 43 41 43 43 43 43 42 41 40 39 38 37 36 36 35 35 36 37 35 38 39 39 38 38 37 36 35 34
28 28 26 21 23 24 27 26 28 35 34 38 39 40 40 41 42 43 43 42 43 42 41 41 41 42 41 41 40 40 39 38 38 36 36 36 35 36 36 35 35 38 38 38 38 37 36 35 34
29 25 28 27 27 24 27 29 32 35 36 37 38 38 38 38 40 41 41 41 41 39 39 40 40 41 40 39 38 38 39 39 38 37 37 36 36 37 36 35 34 36 37 39 39 38 35 34 34
26 30 25 25 18 18 21 25 28 33 35 36 36 37 37 39 39 39 39 39 39 38 36 39 39 38 39 38 37 36 35 34 35 36 36 36 37 36 35 35 35 36 35 34 37 36 34 33 33
28 26 26 27 24 19 17 23 28 34 35 36 36 37 38 38 38 38 37 36 35 33 33 35 35 34 34 34 34 34 33 32 32 33 35 36 36 36 35 35 35 34 34 34 32 31 30 29 27
28 26 24 19 17 24 23 20 29 33 35 36 36 38 38 39 37 37 36 34 33 32 32 32 31 31 31 34 32 30 31 32 32 32 33 34 35 35 35 34 34 35 36 32 29 29 27 25 24

GFSSGP_sfc_dewp_033.txt.gz
Dewpoint
47 31 33 31 22 25 25 16 32 44 48 52 54 52 53 56 52 48 65 67 68 68 68 68 70 71 71 71 71 71 70 68 68 68 67 66 66 66 65 64 65 63 62 61 61 60 60 60 59
33 32 30 27 20 18 23 23 41 48 52 55 53 54 48 47 61 63 64 68 68 68 68 68 70 71 71 71 71 70 69 68 68 67 66 66 65 64 64 64 65 63 61 60 59 59 58 58 59
35 27 24 23 21 15 21 42 49 52 52 46 47 51 53 51 62 63 67 68 67 68 68 69 70 70 71 70 70 70 69 69 68 67 66 65 64 63 63 63 64 62 59 60 59 59 57 58 60
30 23 20 18 16 19 26 45 46 48 47 47 46 46 56 62 62 64 68 67 66 68 68 69 69 70 70 70 70 70 69 69 68 67 66 64 63 62 62 63 62 60 60 60 60 60 59 61 62
25 21 17 17 20 28 28 44 46 46 50 47 47 45 55 63 65 67 67 66 66 67 68 69 68 70 70 70 69 70 69 68 67 67 66 64 62 62 62 62 61 60 60 60 60 61 61 62 62
24 20 15 29 33 33 44 46 45 45 45 46 48 50 56 65 65 66 66 66 67 66 68 68 69 69 69 69 69 69 68 67 67 67 66 65 64 63 62 61 61 61 61 61 61 61 62 62 62
23 18 17 35 34 33 43 47 47 44 44 44 49 53 60 64 64 65 65 66 66 66 67 67 67 68 68 68 67 67 66 66 66 66 66 65 64 64 63 63 62 62 62 62 62 62 63 62 62
23 20 23 34 35 37 39 45 46 42 42 46 53 52 56 61 64 65 65 65 65 66 66 66 67 67 67 66 66 65 65 65 65 65 64 63 62 63 63 62 63 63 63 63 62 63 62 60 59
21 19 15 22 36 41 43 42 44 45 43 45 43 56 59 62 64 62 62 63 64 64 64 65 64 65 65 64 64 64 65 64 64 63 62 61 60 60 60 62 63 63 61 61 60 60 58 57 57
22 20 16 17 36 33 35 39 41 43 43 41 49 58 61 62 62 61 61 61 62 61 61 62 63 62 62 59 63 63 62 61 61 61 62 61 62 61 61 61 61 59 58 57 57 56 56 53 49
23 20 19 14 35 38 35 36 43 42 42 42 48 57 60 60 60 60 60 57 57 58 58 59 61 61 60 59 61 60 61 61 62 62 62 62 62 62 62 59 55 56 55 52 52 50 48 50 47
17 13 12 8 19 29 34 37 43 42 39 45 52 58 59 59 59 57 55 53 53 54 55 58 59 60 60 59 59 60 60 61 61 62 63 63 60 58 56 55 54 53 51 51 49 47 49 48 46
17 10 10 10 17 27 29 38 42 36 43 49 53 55 56 57 55 53 50 49 50 52 54 57 59 59 59 59 60 60 60 61 61 62 60 58 56 57 54 52 49 48 48 47 47 46 45 45 44
17 9 10 10 14 14 22 22 33 35 44 49 51 51 51 51 50 47 45 46 50 51 54 57 59 60 59 58 59 60 61 62 62 60 59 59 57 54 50 48 46 44 44 44 43 43 42 41 41
11 11 12 14 14 16 18 15 17 41 43 47 48 47 47 46 46 45 45 47 50 52 57 59 59 59 57 58 57 56 57 59 58 57 55 53 50 50 48 45 44 43 43 44 43 42 41 40 40
14 17 10 12 14 16 14 11 20 44 41 44 45 44 45 44 45 47 48 47 51 55 59 60 59 57 57 56 55 55 54 54 53 53 49 48 48 47 46 43 43 44 44 43 42 42 39 41 41
20 10 15 13 16 16 13 16 30 44 41 41 42 43 44 46 47 49 54 54 53 58 59 60 59 57 57 54 54 52 50 49 46 45 44 46 45 46 44 43 44 44 42 42 40 38 41 39 38
15 14 15 14 16 20 20 30 34 30 43 42 43 45 46 46 46 50 55 58 59 59 59 58 58 57 55 54 52 48 45 44 44 44 42 43 43 45 44 43 43 40 38 38 39 40 39 41 39
16 16 16 18 20 31 33 35 36 36 41 43 44 44 45 46 48 51 54 57 58 59 57 57 55 55 55 53 48 44 45 43 42 41 43 43 43 43 43 39 40 39 37 40 41 38 38 34 38
22 21 22 23 23 28 31 34 38 39 41 42 43 44 45 47 50 51 52 55 58 57 56 57 57 54 51 47 46 46 43 42 41 41 42 42 43 42 41 41 39 40 37 39 40 39 34 35 39
27 25 24 22 23 25 26 26 34 38 41 42 43 44 46 49 49 49 52 55 56 56 56 54 52 51 49 47 46 44 43 42 40 40 39 41 42 40 41 41 40 41 40 37 40 39 35 31 34
26 28 25 23 21 19 23 16 30 36 39 41 43 45 47 47 47 48 48 48 48 47 48 49 48 46 47 47 46 46 44 43 42 41 41 40 42 41 39 40 41 41 41 39 37 37 37 36 31
29 31 28 26 26 26 27 20 25 37 37 40 42 43 44 45 46 44 43 42 43 45 46 47 46 45 46 45 46 46 45 43 41 42 41 42 41 42 40 40 41 41 40 39 40 40 40 38 35
33 32 32 32 29 25 29 23 23 33 36 40 42 42 42 44 44 43 43 44 44 45 46 47 46 46 46 46 46 46 45 43 42 42 41 41 40 40 41 39 41 42 41 41 40 41 40 39 37
32 30 27 28 29 26 28 27 27 30 35 41 41 41 42 44 43 43 43 43 44 44 46 46 46 44 45 45 45 44 44 44 42 41 40 40 39 38 39 41 41 40 41 41 41 41 40 39 38
29 30 31 21 25 26 27 26 27 35 34 41 41 41 42 43 44 43 44 45 45 44 44 45 44 44 43 43 43 43 43 42 41 41 40 39 39 39 41 40 39 38 39 41 41 39 39 41 40
29 25 29 29 27 26 26 28 31 35 35 38 39 41 41 42 43 44 45 45 44 44 43 45 43 43 42 43 42 42 41 41 41 40 40 39 40 37 39 40 39 39 39 39 39 37 37 38 38
28 30 27 28 22 16 19 24 25 33 34 37 39 40 41 41 42 43 43 43 42 41 41 43 42 42 41 40 40 38 38 37 37 37 37 37 37 38 38 38 39 39 38 37 36 35 34 33 35
29 28 28 27 25 18 18 16 31 33 35 37 39 40 40 40 41 41 40 40 38 36 37 39 39 37 36 36 37 36 35 35 35 35 35 36 37 36 36 37 38 37 36 37 36 35 32 30 30
28 28 27 25 19 26 25 20 27 34 36 38 38 38 39 40 40 38 37 35 34 34 36 35 34 32 34 35 33 33 34 33 34 34 34 34 33 35 35 37 36 36 37 37 33 29 30 29 28

GFSSGP_sfc_dewp_036.txt.gz
Dewpoint
42 25 21 29 24 24 22 21 33 44 50 51 51 49 51 53 50 50 64 64 64 65 66 67 71 71 71 71 71 71 69 69 68 68 67 66 66 65 64 65 65 62 61 60 59 58 58 59 60
22 28 29 26 21 18 19 25 32 48 52 51 50 47 46 50 59 62 63 66 65 65 65 65 70 70 71 71 71 70 69 68 68 67 66 66 64 64 64 63 64 63 60 59 58 57 59 60 61
29 27 22 17 14 16 21 34 47 47 46 47 48 51 50 52 60 62 65 66 65 65 65 67 70 70 71 71 70 70 69 69 68 67 65 64 63 63 63 63 64 62 60 60 59 59 60 61 62
20 22 20 14 12 16 33 45 46 45 47 46 50 50 57 59 61 64 66 66 65 65 65 69 69 70 70 70 70 69 69 69 68 67 65 63 62 62 62 62 63 62 61 61 61 61 61 62 62
24 20 12 11 16 26 32 45 45 44 48 44 45 44 53 62 62 64 67 66 64 64 66 68 68 70 70 70 69 69 68 68 68 67 66 64 62 61 61 62 62 61 61 61 61 62 62 62 62
15 18 9 11 24 36 37 44 44 45 42 40 43 47 56 64 64 65 66 65 65 65 66 67 69 69 69 69 69 69 68 68 67 67 66 64 63 63 61 62 62 62 62 62 62 62 62 62 61
16 11 11 26 33 38 43 45 42 41 39 37 46 45 60 62 65 65 65 65 66 66 66 65 66 68 69 68 68 67 67 67 67 66 66 65 64 64 63 63 63 63 62 63 62 62 61 60 60
21 16 24 31 33 39 44 42 41 39 38 47 48 48 56 62 65 65 65 64 67 66 63 61 62 62 63 64 66 66 65 65 65 65 64 63 63 64 62 64 63 63 62 62 61 59 58 58 58
23 15 21 33 38 39 40 39 40 40 42 45 48 53 58 64 64 64 65 65 65 64 61 60 60 61 60 58 62 64 65 65 64 63 63 61 58 58 58 62 62 60 60 60 58 57 57 58 57
19 18 17 20 32 32 37 34 38 38 40 43 48 58 62 63 63 62 62 63 64 60 60 61 61 60 60 55 59 59 57 58 60 59 60 59 62 61 58 60 60 58 58 58 57 56 57 53 44
19 19 17 15 28 31 34 35 38 38 38 42 45 58 61 62 62 61 61 59 54 55 55 56 60 60 57 56 56 56 58 60 61 62 62 63 63 64 61 58 56 57 56 52 52 49 46 49 47
20 18 16 10 30 31 30 35 38 40 38 43 44 57 60 60 61 59 52 49 50 52 53 55 57 59 59 56 56 58 58 60 61 62 64 64 61 61 59 55 55 55 52 51 49 48 49 48 47
20 16 11 13 24 32 33 34 36 39 42 46 53 57 56 56 53 47 45 47 49 50 53 55 57 57 58 59 59 60 62 61 63 63 63 61 59 59 56 55 52 51 49 48 47 46 45 45 44
18 11 9 11 19 30 32 37 40 40 46 51 55 53 49 46 43 43 44 46 49 51 54 57 57 59 58 59 61 62 62 63 63 63 62 60 60 58 54 52 49 47 46 45 45 45 44 43 42
13 11 15 19 24 25 30 29 22 39 45 49 49 47 45 39 40 41 42 44 49 52 56 58 60 61 60 59 59 61 60 60 60 60 59 58 56 55 52 49 46 46 46 47 44 43 39 38 36
10 12 13 18 22 18 24 16 25 40 42 43 44 45 45 43 42 42 42 43 47 52 56 60 60 60 59 60 59 58 56 56 57 57 55 53 51 49 48 46 46 47 44 40 37 36 35 33 34
15 6 10 12 15 20 15 15 27 42 39 43 44 44 44 43 43 46 49 48 47 53 59 60 61 60 60 60 56 56 55 51 49 49 47 48 47 48 47 45 44 43 39 39 36 34 36 34 34
12 6 8 8 13 15 13 24 28 41 39 40 42 44 44 44 45 49 53 51 52 56 59 60 61 60 58 57 57 50 48 46 46 44 44 45 46 47 45 41 42 38 35 35 36 37 35 34 35
11 15 13 14 20 18 19 23 27 37 41 40 41 43 44 46 48 52 56 57 57 59 60 60 59 58 58 56 54 49 45 45 45 44 45 46 45 42 41 37 38 37 37 37 37 34 34 32 36
18 17 20 21 20 23 26 27 31 33 40 41 42 43 44 46 49 53 56 58 58 58 60 60 59 60 57 55 50 48 47 45 44 44 45 45 42 40 37 38 37 38 34 37 38 38 35 31 33
23 21 23 20 22 25 27 26 32 35 39 42 44 44 45 47 50 53 56 58 58 58 59 58 59 58 54 50 48 47 46 45 43 43 43 43 42 39 39 39 38 39 38 35 38 38 37 33 33
22 26 23 22 21 16 24 13 28 34 34 39 42 45 47 49 51 54 54 56 57 58 58 56 54 52 50 49 46 46 43 42 44 44 44 40 42 41 37 37 40 40 39 39 38 34 39 36 33
27 27 25 24 22 23 22 17 24 33 34 35 41 45 49 50 51 49 47 49 51 54 54 52 50 48 48 48 48 47 46 46 44 44 42 42 42 41 39 39 40 40 39 40 41 40 38 36 34
32 30 30 29 26 22 21 22 11 20 29 37 41 47 48 47 47 44 43 44 44 47 49 49 47 46 47 48 48 48 47 44 41 40 38 35 37 37 38 39 42 42 42 42 41 40 39 38 38
30 26 22 24 25 21 28 24 17 28 32 37 42 46 46 46 44 42 41 42 44 47 48 48 46 46 47 48 47 46 43 40 38 38 37 39 37 37 38 41 41 40 40 41 41 41 39 39 38
27 24 22 11 19 21 27 23 25 33 33 38 42 44 44 44 43 41 42 43 44 46 47 46 45 44 45 45 43 42 40 40 39 39 40 39 38 37 37 36 35 35 35 37 40 39 38 37 37
28 25 30 28 30 29 21 26 29 34 33 38 41 42 42 41 42 42 43 45 45 46 47 47 44 43 43 43 42 41 42 40 39 38 38 35 34 30 31 34 33 32 34 36 38 38 38 36 35
30 29 26 29 22 13 13 17 15 31 33 36 40 42 40 40 41 43 44 46 46 45 46 47 44 42 42 41 41 39 39 37 35 35 33 32 32 31 32 32 32 33 34 36 37 37 37 36 34
29 28 26 25 26 16 13 10 28 28 33 35 39 40 40 41 42 43 44 45 44 42 42 41 41 39 39 37 38 37 34 33 33 32 31 31 33 32 31 32 33 33 34 36 38 39 38 32 31
29 28 26 22 19 28 27 13 24 32 35 36 37 39 40 42 42 43 44 43 40 38 37 39 37 35 35 35 33 31 30 30 32 31 30 33 33 32 32 34 33 34 34 35 33 33 32 31 30

GFSSGP_sfc_dewp_039.txt.gz
Dewpoint
48 36 20 19 20 22 21 20 24 42 46 49 48 48 50 54 54 52 60 63 63 64 64 66 71 71 71 71 71 71 69 69 68 68 67 66 65 64 64 65 65 62 60 59 58 60 60 61 61
31 17 15 23 21 17 18 22 31 50 51 48 48 47 47 53 59 61 61 63 64 64 64 66 70 71 71 71 71 70 69 68 67 66 66 64 64 64 63 63 64 62 60 58 60 60 60 61 61
27 15 19 17 19 16 19 35 46 45 45 45 44 48 48 55 58 61 64 64 65 64 64 68 70 70 71 71 70 70 69 69 67 67 64 63 63 62 62 63 64 63 60 60 60 61 61 62 62
18 13 18 17 17 15 18 47 46 44 44 44 45 44 51 57 55 61 64 65 65 66 68 69 69 70 70 70 70 69 68 68 68 66 65 62 61 61 62 64 64 62 61 61 61 61 62 62 62
17 17 13 14 15 16 21 43 41 44 44 42 41 45 46 55 55 62 64 65 64 66 68 68 68 69 70 70 69 69 68 68 68 66 65 63 61 61 62 63 63 62 61 61 62 62 62 62 61
11 15 14 13 14 28 30 42 40 44 41 41 41 43 53 59 57 57 64 66 67 67 67 67 69 69 69 69 69 68 68 68 67 66 65 63 62 63 62 62 62 62 62 62 62 62 61 60 60
17 14 13 13 24 32 37 40 43 40 36 37 42 47 56 60 61 64 65 63 68 67 66 65 66 68 69 68 67 67 67 67 67 67 65 65 65 65 64 63 63 63 63 62 62 60 60 59 59
14 15 14 17 31 33 39 39 40 38 39 41 44 42 52 59 63 65 63 66 65 66 64 63 64 63 65 65 66 66 66 66 66 65 64 64 63 63 64 64 63 62 62 61 59 58 58 58 57
19 16 12 30 35 39 41 37 38 39 37 41 47 49 56 62 63 63 64 64 64 64 57 57 57 59 58 58 62 64 66 65 64 63 63 61 56 58 59 62 61 60 60 59 57 57 56 57 57
15 14 14 35 42 47 42 37 34 34 32 34 46 54 60 61 62 62 61 61 62 56 56 57 59 59 58 51 58 58 58 58 59 58 60 59 59 60 58 59 60 59 58 58 56 56 55 55 46
17 16 20 18 31 43 33 31 34 33 35 39 42 55 60 60 59 59 59 59 54 55 56 56 59 60 56 56 55 54 57 59 60 61 60 62 60 60 59 57 55 56 56 52 52 50 48 51 49
15 16 18 17 21 31 32 32 33 37 46 37 43 57 60 59 58 57 56 51 49 52 52 53 55 57 56 54 54 56 56 58 59 60 62 61 59 60 58 54 54 55 51 53 51 49 51 50 48
15 17 14 18 23 29 30 32 32 36 35 34 49 57 57 57 56 53 45 46 49 49 50 51 55 57 58 58 59 58 60 64 65 65 63 62 59 60 57 56 53 52 50 49 49 48 47 47 46
19 17 14 23 27 29 30 32 32 37 38 43 52 53 53 53 49 43 44 46 49 49 52 54 54 57 57 60 61 64 66 65 63 63 63 62 60 61 57 55 51 49 48 48 47 47 43 41 41
14 13 15 15 23 27 31 32 37 38 39 44 49 48 46 44 40 40 44 48 49 50 54 57 59 59 60 60 60 60 59 58 60 61 60 60 59 58 55 51 48 48 48 49 43 41 39 37 35
13 14 17 19 24 25 27 22 30 36 39 39 40 40 36 35 35 40 43 46 50 53 55 58 59 60 60 60 59 58 57 57 57 58 58 57 53 52 53 49 48 48 45 42 40 37 35 35 34
13 10 15 19 21 21 24 17 27 33 35 36 37 37 35 34 35 39 41 43 48 54 58 59 60 59 59 58 58 57 57 57 52 53 50 50 49 49 49 47 45 44 39 39 38 35 35 33 32
13 13 11 10 13 16 13 17 23 31 33 37 37 38 39 38 37 43 47 46 46 54 59 60 59 61 59 59 58 56 55 52 50 48 46 47 47 47 46 43 44 41 38 38 37 38 35 34 32
12 9 6 8 9 12 11 17 23 31 31 35 38 39 40 41 43 48 51 50 50 57 59 59 59 59 59 56 55 53 51 47 47 45 47 48 47 43 43 40 40 40 36 37 40 38 38 35 35
11 15 14 15 12 15 10 15 21 27 30 31 34 39 41 42 46 50 53 54 54 58 59 60 59 59 58 52 54 54 50 47 47 46 48 47 44 41 39 41 39 39 37 38 39 40 37 36 35
15 17 22 17 18 15 18 17 24 28 32 34 36 37 40 43 46 50 53 56 57 58 58 59 58 58 56 56 51 49 48 47 45 45 46 44 42 40 39 39 39 39 39 37 39 39 38 33 34
20 23 20 18 19 15 19 12 21 28 32 37 39 41 41 43 46 50 53 56 57 57 59 57 55 54 52 50 48 48 43 42 44 44 44 44 43 41 38 37 39 41 39 39 39 35 39 37 33
27 25 21 18 16 20 19 12 23 27 28 32 36 41 44 46 49 51 53 56 57 57 56 54 53 50 48 48 47 47 46 47 46 46 45 44 42 40 38 39 40 41 39 40 42 42 42 38 36
28 26 24 22 19 21 18 16 14 22 25 30 35 40 44 48 50 49 51 50 50 53 53 51 49 47 48 48 49 48 47 44 43 43 40 37 35 35 37 37 40 40 39 39 39 40 38 39 40
25 24 25 24 22 22 23 19 16 23 29 29 36 41 46 48 47 45 45 45 47 50 50 49 46 46 47 48 48 47 45 43 39 39 37 36 35 35 37 39 37 35 35 35 36 38 39 40 41
25 23 24 16 17 17 23 13 21 31 32 34 38 42 45 46 46 43 42 42 45 47 48 47 46 46 47 47 45 44 41 39 38 37 37 36 35 34 35 33 33 33 32 33 35 35 38 38 41
25 21 27 24 33 26 14 16 29 30 31 35 39 42 44 44 44 41 41 43 44 46 48 48 46 44 45 44 43 42 44 39 36 37 37 34 34 30 31 33 32 32 32 33 34 34 36 39 39
27 27 24 24 20 15 9 10 16 26 28 33 38 42 42 43 41 41 42 44 45 46 48 49 47 44 42 41 42 40 41 37 35 35 33 32 32 32 31 31 31 33 33 33 33 35 37 37 38
28 26 24 23 25 21 13 14 20 21 27 31 37 40 42 42 41 41 42 44 46 46 47 47 44 41 41 39 39 42 36 34 33 33 32 30 32 31 29 30 32 32 31 35 37 36 35 33 33
27 25 26 27 20 25 28 17 19 24 25 30 33 38 41 41 40 42 43 45 46 45 45 43 40 39 37 36 39 37 34 30 31 31 29 31 31 30 30 31 31 32 32 33 33 33 33 32 30

GFSSGP_sfc_dewp_042.txt.gz
Dewpoint
49 40 34 27 16 21 19 18 27 43 48 47 47 50 54 56 55 53 63 64 63 64 67 69 70 71 71 71 71 70 70 69 68 67 67 67 67 66 66 65 64 63 60 61 61 61 61 61 61
34 32 21 13 16 17 17 36 47 49 49 48 46 47 51 56 59 61 62 64 63 64 65 67 70 70 71 71 70 70 69 68 68 67 66 66 65 64 63 65 65 63 61 61 61 61 62 62 62
38 22 13 13 15 19 23 44 47 45 45 45 46 48 50 56 58 61 66 66 63 63 65 69 69 70 71 70 70 70 69 68 67 66 65 63 62 63 63 65 64 64 61 61 61 61 62 62 63
22 17 11 16 16 17 33 45 44 43 44 44 44 46 52 52 54 61 66 66 65 67 68 68 69 69 70 70 70 69 69 68 67 65 65 62 62 63 63 65 65 63 62 62 61 61 62 63 63
21 15 10 13 15 16 22 42 43 41 41 42 43 44 49 52 60 64 65 66 65 67 67 67 68 69 69 70 69 69 68 67 66 65 65 64 63 63 63 65 64 63 62 62 62 61 61 62 62
17 12 14 14 14 18 24 41 44 45 49 53 40 45 49 52 57 62 66 67 67 66 67 67 69 69 69 69 69 68 68 67 66 65 65 64 64 64 64 65 64 64 63 62 62 61 61 61 60
16 13 13 15 16 23 35 45 47 47 44 47 40 49 56 53 57 64 64 66 64 66 66 67 67 69 68 67 67 67 67 67 66 66 65 65 65 65 65 65 64 63 63 62 60 60 60 59 57
12 14 14 14 13 36 47 47 50 48 43 40 38 41 50 59 63 58 62 64 64 66 65 66 67 66 66 64 66 66 65 65 65 64 64 63 63 64 65 64 63 62 61 60 58 58 58 58 56
14 13 13 15 25 43 45 48 48 42 37 43 45 52 56 61 62 57 59 63 64 65 65 63 63 64 63 63 64 65 66 65 64 63 63 62 58 60 61 62 62 61 60 59 58 57 56 57 57
15 15 13 29 43 44 44 49 47 32 33 39 48 57 61 61 59 60 61 60 61 62 61 60 62 62 60 56 61 61 61 60 60 60 61 61 63 61 59 60 60 61 59 58 57 55 56 56 51
15 14 14 26 36 42 43 43 43 33 37 41 49 56 61 60 61 61 60 60 60 56 58 58 61 61 56 57 58 59 60 61 63 63 63 63 63 61 61 59 57 59 59 57 55 54 52 52 52
14 15 14 23 38 38 36 38 39 38 40 49 51 58 59 58 58 58 57 57 54 54 55 58 58 61 60 57 58 60 60 62 63 64 63 64 63 61 60 59 58 57 56 54 54 53 52 51 50
13 13 15 17 20 30 34 37 38 36 35 47 50 58 57 54 54 56 56 49 52 51 54 55 58 60 60 61 62 62 62 64 64 65 64 64 63 62 60 58 57 55 53 52 51 50 48 48 45
16 14 17 20 25 27 32 38 40 36 36 52 55 56 54 52 51 49 44 49 50 50 52 55 57 61 61 63 63 63 64 65 64 63 63 63 62 61 60 55 52 51 51 50 49 47 47 43 43
19 16 16 21 25 31 33 32 29 38 40 47 50 50 49 48 45 43 48 50 50 51 52 56 59 62 62 61 60 58 58 60 60 60 61 60 60 58 54 53 52 52 50 48 46 43 42 41 38
12 16 19 23 22 24 33 31 30 36 39 44 47 47 46 44 41 43 48 49 49 53 54 57 59 61 60 59 58 58 58 58 58 58 59 57 55 54 53 51 50 49 49 45 44 43 39 39 38
18 14 20 22 20 23 29 28 29 32 36 38 39 40 41 39 38 43 47 49 51 54 58 60 61 59 58 58 58 58 58 57 57 57 53 52 51 52 51 51 47 48 45 45 42 41 41 38 37
19 14 16 18 18 18 26 24 22 29 34 36 36 35 33 33 35 41 43 48 52 57 59 60 59 60 59 59 59 58 57 56 54 51 49 50 50 51 50 48 47 45 42 42 42 42 41 41 40
19 16 15 11 13 14 13 15 17 26 31 36 36 36 35 36 38 44 48 49 54 60 60 60 60 59 59 57 55 54 53 51 51 48 50 51 50 47 45 46 44 43 42 42 41 41 40 40 40
15 20 18 9 9 12 13 10 19 22 28 34 37 38 39 39 38 47 50 52 56 59 60 60 59 59 58 55 54 54 52 50 49 49 51 51 48 45 44 44 43 43 42 42 43 42 41 39 40
16 27 26 23 14 7 13 8 18 22 26 29 35 38 40 41 44 48 51 53 57 60 60 59 59 58 58 54 56 55 52 51 50 49 50 49 47 44 43 42 42 43 43 42 42 41 41 38 38
22 29 24 22 20 13 27 18 19 22 24 28 31 35 39 41 46 48 51 54 57 59 60 60 59 57 57 57 52 51 47 46 47 48 49 46 46 45 42 41 42 43 44 43 43 39 42 40 37
28 31 28 20 17 28 25 24 29 25 25 27 35 37 39 42 45 48 51 55 55 58 59 60 58 54 54 52 52 51 50 49 49 49 49 47 48 46 43 43 43 43 43 43 43 43 41 41 40
31 29 25 22 23 26 28 29 26 27 32 34 34 38 41 43 45 49 54 56 55 58 59 57 54 52 51 51 52 51 51 48 48 47 47 46 43 41 42 43 43 42 41 39 39 39 38 38 39
23 21 27 31 32 27 15 17 19 33 32 32 34 38 42 45 48 50 52 53 54 54 55 54 51 48 50 51 51 51 49 47 44 43 42 40 40 41 41 40 38 38 38 38 38 37 38 38 39
29 22 32 26 29 25 22 17 21 29 29 31 35 38 44 47 50 48 50 49 51 52 52 51 49 47 49 51 50 49 46 45 44 44 41 40 39 39 38 37 37 37 36 36 36 37 37 37 40
28 23 26 23 37 34 17 11 29 28 30 32 36 40 45 46 46 45 47 48 49 50 51 51 48 47 49 50 48 46 44 43 42 40 39 39 38 33 37 36 35 35 36 37 37 36 37 38 38
23 22 25 26 24 21 12 12 26 27 27 31 37 41 44 45 45 44 43 46 46 49 51 52 50 47 48 46 46 44 44 42 40 39 38 36 35 35 35 35 34 35 36 36 38 37 37 36 37
26 25 21 18 28 29 26 17 20 22 27 30 37 41 44 45 44 43 42 44 46 48 49 50 48 45 45 44 44 43 41 40 38 37 35 34 34 34 33 33 34 34 34 35 35 35 34 34 34
24 25 24 35 25 31 35 24 22 25 25 30 32 38 43 44 43 42 42 44 45 47 48 49 48 45 43 43 41 42 40 38 37 36 34 33 33 34 33 33 33 33 33 33 34 34 33 32 32

GFSSGP_sfc_dewp_045.txt.gz
Dewpoint
54 50 44 33 19 21 20 22 48 50 48 49 56 57 57 58 56 52 65 65 67 69 70 70 70 71 71 71 71 70 70 68 67 67 67 67 66 65 65 65 64 64 62 62 61 60 60 60 61
39 36 34 25 11 14 16 36 47 49 49 49 49 56 56 56 60 63 64 66 67 68 69 69 70 70 71 70 70 69 69 67 67 67 66 66 65 63 63 64 65 64 62 61 61 61 61 61 61
45 36 18 12 10 11 17 44 47 48 48 48 48 51 55 56 60 63 65 66 66 67 68 69 70 70 70 70 69 69 68 67 67 66 65 63 63 63 63 65 65 64 62 61 61 61 60 61 62
29 21 14 11 13 16 21 40 45 45 45 47 49 51 52 53 58 64 67 67 65 67 68 69 69 69 70 70 69 69 67 66 65 65 65 64 64 64 64 65 65 63 62 61 60 60 60 62 61
25 22 9 10 12 15 38 40 44 47 47 47 45 47 49 55 64 66 67 67 67 67 67 67 67 68 70 69 69 68 67 66 65 65 65 65 63 63 63 65 65 63 62 61 60 60 60 61 60
24 16 11 10 13 30 46 49 49 47 48 47 45 47 50 58 64 65 67 67 67 66 66 65 67 68 69 68 68 67 66 66 65 65 65 65 65 65 64 65 65 63 63 62 60 60 60 59 59
17 16 12 10 11 35 45 50 51 51 49 45 48 52 53 58 64 64 64 64 64 65 65 65 67 67 67 67 67 66 66 65 65 65 65 65 65 65 65 65 64 63 62 61 60 59 58 58 57
17 13 11 11 12 42 47 50 49 50 46 47 47 51 51 61 62 60 61 63 64 64 65 66 66 65 64 64 65 65 65 65 64 64 64 64 64 64 64 63 63 63 61 60 58 58 57 57 56
19 13 11 11 40 43 47 46 52 51 51 48 54 54 60 57 62 61 60 61 63 64 65 65 64 63 63 63 64 65 65 63 63 63 63 62 60 61 62 61 62 62 60 58 59 57 56 58 57
15 14 14 22 43 44 45 42 48 47 47 51 58 61 58 55 58 59 57 56 60 62 63 63 63 62 61 61 62 62 62 60 60 60 60 59 59 60 58 60 61 61 60 58 58 56 57 55 50
14 13 15 27 40 43 42 42 43 42 38 43 51 57 58 56 56 59 55 56 60 61 60 62 62 60 56 59 59 60 60 60 59 59 60 61 61 60 60 57 58 57 59 55 54 52 50 48 49
13 14 15 35 41 41 41 43 41 40 41 49 55 58 59 59 59 59 57 57 60 61 58 57 56 55 56 58 58 58 59 61 62 64 63 63 62 61 60 58 58 54 53 50 50 48 46 46 43
14 14 16 37 39 38 41 44 44 42 45 47 51 51 57 59 59 59 59 59 59 56 56 55 56 55 56 58 61 62 63 63 64 63 62 62 61 60 56 52 51 51 49 48 47 43 44 42 42
19 15 18 22 29 34 40 44 42 43 45 47 49 49 52 57 57 58 56 53 53 54 54 55 57 57 62 62 62 62 63 62 62 61 61 60 58 54 52 51 50 49 47 46 43 41 40 39 38
21 16 19 23 31 35 39 40 41 44 43 49 53 56 56 54 58 55 55 49 52 53 53 55 58 62 60 58 58 58 60 60 60 60 59 58 54 53 51 51 48 47 47 42 42 40 38 38 37
24 18 18 24 28 36 33 32 35 43 50 52 55 53 51 46 47 48 48 49 51 51 53 56 60 59 58 57 57 57 57 58 58 57 56 54 53 52 50 48 45 46 44 43 41 39 38 37 37
21 15 21 24 25 35 33 30 33 40 47 47 47 47 44 40 46 47 49 50 50 52 56 59 58 57 57 57 56 56 56 56 56 54 51 50 51 50 49 45 43 45 44 42 40 39 39 38 38
21 18 16 20 22 29 27 26 29 34 43 44 44 43 41 38 43 47 48 51 52 56 59 58 58 57 57 57 56 56 54 54 53 50 49 48 49 49 46 45 43 42 41 40 39 39 40 39 39
21 20 17 18 20 23 27 25 28 30 36 37 37 38 37 36 42 45 48 52 56 59 58 58 57 57 57 56 54 53 52 51 49 47 48 49 49 45 45 45 43 41 40 38 40 39 38 38 38
24 22 21 22 16 13 14 17 23 28 34 36 36 34 33 36 40 43 45 55 58 58 58 58 57 57 57 56 54 53 50 48 47 47 47 49 47 44 42 41 41 40 39 40 40 39 39 39 38
29 28 27 27 29 20 14 14 17 23 28 36 36 37 37 37 41 45 49 57 58 58 59 58 58 57 57 57 53 53 50 48 48 47 48 47 44 42 42 41 41 40 41 40 40 40 39 38 38
28 28 29 26 27 22 25 19 25 22 24 31 37 37 39 42 46 47 49 57 58 59 59 58 58 58 58 55 54 52 48 47 47 47 48 44 44 43 41 40 40 41 42 40 41 41 40 40 37
26 30 29 30 27 27 26 24 25 27 23 26 31 36 39 41 47 48 50 56 58 59 59 58 58 58 57 56 53 50 48 47 48 48 46 45 45 44 41 42 42 40 41 38 36 35 36 37 37
31 31 31 35 33 24 25 25 27 24 26 32 32 34 39 44 47 49 52 55 58 59 59 59 58 57 55 53 50 48 48 47 47 47 46 46 45 43 41 39 37 37 36 35 36 35 35 36 36
30 28 27 27 28 27 28 26 28 30 28 34 31 32 41 44 48 52 54 54 56 57 58 58 58 52 50 49 49 49 45 44 44 44 43 40 39 39 36 35 35 35 35 34 35 35 35 35 36
28 30 27 25 28 27 26 24 26 31 32 33 35 37 41 47 50 54 55 54 55 56 56 55 51 49 49 48 49 47 42 42 41 42 40 40 39 37 35 35 34 33 34 34 34 35 35 36 36
34 31 32 31 33 27 24 20 29 31 32 35 36 40 46 47 47 50 51 52 53 52 51 49 47 47 49 49 46 43 42 41 39 39 39 38 37 34 35 34 31 32 33 34 37 36 36 35 36
30 28 26 28 18 17 20 20 29 31 33 36 38 43 45 46 46 47 48 49 50 49 49 49 47 48 49 45 43 41 41 39 39 38 37 36 35 34 33 31 31 32 34 35 34 35 34 34 34
27 27 27 25 29 23 22 20 24 28 31 35 39 43 45 45 45 45 45 47 48 48 49 48 47 47 44 42 42 41 39 40 40 38 37 35 34 33 31 31 31 32 34 33 33 33 33 32 32
24 27 32 27 22 27 26 23 23 26 30 32 36 43 44 45 45 44 42 45 46 47 48 49 46 44 43 42 41 40 40 41 37 36 35 35 33 33 31 32 32 33 33 32 31 33 33 32 31

GFSSGP_sfc_dewp_048.txt.gz
Dewpoint
55 53 43 33 20 20 19 21 47 48 47 53 57 57 58 58 55 50 64 65 69 69 70 70 70 71 71 71 71 70 69 67 65 66 66 66 65 65 65 65 65 64 61 61 60 60 60 61 62
41 38 34 25 11 10 12 25 41 48 49 55 54 57 56 57 62 63 64 67 68 69 69 69 70 70 70 70 70 69 67 66 66 66 65 66 64 64 64 65 64 64 61 61 60 59 58 60 63
44 37 21 18 10 7 11 39 47 49 48 47 49 54 55 57 62 63 65 68 68 68 68 69 69 69 70 70 69 68 67 67 66 65 64 64 64 64 63 65 64 64 61 60 59 58 58 61 62
29 22 17 10 10 13 14 20 47 46 46 49 51 50 51 57 60 64 65 68 68 68 69 69 69 69 69 69 68 67 67 66 65 66 65 64 64 64 64 65 64 63 60 60 59 58 59 61 61
26 20 12 8 10 28 47 50 49 48 46 46 46 48 48 62 66 67 66 66 67 68 68 68 68 69 69 69 68 67 66 65 65 66 66 65 63 63 63 65 64 63 60 60 59 59 60 60 60
24 17 11 10 12 39 47 51 50 50 50 47 47 48 52 64 64 65 65 66 67 66 66 67 67 67 67 67 67 66 65 65 66 66 65 65 65 64 64 64 64 63 61 60 60 61 60 60 59
23 17 13 12 13 17 47 51 50 51 51 46 50 51 56 60 64 64 64 65 65 65 64 64 64 66 67 67 66 65 65 65 65 65 65 65 65 65 65 65 64 63 62 61 61 60 59 59 59
19 14 12 11 11 31 48 48 49 47 47 50 53 49 53 59 62 62 62 62 63 63 63 62 64 65 65 64 65 65 65 65 64 64 64 64 64 64 64 64 64 63 61 60 59 58 58 58 58
18 15 13 13 30 41 47 47 50 49 46 51 59 56 59 59 60 61 61 60 61 61 61 62 63 64 64 63 64 64 64 64 63 63 63 62 61 60 59 61 62 62 60 58 58 59 58 57 56
16 14 13 14 37 43 45 44 48 47 47 50 55 58 59 58 58 57 58 59 60 60 62 63 62 63 62 61 62 61 60 60 60 60 59 58 60 61 58 60 61 60 59 58 59 57 55 51 48
16 13 14 17 41 43 42 40 44 42 43 46 54 55 58 57 56 56 58 58 58 60 62 63 62 61 60 60 61 60 59 58 58 58 58 59 60 60 58 58 57 56 56 50 49 47 46 43 43
11 13 14 25 44 40 40 40 40 40 40 51 57 55 57 57 55 56 57 58 59 61 62 63 61 58 57 58 58 58 58 60 60 61 61 61 61 60 58 56 54 52 50 48 45 45 43 41 39
17 18 16 33 40 41 41 41 41 41 52 56 58 56 56 58 55 56 56 57 60 60 59 61 59 55 57 57 58 60 61 62 62 62 61 62 60 58 53 51 50 49 47 44 41 40 39 39 36
28 26 24 36 39 40 38 40 37 42 49 53 54 56 57 57 56 56 56 56 59 58 57 59 56 55 59 61 61 62 62 62 61 60 59 59 56 51 50 49 48 46 44 42 40 37 37 37 36
29 18 20 34 37 40 40 37 38 43 45 48 49 49 52 56 58 56 56 57 59 55 55 56 60 61 60 60 61 60 60 59 59 58 57 54 53 52 50 48 47 46 42 41 38 38 37 37 37
27 18 17 22 33 37 32 28 35 42 45 46 50 52 53 56 57 56 57 57 55 53 54 60 60 58 58 57 58 58 58 58 57 57 55 53 52 50 47 45 45 46 43 40 39 38 37 37 37
24 14 22 24 29 34 29 27 33 45 48 52 54 54 53 55 55 56 52 53 53 52 57 59 58 57 57 57 56 55 56 56 55 53 51 51 51 49 45 44 44 43 42 40 39 39 38 37 37
21 19 16 20 24 33 30 27 29 46 50 52 51 48 46 53 52 54 50 52 52 53 59 58 57 57 56 56 55 54 53 53 52 49 48 49 50 47 45 44 43 42 40 39 39 38 38 38 38
24 21 20 20 21 31 31 26 27 45 48 47 46 45 43 47 49 49 49 50 51 58 58 57 56 56 56 55 53 52 51 52 49 48 48 49 48 47 45 44 42 41 38 40 40 39 37 37 38
27 26 24 21 25 24 25 24 26 40 45 46 45 43 41 43 46 48 49 50 57 58 58 57 56 56 55 55 53 53 51 50 47 47 48 49 45 44 43 42 40 39 40 39 39 38 38 38 38
27 27 26 25 27 19 15 14 22 27 37 42 43 42 40 38 44 47 51 55 57 57 57 56 56 56 56 55 53 50 49 47 46 46 46 48 45 43 42 42 40 40 40 39 39 39 38 37 38
26 29 28 28 24 18 21 10 24 22 28 36 37 37 37 38 43 48 52 56 57 57 58 56 56 56 56 56 53 49 47 46 47 46 47 46 44 43 42 41 41 42 41 40 40 37 36 37 33
28 31 29 29 27 27 27 21 21 23 23 34 36 36 35 39 41 49 55 56 57 58 58 57 56 56 56 56 53 50 48 47 47 47 47 45 44 43 42 42 41 39 38 36 35 34 34 35 35
31 29 34 34 31 24 26 23 21 24 23 26 35 36 38 41 45 47 56 57 58 58 58 58 57 57 58 57 53 51 48 47 47 47 45 44 44 42 40 37 37 36 35 34 34 33 33 33 34
29 28 25 24 26 24 29 25 25 28 27 29 31 35 40 43 48 50 56 57 58 58 58 58 57 57 57 56 53 51 48 47 47 47 46 42 39 38 37 36 35 35 34 34 34 33 34 35 35
30 28 25 19 25 25 29 25 26 30 31 33 33 31 41 45 47 50 55 57 58 58 58 58 58 56 54 52 50 48 46 46 46 44 42 40 39 38 37 38 36 34 34 34 36 36 36 34 35
32 29 31 30 31 28 26 21 28 32 32 35 35 38 40 46 49 52 53 56 57 58 58 58 58 54 51 50 47 43 42 42 41 40 40 39 38 37 37 33 33 33 35 36 35 34 33 33 34
28 29 28 30 20 19 19 20 27 31 33 37 38 39 46 48 51 53 54 54 56 56 54 51 51 49 49 47 44 42 44 43 40 39 39 38 37 35 35 34 32 33 35 34 34 33 33 32 32
27 25 27 26 27 22 21 19 22 31 33 36 38 43 46 46 48 51 51 52 52 52 49 47 47 48 46 43 44 43 42 43 43 40 39 36 38 37 34 32 31 32 34 33 33 31 32 32 32
33 31 31 26 20 26 25 20 25 30 32 37 38 43 46 46 46 48 49 50 49 49 48 47 47 46 43 42 42 40 41 43 41 39 39 39 36 35 33 33 31 33 33 33 31 31 32 32 31

GFSSGP_sfc_dewp_051.txt.gz
Dewpoint
54 51 41 31 20 19 18 20 30 47 48 55 57 56 56 58 52 47 63 65 68 69 70 70 70 70 70 70 70 69 67 65 64 64 66 66 66 66 66 65 64 64 61 60 60 60 63 65 66
43 40 31 20 11 10 11 17 28 40 52 58 54 56 56 56 62 62 63 68 68 69 69 69 70 70 70 70 69 68 66 65 65 65 64 65 65 64 64 65 64 63 62 60 59 60 60 62 64
42 32 23 18 10 7 9 22 47 48 52 51 51 54 55 56 63 63 66 68 68 69 69 69 69 69 70 69 68 67 67 66 66 66 65 64 63 63 63 65 64 63 61 58 59 60 60 62 63
28 21 16 11 10 12 14 45 39 46 47 49 51 49 54 63 63 65 67 68 68 69 69 68 68 69 69 68 68 67 67 66 66 66 66 64 63 63 63 64 64 63 60 58 58 59 62 61 61
25 20 15 8 8 20 47 50 50 48 49 49 49 48 53 64 65 66 67 67 67 67 68 67 67 68 69 68 68 67 66 66 66 66 66 65 64 63 64 65 64 63 61 59 58 61 61 61 60
24 17 11 11 11 29 47 50 50 49 49 48 48 49 56 63 63 66 66 65 64 64 67 67 67 67 67 67 67 66 66 66 66 66 65 65 65 64 64 65 64 63 62 61 61 61 61 60 61
22 19 14 12 13 13 45 51 49 49 47 45 51 51 57 61 64 64 64 64 63 63 63 64 65 65 66 66 66 65 66 66 66 65 65 65 65 65 65 64 63 63 62 61 61 61 61 60 59
22 16 14 11 11 18 46 48 49 48 47 49 53 51 53 60 63 62 63 62 61 61 61 62 64 65 64 63 65 65 65 65 65 65 65 64 64 65 64 64 63 62 61 61 61 60 60 60 59
18 17 14 13 16 29 48 46 49 50 48 56 58 56 59 62 61 60 59 58 58 58 59 59 61 64 63 63 63 64 65 65 64 64 63 62 61 60 58 62 62 61 60 61 60 58 57 56 56
18 15 14 15 20 41 47 45 46 45 51 54 55 59 60 60 59 58 57 56 56 55 56 56 56 61 63 62 62 61 61 61 61 60 60 60 60 58 59 61 61 61 60 58 57 55 52 47 44
19 15 15 14 31 43 44 42 46 44 45 52 55 56 57 58 58 57 57 56 56 57 57 59 57 60 61 60 61 60 59 59 59 58 59 59 60 58 58 56 56 53 51 46 45 43 41 39 40
12 14 13 13 43 41 41 41 41 43 43 54 56 56 55 56 57 57 57 57 57 58 59 62 61 61 60 60 60 59 57 58 58 58 59 60 60 57 56 56 53 49 47 43 43 42 40 37 37
15 21 23 30 40 39 41 41 40 47 56 56 56 55 56 55 56 57 57 56 57 59 61 62 61 59 58 58 58 58 59 60 61 61 61 61 60 58 54 51 49 47 43 41 39 38 37 36 35
27 28 37 40 40 40 37 40 39 48 56 55 56 56 55 54 55 56 56 56 59 59 60 62 59 57 57 58 58 59 61 61 60 60 60 59 56 52 50 48 46 44 42 39 37 36 36 36 35
29 18 35 38 39 38 37 34 37 49 55 54 54 55 56 55 54 55 55 56 59 59 59 61 58 56 58 59 60 60 60 60 59 58 56 54 53 51 49 47 45 43 40 38 38 38 37 37 36
26 19 24 31 37 38 31 27 40 49 51 51 51 55 55 55 54 54 55 55 59 57 58 58 57 58 59 59 58 58 58 58 57 55 53 53 52 50 47 46 45 43 41 39 38 38 37 37 37
25 12 22 24 33 36 33 25 36 45 48 48 48 51 54 54 54 54 55 55 59 55 56 57 59 58 57 56 56 56 56 56 55 53 52 51 49 47 45 45 44 42 40 40 39 39 38 36 37
23 20 18 19 25 32 32 27 39 42 45 47 52 53 54 55 56 55 56 56 57 53 58 59 58 57 56 55 54 54 54 53 52 51 50 49 48 45 44 43 43 41 40 39 39 38 38 37 37
28 23 20 21 22 29 30 29 27 45 50 51 52 52 53 55 56 56 56 55 53 55 58 58 56 56 56 54 53 52 52 51 49 48 48 49 47 45 43 42 41 39 38 39 38 38 36 38 38
28 25 23 24 25 26 27 29 26 44 49 50 50 49 47 54 54 54 52 52 52 56 58 57 56 56 56 55 53 52 51 51 48 48 48 48 47 45 43 41 40 39 41 39 38 38 38 38 38
27 26 25 25 26 22 22 21 25 39 46 48 49 48 45 50 51 52 49 51 52 56 57 57 56 56 55 54 52 50 48 48 46 46 47 48 44 45 43 41 40 40 40 39 39 38 37 35 36
26 29 28 28 24 15 20 12 20 27 39 44 46 45 43 46 49 49 49 50 53 55 57 57 57 56 55 54 52 49 48 47 46 46 46 48 45 43 42 41 40 41 41 40 38 36 36 35 31
28 31 30 29 26 26 25 21 20 24 32 37 43 44 42 42 46 47 49 50 53 56 57 56 57 56 56 54 53 51 48 47 47 46 46 46 44 43 41 41 41 40 38 35 34 34 33 34 33
32 30 31 32 29 22 25 23 22 22 22 27 38 42 41 38 44 46 48 51 54 57 57 56 56 56 56 55 54 51 49 47 46 46 46 44 43 42 41 39 38 37 36 34 33 33 32 33 34
29 27 23 23 24 23 27 25 25 26 27 25 31 37 38 38 42 45 50 54 56 57 57 57 56 56 56 56 55 53 49 47 47 46 46 43 40 37 37 38 39 37 35 35 34 34 35 35 34
31 27 24 17 22 22 28 27 24 29 32 32 31 36 38 40 43 49 54 55 56 57 57 58 57 56 56 56 55 53 50 48 47 47 45 41 38 38 38 40 39 36 35 36 37 36 35 33 34
31 28 29 29 30 27 25 24 26 31 32 35 34 34 39 42 45 50 55 56 57 57 57 58 57 57 57 56 55 50 48 47 45 43 42 41 39 39 40 38 37 37 38 37 34 34 33 33 34
29 30 25 27 19 20 19 20 24 29 30 33 36 36 38 45 47 50 55 56 57 57 58 58 58 57 55 52 49 46 44 44 41 42 41 39 41 40 39 38 38 35 36 35 34 33 33 32 33
27 26 26 27 25 20 20 21 21 30 31 32 34 38 45 47 51 53 54 56 57 57 57 57 57 55 49 47 44 44 43 42 42 40 39 38 40 40 41 37 35 34 34 34 32 32 32 32 32
30 29 29 25 21 25 25 20 23 25 31 35 36 38 46 47 51 53 53 54 55 55 55 55 54 51 48 47 45 43 42 41 40 38 38 42 44 41 36 36 33 34 34 33 33 31 31 31 31

GFSSGP_sfc_dewp_054.txt.gz
Dewpoint
53 47 39 27 18 18 18 17 21 36 48 56 57 56 55 58 53 47 63 65 68 68 69 69 70 70 70 69 69 68 67 66 64 65 66 67 66 65 65 65 64 64 63 64 66 65 65 66 67
43 39 30 18 12 12 11 16 30 40 51 54 54 55 57 57 61 61 62 68 68 69 69 69 70 70 69 69 67 67 66 66 65 65 65 66 66 65 65 65 63 64 63 62 64 66 66 66 65
39 28 23 16 10 7 8 13 41 47 51 51 51 53 55 58 61 63 66 68 68 68 69 69 69 69 69 68 67 66 66 66 66 66 65 64 65 65 65 64 63 63 63 60 61 62 61 63 64
26 21 16 11 10 10 10 32 49 46 48 49 50 49 56 62 64 65 68 68 68 68 69 68 68 68 68 68 67 67 67 66 66 66 66 64 64 64 65 64 63 63 62 60 60 60 61 62 62
24 20 14 12 7 11 45 49 49 46 47 48 50 49 54 63 66 66 66 66 65 66 68 67 67 68 68 68 67 67 67 66 66 66 65 65 65 65 65 64 63 63 62 61 60 60 61 61 62
24 17 11 13 11 15 47 49 50 48 48 49 50 51 57 63 64 64 63 63 64 64 64 67 68 67 67 67 66 66 66 66 66 66 65 65 65 65 65 64 63 63 62 62 62 62 61 61 59
21 18 13 12 12 12 37 50 49 49 47 45 51 50 58 61 64 63 62 62 62 62 61 63 64 63 66 66 66 66 66 66 66 66 65 65 65 65 64 63 63 62 62 63 62 61 60 60 59
23 17 22 12 11 11 46 48 49 47 47 50 54 52 54 60 63 62 61 61 61 60 59 60 61 63 63 63 65 66 66 65 65 65 65 65 65 65 64 63 62 62 62 61 60 60 60 59 58
19 16 15 14 15 20 48 45 48 50 51 56 57 55 59 61 60 59 59 59 59 60 60 62 59 58 63 62 64 65 65 65 65 64 64 62 61 60 59 62 61 62 60 59 58 55 54 54 54
19 17 16 16 16 29 45 45 45 46 52 54 55 60 60 60 58 57 57 56 57 57 58 59 60 63 62 61 61 62 63 62 61 61 60 59 58 58 60 61 61 60 58 57 54 51 49 44 39
17 15 16 15 15 41 45 45 45 45 48 53 54 58 58 58 57 56 55 54 54 54 55 56 56 61 61 61 60 60 60 59 59 59 59 60 58 58 58 56 53 50 49 43 42 39 38 39 39
16 15 15 13 31 43 43 42 42 42 45 54 56 57 58 58 57 56 54 53 52 53 52 56 58 60 61 60 59 59 58 58 58 58 59 60 57 57 55 52 49 46 44 42 41 40 38 37 38
14 18 24 27 41 41 41 41 41 51 55 56 56 56 56 57 56 57 56 54 56 56 57 59 60 60 59 59 58 58 58 58 58 59 59 60 58 56 54 49 47 43 42 40 38 38 37 36 36
25 27 35 40 40 40 39 40 43 52 55 54 55 54 56 56 56 57 56 56 56 56 58 61 60 60 58 58 57 58 59 59 60 60 60 60 58 54 51 47 44 42 40 38 37 37 37 36 36
29 20 35 38 39 39 37 37 38 53 53 54 54 54 54 54 56 56 56 56 56 57 60 61 60 57 57 57 58 58 60 60 59 58 58 57 55 51 50 45 43 40 39 38 38 38 38 37 35
25 17 27 33 38 38 32 26 44 54 53 53 53 53 54 54 54 55 55 56 59 58 59 60 59 57 57 57 57 58 58 58 57 56 55 53 54 51 48 45 42 42 40 39 39 38 37 38 36
23 15 20 28 35 36 32 26 42 53 52 52 52 52 54 54 54 54 55 55 58 58 58 58 57 56 56 56 56 56 56 56 56 54 55 52 50 48 46 45 43 42 43 40 39 39 38 36 37
24 25 22 19 28 33 34 32 40 50 50 50 51 53 54 54 54 54 54 55 58 56 56 58 57 56 55 54 54 54 54 54 54 53 51 49 48 46 45 44 42 42 40 39 39 38 38 38 37
27 26 22 20 22 28 29 30 39 45 47 46 48 50 53 54 54 54 54 56 57 54 57 58 56 55 56 56 54 52 52 52 51 52 51 49 46 44 44 42 41 40 39 39 38 38 37 38 38
27 26 24 23 26 25 25 26 28 42 44 46 48 51 52 55 55 56 56 56 54 54 57 57 56 56 56 56 52 52 51 51 51 52 49 48 46 44 42 42 40 39 40 39 39 38 38 38 38
27 26 26 24 25 22 23 20 26 36 47 49 50 51 51 53 54 56 55 54 54 54 57 57 56 56 56 55 52 50 51 50 49 47 47 48 46 44 42 41 40 40 40 39 39 38 36 34 35
24 28 29 28 25 18 21 13 19 28 42 47 49 49 50 49 54 54 55 53 53 53 56 57 57 56 56 54 52 50 50 49 48 47 47 47 45 45 42 40 40 40 40 40 37 36 36 33 31
26 31 31 29 26 25 24 21 21 25 30 40 47 48 48 47 51 53 54 53 52 54 56 57 57 56 56 54 53 52 51 51 50 49 46 47 44 43 41 41 41 40 38 36 35 34 34 34 33
31 31 29 31 27 22 24 22 22 22 25 34 41 46 47 45 47 50 52 51 51 54 55 56 56 56 56 55 53 52 51 51 50 47 46 45 43 42 41 40 38 37 36 35 35 34 34 34 34
29 26 22 23 24 21 27 25 24 25 27 26 31 40 46 45 43 47 48 49 52 54 55 56 56 56 56 56 54 53 52 52 49 46 46 43 41 39 38 37 37 36 37 38 36 36 36 36 36
29 26 24 17 21 20 26 24 24 28 32 33 31 30 41 43 41 44 47 50 53 55 55 56 56 56 56 56 56 54 53 50 48 47 46 44 40 38 38 39 39 38 37 37 38 37 36 35 35
31 26 28 27 29 25 24 24 21 29 31 35 33 36 38 38 39 43 46 50 54 55 55 56 56 56 56 56 56 54 53 49 47 47 44 41 39 39 39 39 39 40 41 39 37 36 34 34 33
29 30 25 26 20 20 19 19 20 23 28 31 34 36 36 41 42 45 49 52 55 56 56 56 57 56 56 56 56 54 52 49 47 44 42 40 41 40 39 40 42 42 39 37 36 34 34 33 33
29 27 26 25 24 20 19 20 22 22 30 30 32 36 38 40 45 47 52 54 55 56 56 56 57 57 56 55 54 51 48 46 44 43 42 42 41 41 41 42 41 37 37 36 35 34 33 33 32
28 28 27 25 21 25 24 21 23 22 25 32 33 36 42 46 47 50 51 54 55 56 56 57 57 57 55 52 49 47 45 46 46 43 43 42 43 43 44 40 36 35 36 35 34 33 31 32 32

GFSSGP_sfc_dewp_057.txt.gz
Dewpoint
54 42 37 27 19 21 15 15 20 24 36 56 57 55 53 57 53 49 63 65 68 68 67 68 70 70 70 69 68 68 67 66 66 67 67 66 66 66 66 66 66 68 67 67 66 67 67 63 63
45 36 31 23 16 11 7 16 20 39 46 53 54 54 52 52 60 61 62 67 68 68 67 67 69 69 69 68 68 67 66 67 67 67 67 66 66 66 66 65 65 68 68 67 66 68 64 63 64
37 26 28 21 14 8 10 12 31 46 51 51 52 54 57 56 61 62 66 67 68 67 67 67 69 68 68 67 67 66 66 67 67 67 66 67 66 65 65 64 64 65 66 66 66 64 62 63 64
28 23 18 16 12 12 11 15 48 46 47 48 51 51 58 63 64 65 66 67 68 67 68 67 68 68 67 67 67 66 66 66 66 66 66 66 66 65 64 64 64 64 64 62 61 61 61 63 63
25 23 18 12 9 11 20 46 48 46 47 48 50 52 55 62 65 65 65 66 66 66 67 68 67 67 67 67 67 66 66 66 66 66 66 66 65 65 64 64 64 63 63 63 62 61 62 62 61
26 21 17 12 13 13 38 49 48 46 48 49 50 53 57 64 63 63 64 64 64 64 66 66 67 67 65 66 67 66 66 66 66 65 65 66 65 65 64 64 63 63 63 62 61 61 62 62 61
25 21 17 13 14 14 31 50 48 47 46 44 51 51 57 61 62 62 62 62 63 62 61 60 60 61 61 62 66 66 66 66 65 66 66 66 65 64 63 63 63 63 62 62 62 62 61 59 58
24 21 15 14 13 14 41 48 48 49 46 51 56 50 53 60 62 62 61 60 60 62 61 60 59 58 59 61 65 66 66 66 65 65 65 65 64 64 64 62 63 63 63 62 60 61 59 55 55
20 20 17 16 15 19 46 45 49 50 51 55 56 55 59 61 60 60 59 59 59 59 58 59 57 57 58 63 64 65 66 65 64 64 64 62 58 57 56 62 62 61 61 59 57 56 55 54 52
21 20 17 18 17 22 44 45 45 46 52 52 54 59 60 60 59 58 58 57 58 58 57 57 57 54 52 53 59 64 64 62 62 62 61 58 59 58 56 60 60 59 58 57 53 50 47 44 37
19 19 18 17 17 24 38 45 44 45 48 52 53 56 59 58 57 58 57 57 57 57 54 52 53 56 59 59 61 62 61 60 61 61 60 59 60 59 58 56 52 51 49 41 42 40 39 41 38
19 18 18 16 17 39 37 44 43 45 46 52 55 57 58 57 56 56 56 56 56 55 52 58 60 61 61 60 60 60 59 59 58 60 61 60 58 59 57 51 49 47 44 44 42 41 43 41 41
16 17 24 24 33 40 42 42 43 50 55 56 57 58 57 56 56 55 54 54 55 52 53 55 59 61 61 60 59 59 60 58 61 61 62 61 58 59 54 50 47 45 43 42 41 40 39 40 39
24 24 33 40 39 40 40 43 44 51 55 55 55 55 56 55 56 53 54 53 53 51 52 55 57 61 60 59 59 59 60 60 60 60 61 61 58 57 51 48 45 43 41 40 39 39 38 38 38
28 26 31 39 39 39 40 37 37 52 54 53 53 54 55 55 56 52 53 53 53 51 53 56 58 61 61 59 59 58 58 59 59 59 61 62 59 57 53 48 45 42 42 43 42 41 41 38 36
25 19 23 32 38 38 35 31 44 52 53 52 53 54 55 55 56 56 55 54 53 52 55 58 59 61 61 60 59 58 59 60 61 61 62 62 59 57 53 48 44 43 43 42 42 40 39 39 38
27 18 20 27 37 37 33 29 44 52 52 51 52 52 53 53 55 56 57 56 56 56 57 60 61 61 60 60 59 61 61 62 62 61 60 59 57 55 52 47 44 45 43 43 41 41 41 39 39
24 25 24 21 26 35 34 33 44 52 52 51 49 51 52 53 53 55 56 56 57 57 58 60 61 61 60 60 60 60 61 61 60 59 58 56 55 52 50 46 46 44 42 43 42 43 42 41 41
27 25 23 22 23 33 33 32 36 51 52 50 50 50 51 52 53 55 55 56 57 58 59 60 60 60 59 57 57 57 58 59 59 57 56 54 52 50 49 44 45 44 43 43 44 43 43 41 42
28 25 25 25 26 27 25 24 28 47 50 49 48 49 48 51 53 54 55 56 56 57 59 59 59 59 58 57 57 57 57 58 57 57 55 53 51 48 47 46 44 43 43 44 44 44 41 42 41
27 26 26 26 26 23 22 19 26 39 45 48 48 49 49 51 53 54 55 55 56 57 58 58 58 58 58 57 56 55 56 55 54 54 54 52 49 47 46 46 44 44 44 43 44 44 42 38 38
24 28 28 28 26 21 24 19 22 26 40 45 46 48 49 51 52 54 56 56 56 56 58 58 58 58 58 57 56 55 55 55 55 55 54 52 49 47 44 44 44 45 44 44 43 40 40 37 32
27 30 30 29 27 26 24 22 23 24 26 37 45 48 51 51 52 53 55 56 56 57 58 59 59 58 58 57 57 57 56 57 54 53 52 52 50 47 44 44 45 45 44 44 41 40 39 36 34
31 31 30 30 28 24 24 22 22 22 25 27 35 44 50 51 51 53 55 56 55 57 58 59 58 57 58 57 57 56 56 55 53 53 52 50 48 47 46 43 44 45 43 41 40 39 38 38 36
29 27 25 26 26 23 27 25 25 26 27 28 30 36 47 50 50 50 53 54 55 55 56 58 57 57 58 57 57 56 55 55 53 52 50 50 48 46 45 44 44 41 39 39 39 39 40 39 39
29 28 28 17 21 21 26 24 21 29 29 33 34 34 35 48 50 49 50 53 53 55 56 57 56 57 57 57 57 56 55 55 54 52 50 50 49 46 45 43 41 39 39 40 41 41 39 39 39
31 28 29 29 30 28 25 24 22 26 29 33 36 35 36 40 47 47 48 51 53 53 55 57 56 56 57 57 58 57 56 55 54 51 51 50 48 43 43 41 39 40 42 43 41 39 37 37 38
30 31 28 28 22 20 20 20 18 23 28 31 32 36 37 40 41 43 46 50 52 54 55 57 57 56 57 57 58 57 56 56 54 52 50 47 44 42 41 41 41 43 44 41 39 37 37 37 36
30 28 28 27 26 21 20 19 28 24 27 32 34 36 39 39 43 43 45 48 52 55 56 56 56 56 57 57 57 57 57 56 53 50 47 44 43 43 40 42 44 44 40 38 38 37 36 36 35
30 30 30 30 24 27 26 23 27 28 26 28 32 34 39 44 43 46 47 51 54 55 56 56 57 57 57 57 57 57 56 53 51 48 45 44 42 43 43 44 43 39 39 38 37 36 34 35 34

GFSSGP_sfc_dewp_060.txt.gz
Dewpoint
53 37 32 28 16 13 11 10 13 15 33 45 50 41 43 50 49 47 61 65 66 66 64 68 70 70 70 70 69 68 68 68 68 68 67 67 67 67 67 68 69 68 68 68 66 63 63 63 64
35 33 33 24 13 8 7 11 11 25 38 51 53 52 49 47 57 59 62 65 67 66 65 64 70 69 69 68 68 68 68 68 68 67 67 67 67 67 68 69 68 69 68 68 64 63 63 64 64
33 28 24 18 13 8 9 12 17 38 46 50 50 53 50 47 56 60 63 66 67 66 66 67 69 69 68 68 67 67 67 67 67 67 67 67 67 66 68 68 68 68 69 67 63 63 63 63 64
27 19 20 13 11 12 8 10 31 36 45 48 50 49 56 61 61 64 65 66 68 67 67 68 68 68 68 68 67 67 67 66 66 66 66 66 66 66 66 66 67 68 68 63 62 62 61 63 63
24 17 11 11 11 7 9 22 36 39 45 46 48 49 54 62 64 65 66 66 66 65 68 68 67 67 67 67 67 67 67 66 66 66 66 66 66 66 65 65 65 65 64 62 61 60 61 62 62
20 19 10 9 9 7 13 35 43 44 46 48 48 50 56 63 63 65 65 65 63 61 62 67 67 66 65 64 64 66 66 66 66 65 65 65 65 65 65 64 64 64 64 64 63 62 61 60 59
21 18 13 11 9 12 21 44 44 45 45 45 48 46 57 61 63 64 63 64 62 61 60 60 59 61 60 62 62 63 65 66 66 65 65 65 65 64 64 64 63 63 62 62 61 61 61 59 57
19 18 15 11 9 18 28 42 46 46 44 49 50 47 52 60 62 61 62 61 60 60 59 59 57 57 57 57 61 64 66 66 66 65 65 64 64 64 64 63 63 63 63 61 59 59 58 57 55
21 14 12 13 14 21 34 37 48 48 47 50 53 52 56 61 60 59 60 61 60 59 58 58 56 56 57 58 62 64 65 65 64 63 63 59 55 55 56 61 63 62 61 60 57 55 54 53 52
20 16 13 15 16 18 22 36 41 45 46 48 54 59 60 60 58 57 58 58 58 58 58 57 57 57 56 57 59 62 62 60 60 58 58 53 56 54 55 59 61 60 59 56 53 51 52 48 38
21 16 17 18 20 20 20 32 36 39 38 45 50 56 58 59 58 57 57 57 57 57 55 56 56 55 56 57 58 58 60 60 60 60 57 58 56 57 55 54 52 52 53 44 44 44 42 43 39
20 19 20 21 20 22 25 32 39 41 44 50 53 57 58 58 57 57 56 57 55 54 54 53 52 54 55 54 54 55 54 57 56 57 58 58 55 57 56 52 52 50 48 48 46 44 45 42 40
23 20 23 26 33 29 37 36 40 44 50 54 56 57 57 57 56 57 57 57 56 51 52 53 60 60 57 56 55 55 56 56 56 57 58 57 56 57 55 53 50 49 48 46 45 43 40 40 39
25 24 26 34 34 37 38 40 41 47 53 55 55 55 56 56 55 55 55 55 54 51 55 57 56 57 55 55 58 57 55 55 57 56 57 59 57 58 55 53 50 48 47 45 43 41 39 37 37
28 25 25 35 36 37 39 37 37 46 53 53 54 54 55 55 55 53 56 54 52 51 52 55 54 57 57 55 57 55 54 54 53 56 61 59 58 58 56 53 50 48 46 46 44 42 40 37 33
24 24 19 33 36 39 38 27 37 48 50 50 53 53 54 55 54 52 54 53 51 50 52 54 53 57 58 56 55 54 54 54 54 57 61 63 59 59 56 53 50 48 46 44 43 42 39 38 36
21 17 17 29 36 35 36 27 40 48 48 46 49 50 52 54 54 53 54 53 51 50 51 53 54 55 59 59 55 56 57 55 55 58 60 63 63 60 57 53 51 49 46 44 43 42 41 39 38
15 18 18 17 29 34 31 27 36 47 47 46 45 47 50 51 52 54 54 54 51 52 53 54 55 57 61 60 59 55 56 55 57 59 60 62 61 60 58 54 51 48 45 45 44 44 42 41 42
24 21 19 20 25 31 28 26 24 43 48 46 44 44 48 50 51 54 55 55 54 53 54 56 57 59 61 59 55 53 54 55 56 58 61 61 60 59 58 53 50 47 46 46 47 45 45 42 44
27 20 19 24 25 27 23 22 23 33 45 46 45 45 45 47 50 53 55 55 56 54 55 56 57 59 59 57 54 52 53 55 55 58 60 60 59 58 56 52 48 47 46 48 47 46 43 43 43
27 24 23 21 25 25 24 19 23 33 42 46 48 47 44 44 47 51 53 55 56 55 56 55 56 58 59 58 55 53 54 56 56 57 60 59 57 55 53 51 48 48 47 46 47 46 45 42 41
24 24 24 24 22 18 24 16 20 24 33 40 43 47 47 45 46 49 52 54 56 56 56 56 56 57 58 59 56 55 51 50 54 57 59 58 56 54 52 49 48 50 46 46 47 45 45 42 38
23 28 27 27 24 25 23 19 19 23 22 30 39 42 46 47 46 48 51 53 55 56 57 58 56 57 58 59 58 56 54 50 54 58 58 57 55 52 48 48 49 49 46 48 47 46 44 38 36
29 29 29 30 27 23 22 20 17 17 20 23 27 37 42 46 48 48 48 53 54 56 58 59 58 57 58 59 60 59 58 56 57 57 57 56 55 52 50 46 48 48 47 47 46 45 41 37 40
30 27 25 26 25 22 25 22 20 22 25 27 29 31 35 43 48 49 48 50 53 56 58 58 58 57 58 60 60 60 60 59 57 56 56 55 53 51 50 48 48 47 47 46 43 40 40 40 41
28 26 25 18 20 20 25 18 17 25 26 30 34 35 35 36 46 48 50 51 52 55 57 59 58 57 57 59 59 60 60 59 57 57 57 56 53 50 51 49 48 47 45 42 42 42 42 41 40
30 27 28 27 32 29 20 20 21 24 24 31 30 32 35 35 41 46 48 50 53 55 57 58 58 57 57 59 60 60 59 58 57 57 57 55 52 52 51 49 48 44 42 43 43 44 42 40 41
31 29 27 28 21 18 18 18 15 19 25 23 25 28 32 38 39 42 45 49 51 53 56 58 59 57 58 58 59 59 58 58 58 57 56 54 53 54 49 47 42 43 44 45 43 42 40 38 39
29 28 28 27 26 23 20 18 22 21 24 30 32 31 34 37 41 42 44 46 49 52 54 56 57 56 56 57 58 58 58 58 58 57 55 53 52 49 47 43 43 44 45 42 41 39 39 38 37
28 27 29 26 23 28 28 21 22 26 27 27 28 31 36 40 42 43 44 46 48 51 53 54 55 55 55 57 57 57 58 57 57 56 53 51 48 45 44 44 45 44 42 40 40 39 39 38 36

GFSSGP_sfc_dewp_066.txt.gz
Dewpoint
54 46 42 33 19 17 12 9 7 8 14 42 38 42 42 33 37 41 58 61 64 61 68 70 71 71 71 71 70 70 69 69 69 69 69 69 69 70 70 70 68 67 66 64 64 64 63 63 62
43 42 33 23 17 14 9 10 12 13 24 40 42 39 34 32 55 56 61 57 59 61 67 69 70 71 71 70 70 69 69 69 69 68 69 69 69 70 70 69 67 66 66 64 64 63 63 62 62
44 32 21 20 18 12 10 12 12 13 18 28 28 40 36 49 58 61 64 64 63 67 66 69 70 70 70 70 69 69 68 68 68 68 69 69 69 70 70 68 66 66 66 64 63 63 62 62 63
31 24 19 14 9 8 8 15 9 13 30 43 41 38 53 61 62 65 66 66 66 67 68 68 69 69 69 69 69 68 68 67 67 68 69 70 70 70 69 67 66 66 65 63 62 61 61 61 62
28 20 15 12 8 8 12 8 20 36 41 46 48 40 52 57 63 65 65 64 64 66 67 65 64 68 69 69 68 68 67 67 68 68 69 69 70 69 68 66 66 65 64 62 61 60 60 60 60
21 18 14 10 9 15 13 16 28 38 39 45 48 47 51 61 62 63 64 65 64 64 62 62 64 64 68 68 67 67 67 67 67 67 68 69 69 68 67 66 65 64 64 63 61 60 59 59 58
20 16 12 10 10 10 25 29 30 34 33 44 47 46 56 59 61 61 62 63 64 64 62 60 60 61 62 63 64 64 66 66 66 66 66 66 66 65 65 65 65 64 63 62 60 59 59 57 56
17 14 10 10 8 17 29 27 33 29 27 35 46 47 52 59 60 60 60 60 61 63 62 60 59 59 59 60 62 63 65 65 66 65 65 64 64 65 65 64 64 64 62 61 59 58 57 55 54
17 14 10 12 16 26 32 30 32 36 30 41 51 57 59 59 59 58 57 58 58 58 60 60 58 57 57 57 59 61 65 65 64 64 63 61 59 59 59 62 63 62 62 60 58 57 56 53 52
14 13 12 16 13 14 17 21 22 35 39 42 45 54 59 58 57 57 57 56 56 57 58 58 57 58 57 58 55 57 61 62 61 59 59 57 57 59 60 62 62 61 60 59 58 57 55 52 41
16 13 14 13 15 17 17 18 24 24 40 45 45 51 58 59 57 57 57 56 55 56 57 57 58 58 57 57 54 58 59 60 60 60 59 59 59 59 59 58 56 56 55 47 50 51 47 46 44
15 15 12 12 14 16 18 19 21 35 44 45 46 57 57 57 57 56 56 56 55 55 57 57 57 58 58 59 59 60 60 58 57 60 60 59 59 58 57 55 55 53 52 48 50 52 48 45 43
16 15 13 15 14 16 21 25 24 44 49 53 56 56 57 57 57 57 56 56 55 55 56 56 58 58 58 58 59 60 59 57 59 60 60 59 58 58 57 57 54 53 54 53 53 49 46 44 42
19 19 18 17 16 18 21 25 40 46 50 53 54 55 55 56 56 56 56 55 55 55 55 57 57 59 57 59 59 59 58 59 58 60 61 62 59 60 57 58 55 55 54 54 52 50 46 45 42
21 19 18 17 18 19 21 23 38 46 51 52 53 53 53 54 56 55 55 55 54 55 55 56 57 58 57 55 53 53 53 56 58 59 61 61 61 60 59 58 57 55 55 53 53 49 48 44 43
20 21 16 17 20 24 23 25 40 43 45 48 50 51 52 53 54 56 54 53 53 54 55 56 55 54 56 54 50 54 53 55 57 59 60 61 60 60 59 58 57 56 55 53 50 49 46 46 43
19 14 14 16 24 25 28 33 43 43 43 46 46 48 48 50 53 55 54 53 53 53 54 52 53 55 57 57 55 57 57 57 56 58 59 60 60 60 59 59 57 56 55 53 52 50 50 45 42
19 17 18 15 24 25 21 39 42 43 45 45 43 47 46 48 52 53 53 53 52 52 50 49 52 55 56 57 59 57 57 56 56 56 57 59 58 60 60 58 58 55 54 53 51 51 49 47 44
21 18 18 21 23 24 22 24 38 42 40 42 41 44 47 45 48 54 53 51 50 52 53 52 52 56 56 54 54 53 55 54 54 53 56 61 61 62 61 59 58 56 54 52 52 52 50 46 46
22 20 18 19 23 21 18 21 33 37 32 34 38 41 44 45 47 48 49 50 51 52 54 53 54 55 54 54 53 53 53 54 53 55 56 60 61 62 61 61 58 55 54 54 53 51 49 48 48
21 18 22 25 22 21 22 19 23 24 31 32 37 38 44 44 45 48 50 50 52 52 53 52 52 53 54 54 53 52 52 53 52 53 56 60 62 61 61 60 59 56 55 54 54 52 51 46 49
21 20 23 20 21 17 26 21 27 26 24 32 34 39 39 43 44 47 49 50 51 52 53 52 52 51 53 56 54 53 49 47 51 53 54 59 61 61 60 59 59 57 55 53 53 52 50 49 46
23 27 27 23 20 23 23 26 25 25 22 24 33 39 41 43 45 46 47 50 50 52 53 54 54 52 53 54 55 55 53 52 51 54 54 59 60 60 59 59 58 55 55 54 54 51 50 50 48
24 24 25 25 23 23 21 23 24 23 27 23 32 39 42 42 43 46 49 50 52 53 54 54 55 53 54 55 56 57 55 54 52 54 55 59 59 59 59 57 56 55 54 54 55 53 52 51 45
23 24 24 26 26 25 24 23 25 30 28 26 23 37 41 42 41 42 46 50 52 53 55 55 54 53 54 57 57 57 59 57 56 54 55 59 59 58 57 57 55 54 54 53 53 53 50 46 43
25 24 26 25 30 31 32 21 17 26 24 22 23 31 34 39 43 42 42 49 51 53 55 56 55 54 54 56 58 59 58 59 58 58 59 58 58 59 58 56 55 54 53 53 52 49 46 46 46
26 27 26 34 35 34 30 25 20 21 18 20 23 28 32 34 38 43 44 45 50 52 55 57 56 55 55 56 57 58 60 59 59 60 60 59 59 59 58 56 54 52 52 52 48 46 44 45 43
23 27 26 29 29 23 16 17 19 21 21 22 21 27 31 37 39 39 43 47 47 52 54 57 57 56 56 57 58 59 60 61 61 61 60 60 59 56 54 52 52 51 48 46 45 46 44 43 42
22 26 31 26 26 29 28 24 34 26 23 23 27 27 32 36 39 41 43 47 48 49 52 56 56 55 56 57 58 59 61 61 61 60 59 59 57 57 54 53 50 47 45 45 44 43 41 41 41
22 25 30 30 27 31 34 25 33 32 25 27 26 28 33 34 36 41 44 45 47 50 51 55 57 57 57 58 60 61 61 60 59 58 57 57 55 54 51 48 46 45 45 45 43 41 41 40 40

GFSSGP_sfc_dewp_069.txt.gz
Dewpoint
54 51 46 38 26 20 16 15 16 12 24 42 42 39 38 38 44 47 62 60 63 61 63 66 68 71 71 71 70 70 70 70 70 69 69 70 71 70 69 68 67 67 65 64 63 61 61 62 63
47 44 41 34 19 17 16 16 13 17 37 43 39 39 35 53 58 58 61 62 63 63 63 63 64 68 71 70 70 69 70 70 69 69 70 71 70 69 68 67 66 67 65 63 62 61 61 62 62
48 42 31 21 20 18 16 15 14 35 44 42 41 43 54 53 60 63 65 62 60 61 60 59 66 69 71 70 69 69 69 69 69 69 70 70 70 68 67 67 66 66 64 62 61 60 61 61 62
34 30 24 15 13 14 15 10 34 36 41 44 44 46 55 56 60 64 64 63 67 67 67 67 68 69 70 70 69 69 68 68 68 68 69 70 70 68 67 66 66 66 64 62 60 59 59 61 61
37 28 19 16 14 14 13 16 32 35 40 46 46 45 49 58 62 63 64 65 65 65 64 65 65 67 65 69 69 68 68 68 68 68 69 69 69 67 67 66 65 65 63 61 60 59 58 60 60
29 22 17 15 14 13 22 29 34 39 39 47 43 47 52 59 59 61 64 63 63 63 63 64 65 63 63 63 68 67 67 68 68 69 69 69 68 67 66 65 65 64 63 62 60 59 58 58 58
22 21 16 13 11 11 28 28 36 39 41 46 49 46 55 57 60 61 62 63 63 61 61 62 62 62 63 62 65 65 66 67 68 68 68 68 66 66 65 65 65 64 63 61 59 58 59 57 56
23 18 13 11 9 17 29 28 33 30 42 49 52 51 53 57 59 60 60 60 61 62 60 59 60 60 60 61 62 62 62 65 66 66 66 65 65 65 64 64 64 63 62 60 58 58 56 54 53
23 14 12 13 13 22 32 30 35 36 39 44 55 55 56 59 58 58 58 58 58 60 59 58 58 59 59 59 60 61 62 65 64 64 64 63 62 61 61 63 63 63 62 60 58 57 54 52 50
19 13 13 14 14 17 24 29 27 35 40 42 54 58 58 59 58 56 56 55 56 57 58 57 57 57 57 58 59 60 63 63 61 60 58 58 59 60 60 62 62 62 61 60 58 56 54 47 39
20 13 14 14 13 17 17 17 43 36 42 49 46 56 57 57 57 56 56 56 56 57 57 58 57 58 56 54 56 58 61 61 59 58 56 59 59 59 58 58 57 56 56 52 52 49 45 45 42
18 17 16 13 14 15 15 25 47 47 47 51 50 57 59 57 56 56 56 55 55 56 56 57 58 58 56 56 55 59 61 59 59 58 59 58 57 55 55 54 54 50 49 45 47 48 44 41 40
18 19 16 16 14 16 16 40 45 47 47 51 54 57 57 57 56 56 56 56 56 55 56 58 58 57 58 59 60 60 60 57 58 58 59 58 56 54 54 54 53 51 49 46 50 45 44 41 39
22 22 20 19 18 18 18 37 42 47 47 47 54 55 56 56 56 56 55 55 55 56 56 58 58 58 58 58 58 59 60 57 59 58 59 58 57 54 55 55 53 52 52 52 48 46 44 42 40
26 24 22 21 19 17 20 29 40 47 46 48 54 53 56 56 56 55 55 55 55 55 56 57 58 57 56 56 57 58 58 58 58 59 59 58 58 55 56 55 54 54 53 52 49 48 45 43 40
26 24 20 20 20 19 24 28 41 49 50 52 52 53 53 55 55 55 55 54 54 55 55 56 57 55 57 57 56 55 55 56 57 58 59 59 59 58 57 55 55 54 54 52 49 47 45 43 41
25 21 19 18 19 23 25 35 40 43 46 46 51 52 52 54 55 54 54 54 54 54 55 56 56 56 57 55 53 53 54 55 56 57 57 58 59 58 58 56 56 55 53 51 49 47 46 45 42
23 23 18 18 23 26 30 34 40 41 42 46 51 50 51 54 54 53 53 53 53 54 54 54 55 54 55 54 52 55 54 55 55 57 58 58 58 59 58 58 55 53 52 51 51 48 50 46 42
24 22 20 20 23 26 27 33 38 40 44 48 49 51 51 51 54 54 53 52 53 53 52 51 53 52 54 53 52 54 52 53 54 55 57 58 58 59 58 57 56 54 52 51 49 49 49 46 45
25 22 21 24 25 25 20 20 39 41 42 43 47 48 49 51 52 53 52 52 51 49 48 49 50 50 54 54 54 53 53 53 53 53 55 58 58 59 59 57 57 54 53 53 50 49 49 47 46
23 22 22 24 26 25 22 21 36 36 39 42 44 46 46 51 51 51 49 50 50 46 47 47 49 51 54 52 53 52 54 53 52 52 53 59 60 60 60 59 58 55 54 53 51 50 49 47 48
21 24 23 27 25 20 23 20 26 28 33 35 40 45 45 49 51 51 48 48 49 50 50 50 50 53 53 53 52 51 50 51 51 51 53 59 60 61 60 60 59 56 55 54 53 54 53 50 48
24 30 29 29 25 23 23 27 31 31 27 31 35 43 44 46 47 47 48 48 49 50 52 51 51 51 52 53 52 51 50 50 51 52 52 59 60 60 60 59 58 56 56 54 54 54 52 53 51
25 29 29 28 26 23 24 31 31 28 25 29 34 40 42 44 47 48 48 49 50 50 51 51 51 51 51 52 53 53 51 50 49 51 52 57 60 60 59 59 58 56 54 54 53 54 53 51 49
25 24 24 25 25 23 31 30 28 31 30 30 31 39 38 41 45 46 48 47 48 50 50 50 51 50 50 51 52 54 53 53 49 51 52 57 58 58 58 58 55 55 53 53 53 53 51 48 46
25 25 27 23 26 29 33 27 23 29 29 27 30 38 41 39 42 45 47 49 48 49 50 50 50 52 52 52 52 54 54 54 55 52 54 57 58 58 57 55 54 53 53 52 52 50 47 46 45
28 25 29 35 35 34 35 30 25 27 25 23 24 32 39 41 40 43 47 48 50 50 50 52 51 51 52 53 56 55 54 57 54 54 57 58 58 57 56 56 53 52 51 51 49 47 46 46 45
25 29 29 35 30 30 29 29 24 31 29 23 21 25 31 35 39 41 42 49 50 51 53 53 53 52 52 53 54 57 56 57 58 57 57 58 58 57 55 55 53 52 50 48 47 45 45 44 43
25 23 30 33 33 27 25 27 33 31 31 22 27 27 32 34 35 38 42 46 50 51 52 54 54 54 54 54 55 55 58 59 59 59 59 59 58 56 54 53 52 49 47 46 45 44 44 42 42
23 25 32 31 28 32 30 28 30 31 27 28 26 27 30 36 37 39 42 45 50 50 51 54 55 54 54 56 57 58 59 59 59 59 59 57 56 54 53 51 49 47 46 45 44 42 42 41 41

GFSSGP_sfc_dewp_072.txt.gz
Dewpoint
54 51 45 37 22 19 17 16 18 17 18 40 40 40 56 57 53 47 61 61 63 65 69 70 70 71 71 69 70 70 70 69 70 70 71 70 70 69 68 67 67 66 65 62 64 64 64 64 62
47 45 41 32 20 17 16 18 17 29 39 42 40 49 53 55 59 58 62 64 62 64 64 67 66 67 66 70 69 70 70 69 70 70 71 70 69 68 67 67 66 65 64 62 63 64 63 61 61
44 42 32 26 20 17 17 18 17 41 43 41 39 54 52 49 59 62 65 63 63 63 63 64 66 64 68 69 69 69 69 69 70 70 70 69 69 68 67 66 65 65 63 61 63 62 61 60 62
33 30 26 17 14 16 18 17 18 40 43 44 44 47 54 55 57 62 64 64 64 66 64 62 64 65 66 68 69 69 69 69 69 70 69 69 68 68 67 66 65 64 63 60 61 60 59 60 62
36 27 20 19 16 16 17 16 19 35 42 45 44 46 48 56 62 61 63 64 65 65 64 66 64 64 64 64 65 69 68 68 69 69 68 68 68 67 66 66 64 64 62 59 58 58 60 60 62
32 24 19 17 18 18 16 28 37 38 44 46 45 48 51 57 57 60 63 62 62 62 64 65 64 65 63 62 64 68 67 68 69 69 67 67 67 67 66 65 64 64 62 60 58 59 60 59 60
29 22 19 18 17 13 24 30 39 39 43 47 49 45 53 55 59 60 61 62 61 61 62 62 63 63 62 62 64 66 65 67 68 67 66 66 66 65 65 65 64 63 61 60 59 58 58 58 57
26 22 19 18 16 13 17 29 33 38 46 52 55 51 48 56 58 59 60 60 59 59 60 60 60 60 60 60 62 62 62 64 66 66 66 65 65 65 64 64 63 62 61 59 58 57 57 56 57
22 20 18 18 13 13 24 28 38 43 43 51 56 56 57 57 58 58 58 58 59 58 58 60 60 60 59 59 60 60 62 62 65 65 65 63 62 61 60 62 62 62 61 59 57 57 55 53 55
21 18 18 18 14 17 21 30 33 44 48 48 53 57 58 57 57 57 56 56 57 56 57 58 58 58 58 58 58 58 60 62 62 62 61 61 60 60 60 62 62 61 60 58 56 56 54 48 40
22 20 21 20 17 14 16 42 45 44 46 50 48 54 57 57 57 56 56 56 56 57 57 57 58 58 56 56 55 58 61 61 60 59 60 60 60 60 59 58 58 57 56 50 48 45 46 41 40
18 19 19 18 18 13 15 45 45 45 47 51 52 55 56 57 56 56 55 55 56 57 57 57 58 57 57 55 55 58 60 60 59 59 59 58 57 56 55 54 52 49 48 46 45 47 42 40 39
18 18 20 19 19 16 25 41 45 45 50 53 56 57 57 56 56 56 55 55 56 56 57 57 57 55 56 56 57 57 60 58 57 59 58 57 55 54 53 51 49 48 45 48 48 44 41 39 38
21 24 25 24 20 20 25 42 42 44 48 52 56 56 56 56 56 56 55 55 55 56 57 58 57 56 57 57 59 60 58 58 57 59 58 57 54 53 52 50 50 49 46 50 46 44 42 40 39
27 25 25 23 22 21 31 32 40 45 48 53 53 55 55 56 56 55 55 55 55 56 57 57 58 58 58 58 58 58 56 58 57 58 58 57 55 54 53 51 52 51 50 51 47 45 43 41 39
25 26 21 21 22 21 20 19 39 46 46 52 53 53 55 56 55 55 55 55 55 56 57 57 58 57 57 56 57 57 56 58 57 58 58 58 56 55 55 52 53 53 52 51 49 47 45 42 40
26 21 22 23 24 22 22 26 39 48 51 52 52 53 53 55 55 55 55 55 55 55 56 57 56 55 55 54 55 56 55 56 57 58 58 58 57 57 56 54 54 54 53 51 49 47 45 43 41
23 23 24 22 22 21 29 31 39 44 46 50 52 52 52 54 54 55 54 54 55 55 55 57 55 55 55 55 54 55 54 55 56 57 57 58 58 58 56 55 55 54 52 50 48 46 48 45 43
25 24 23 23 23 26 27 31 38 41 44 47 49 50 51 54 55 53 53 53 54 54 55 55 54 54 55 52 52 52 52 53 54 56 56 58 58 58 57 56 55 53 51 50 49 48 47 48 44
25 24 24 24 25 24 21 20 36 42 42 45 49 50 50 52 54 53 53 52 53 53 54 53 54 54 54 52 50 52 52 53 53 54 56 57 57 58 57 57 55 53 51 51 50 49 48 47 46
24 24 24 22 24 26 23 23 36 38 41 43 46 46 49 51 53 53 52 51 52 53 52 50 52 52 52 54 51 53 53 52 52 52 54 57 57 57 58 57 56 54 53 51 50 49 48 47 48
23 25 24 23 26 22 22 19 31 34 37 40 43 45 47 51 52 53 52 51 51 50 50 49 49 48 51 54 50 51 49 50 50 52 52 55 58 58 58 58 57 55 54 52 52 51 50 50 50
26 28 27 27 26 24 24 24 26 30 30 34 40 44 47 51 51 52 51 51 50 48 47 47 48 48 50 53 51 52 51 53 53 52 52 54 58 58 58 59 58 56 55 54 54 53 51 52 51
28 27 29 28 26 23 24 27 26 29 29 31 40 44 46 50 51 51 49 49 46 45 46 47 47 48 51 53 52 52 51 51 51 52 51 54 58 58 59 59 59 58 56 54 55 53 53 52 51
26 24 23 23 24 23 31 29 27 27 31 30 39 43 46 50 51 50 48 47 46 46 46 48 49 49 51 53 53 52 51 52 50 50 51 52 56 58 58 59 58 56 56 54 53 53 53 51 50
25 25 26 20 23 25 34 27 27 29 30 31 34 43 45 48 49 50 49 48 48 48 49 50 50 50 51 52 52 53 53 52 53 50 51 53 54 57 59 59 57 55 55 53 52 52 49 48 48
25 25 29 33 35 30 31 34 30 28 27 26 30 39 42 45 47 47 48 48 48 49 50 51 51 51 51 51 51 51 53 54 53 53 51 54 56 57 56 57 56 55 53 52 51 49 48 48 46
26 30 31 34 27 26 30 30 28 28 27 24 30 39 39 42 46 47 48 48 49 50 50 51 51 50 51 51 51 51 51 55 56 55 55 56 56 56 56 55 53 53 53 51 50 48 46 46 45
26 26 31 34 34 28 25 26 31 31 27 24 24 31 35 40 41 44 47 49 49 49 49 50 50 50 51 52 52 52 53 54 57 56 57 57 57 57 57 56 54 53 52 50 48 46 46 45 44
26 25 28 30 32 34 28 26 30 31 27 27 28 31 34 36 38 41 44 47 49 49 50 49 51 51 53 58 59 58 57 58 57 58 58 58 57 57 55 55 53 51 50 48 46 45 44 43 42

GFSSGP_sfc_dewp_075.txt.gz
Dewpoint
54 52 44 34 19 20 20 17 18 17 22 39 40 51 52 55 49 43 60 62 64 67 69 70 70 71 70 70 70 70 71 71 71 70 70 69 69 69 68 67 67 67 67 65 65 65 65 64 64
47 45 38 28 19 16 15 18 16 21 38 42 46 54 52 54 58 57 60 62 64 65 65 67 67 68 70 70 70 70 70 71 70 70 69 69 69 68 67 66 66 67 67 65 65 64 64 64 64
42 40 30 25 19 17 16 18 17 36 41 41 41 54 52 52 59 62 64 65 64 63 64 66 65 65 66 67 66 67 69 69 70 70 69 69 68 68 67 65 65 66 66 64 63 61 63 64 63
33 29 24 19 15 17 19 18 18 33 42 43 44 45 53 55 58 61 63 64 61 63 63 65 66 65 66 66 67 66 67 68 69 69 69 68 68 67 66 65 64 66 66 62 60 60 63 63 62
35 27 20 19 17 17 17 17 18 23 39 43 43 41 48 56 61 61 63 64 65 64 65 63 65 65 64 65 65 67 67 68 69 69 68 68 68 67 66 64 64 64 64 60 60 63 64 62 61
29 23 19 18 17 19 18 18 35 31 40 44 47 48 50 58 56 61 62 61 62 63 65 63 64 64 63 62 63 64 66 66 68 68 67 67 67 66 65 64 63 63 62 61 61 63 63 61 60
26 23 19 18 19 19 17 24 35 40 44 45 49 43 52 56 58 61 61 61 60 62 63 63 64 63 64 64 64 64 65 66 67 67 66 66 66 65 64 64 63 62 60 60 59 61 62 61 59
27 25 26 20 20 17 18 27 40 43 44 51 55 49 46 55 58 60 60 59 59 60 60 61 62 61 61 61 65 65 65 65 65 65 66 65 65 64 64 63 62 60 59 58 58 58 60 61 60
23 20 19 19 17 16 17 28 40 46 45 53 55 55 56 57 58 59 58 58 58 58 59 60 60 60 60 60 63 63 64 65 64 64 65 63 62 62 60 61 61 60 58 58 57 57 60 60 59
22 20 19 20 18 19 20 32 37 43 45 46 53 57 56 57 57 56 56 56 56 57 58 59 59 59 59 59 58 60 62 63 62 62 62 61 60 60 60 61 60 59 57 57 57 55 55 55 54
22 20 21 21 21 21 17 34 44 43 43 45 48 52 56 56 56 55 56 56 56 57 57 58 58 58 57 57 57 58 61 61 61 61 60 59 60 60 59 58 55 52 51 45 46 43 39 40 45
19 20 19 19 19 19 16 36 41 43 39 51 49 55 56 55 55 55 55 55 56 56 56 57 58 57 56 56 56 58 60 60 60 60 59 59 58 57 56 54 52 48 46 45 45 43 41 39 43
20 19 19 19 21 24 39 40 40 43 49 53 55 55 55 55 56 56 55 56 56 56 56 57 57 56 55 56 57 58 60 60 60 60 58 57 55 54 53 51 48 46 46 47 44 41 40 39 38
22 20 24 26 25 24 34 41 43 40 50 49 55 55 55 54 55 55 55 55 56 56 57 57 56 56 56 56 57 57 60 58 60 59 57 56 54 53 51 49 47 45 47 48 44 41 40 39 38
25 24 24 24 23 22 35 33 40 40 47 48 55 55 55 55 55 54 55 55 55 56 57 57 55 56 56 55 56 58 57 57 57 57 57 55 54 52 50 49 48 47 48 47 44 42 41 39 38
23 25 21 22 22 24 21 21 26 44 46 49 53 54 55 56 54 54 55 55 55 56 57 57 57 56 58 56 57 58 58 57 57 57 56 55 54 53 51 50 50 51 50 48 46 44 42 40 38
25 16 21 21 24 24 21 21 30 45 44 48 53 53 53 55 54 55 55 55 55 56 57 57 57 57 58 58 57 58 57 57 58 57 56 54 54 55 52 51 52 53 52 50 48 46 44 41 40
19 22 24 22 23 24 23 22 35 45 48 49 51 52 53 54 53 55 55 55 55 56 57 57 57 57 57 56 56 56 55 56 58 57 57 57 54 55 55 53 53 53 52 51 49 46 45 43 42
24 24 23 23 24 25 24 26 34 40 46 46 50 51 52 53 54 55 55 54 54 55 56 57 56 56 55 55 54 53 53 55 56 57 57 57 56 56 55 54 54 53 51 51 49 47 46 46 43
25 24 23 24 25 25 23 22 31 39 41 44 46 49 51 53 53 53 52 53 54 54 55 56 54 55 54 53 53 53 53 54 54 56 56 57 57 57 56 55 54 53 51 50 48 47 48 47 44
25 24 23 23 24 25 24 22 33 37 41 42 44 49 50 53 52 53 52 52 53 53 54 54 54 54 54 51 50 52 52 52 53 53 55 56 57 57 56 56 55 53 52 50 49 48 48 46 47
22 24 25 25 24 21 23 20 24 34 38 41 42 45 48 52 53 52 52 51 52 53 53 53 53 53 54 53 49 50 50 49 51 52 53 55 57 56 57 56 55 54 52 51 50 50 49 49 48
24 27 27 26 25 24 24 22 23 31 33 35 39 41 45 51 53 52 51 52 51 53 53 51 51 52 53 52 51 50 49 49 51 51 52 52 56 57 57 57 55 55 54 53 53 52 50 51 51
29 28 28 29 26 22 24 24 24 26 29 31 33 39 43 49 52 52 51 51 51 51 51 50 49 49 50 51 53 50 51 52 52 51 51 52 53 56 57 57 57 56 55 54 53 53 52 51 51
28 24 22 21 23 22 27 28 27 27 29 30 32 39 42 47 51 52 50 50 51 49 49 48 48 47 48 50 52 52 52 52 51 52 52 51 52 55 56 57 57 57 57 56 54 55 53 51 50
26 26 25 20 21 22 32 28 27 31 31 32 33 38 41 46 51 51 51 49 49 47 46 47 46 46 47 49 51 53 52 52 52 51 52 53 52 53 56 58 58 58 57 56 55 54 53 51 51
24 25 26 30 33 29 28 30 31 30 27 30 32 40 44 46 50 51 51 49 48 45 45 46 46 46 46 49 51 52 53 52 51 52 51 52 53 53 56 58 58 57 54 55 54 53 51 50 49
25 30 28 31 26 25 26 29 28 29 27 25 31 38 43 46 48 50 50 50 48 46 45 46 47 47 48 49 51 52 53 54 54 54 53 52 53 55 56 55 54 54 54 52 52 51 50 49 48
26 27 32 32 30 24 24 25 32 32 30 25 29 37 42 45 46 48 49 50 49 49 49 48 48 49 50 50 51 52 52 52 55 55 54 55 56 56 56 56 55 54 52 51 51 50 48 47 46
25 26 33 28 30 31 28 28 31 31 31 26 24 32 40 43 45 47 48 48 49 49 49 49 49 50 54 55 55 54 54 53 54 56 56 57 57 57 57 57 57 54 52 51 50 48 48 46 46

GFSSGP_sfc_dewp_078.txt.gz
Dewpoint
54 46 42 30 16 19 19 16 18 17 26 37 47 46 48 51 45 37 60 62 64 69 70 69 69 70 70 69 70 70 71 71 71 70 70 70 70 69 68 68 68 67 67 65 65 64 64 64 64
46 44 35 26 16 14 13 18 17 18 34 42 46 53 52 51 58 57 59 63 64 67 68 67 69 68 68 67 68 68 70 70 70 70 70 70 69 68 68 68 67 67 67 64 64 65 63 63 63
42 38 27 22 19 15 15 18 18 23 36 40 39 53 52 50 59 61 63 64 63 65 66 66 67 66 66 66 66 67 69 69 70 70 70 69 69 68 68 67 67 67 67 66 66 65 64 62 63
32 29 24 19 18 17 18 18 20 19 31 42 43 40 52 55 58 61 62 63 64 64 64 66 65 65 65 65 65 65 67 68 69 69 69 69 68 67 67 67 66 67 66 63 64 65 63 62 62
32 25 20 20 17 17 18 18 19 19 35 42 42 37 47 55 60 59 62 62 64 64 64 65 65 64 64 65 64 65 65 67 67 68 68 68 67 66 66 66 66 65 63 62 64 63 62 61 61
28 24 19 16 17 18 20 20 22 28 37 44 45 46 47 57 56 60 61 61 63 63 64 64 65 65 65 66 67 66 65 66 67 68 67 67 66 65 65 66 65 63 63 64 65 63 61 60 60
24 21 19 20 18 20 20 20 29 37 42 43 48 43 50 56 58 61 61 61 61 62 64 63 64 64 64 64 65 66 66 66 66 67 67 66 65 64 65 64 63 62 64 65 64 62 61 60 60
27 25 25 20 20 19 19 25 40 41 40 50 53 47 45 54 58 60 60 59 60 60 61 63 63 61 60 63 64 64 65 65 65 66 66 65 65 64 63 62 61 61 63 64 63 61 61 60 60
24 21 20 19 18 17 17 21 40 45 47 50 54 53 55 56 59 58 58 58 58 59 60 61 60 60 60 60 64 64 65 65 65 64 64 63 62 61 59 59 60 59 60 62 63 61 60 59 59
23 21 20 21 20 20 22 22 24 41 42 43 51 55 56 57 58 57 56 56 57 57 59 59 59 59 60 59 62 64 63 63 63 62 62 62 60 58 59 58 59 59 59 60 62 62 60 57 55
21 20 21 21 20 21 19 20 37 40 39 42 44 52 55 56 56 56 56 56 56 57 58 59 58 59 58 57 60 62 61 62 62 61 61 59 59 59 58 55 53 53 54 53 56 57 51 53 52
22 21 21 20 20 20 19 29 39 41 36 49 47 54 55 55 55 56 56 56 56 56 57 58 58 58 57 57 59 61 61 60 60 61 59 59 58 56 56 52 49 46 46 44 43 44 45 48 49
20 20 20 20 20 23 29 31 37 42 43 52 54 55 54 55 55 56 55 56 56 56 57 57 57 56 56 56 58 60 61 60 60 60 58 57 55 54 52 49 46 45 46 43 42 40 43 46 47
24 20 22 25 25 25 27 34 43 38 51 53 54 53 54 55 55 55 55 55 56 56 56 57 56 56 56 57 58 59 60 60 61 59 57 56 54 52 50 46 45 46 47 44 41 40 40 43 43
26 24 23 23 22 23 29 30 40 40 50 48 53 53 52 55 55 54 55 54 55 56 57 56 56 56 56 57 57 58 59 60 60 58 56 55 53 51 48 47 46 47 48 44 42 41 40 39 39
24 24 19 19 22 23 24 22 26 35 46 46 52 52 53 53 54 53 53 54 56 56 57 56 56 56 56 55 56 58 58 59 59 58 56 54 53 51 48 46 47 49 49 46 44 42 41 40 38
24 19 18 18 23 24 21 22 25 44 45 46 52 53 53 52 54 53 53 54 55 56 57 57 57 56 57 57 58 59 59 58 58 58 56 54 54 52 49 48 49 50 50 48 45 45 43 40 39
21 21 24 21 21 24 23 23 25 40 43 44 50 51 52 53 53 54 53 55 55 56 57 57 57 57 58 58 58 58 58 59 58 57 56 54 54 54 51 51 51 52 51 49 47 46 46 43 41
22 22 23 23 24 23 23 24 24 33 45 45 49 51 51 53 54 54 55 55 55 56 57 57 56 57 57 57 56 57 56 57 58 57 56 55 54 54 53 53 52 52 51 50 48 47 46 45 43
24 23 22 23 23 23 23 23 24 36 40 45 46 50 51 52 54 54 54 54 54 55 56 56 56 56 56 55 57 57 54 56 57 57 56 55 55 54 54 53 52 53 51 51 49 47 47 46 44
26 24 24 22 24 25 24 23 23 31 39 41 43 48 51 52 53 53 53 53 54 54 55 55 55 55 55 55 56 54 55 55 54 55 56 56 56 55 55 55 54 53 52 51 49 48 47 46 46
23 26 25 24 24 21 26 20 22 24 33 39 40 44 49 52 53 52 52 51 51 53 53 55 54 54 54 54 54 53 52 52 54 53 54 55 56 56 56 55 55 54 53 51 50 49 48 48 47
25 26 25 25 24 24 23 22 23 29 28 31 35 41 46 51 53 53 52 52 52 52 54 53 54 54 54 52 51 51 51 51 52 52 53 54 55 56 56 56 55 54 53 52 51 50 49 50 49
30 27 27 28 26 23 24 24 23 24 27 29 33 36 42 49 52 53 52 52 52 52 53 52 53 53 54 53 51 50 50 50 50 51 52 52 53 55 56 56 56 55 54 53 52 51 50 50 49
27 25 23 22 24 23 25 25 24 26 27 29 30 31 37 46 52 52 51 51 51 51 51 51 51 52 52 53 52 51 50 51 50 50 50 51 52 52 54 55 55 55 55 54 54 52 52 51 51
27 26 24 20 21 22 29 25 26 31 32 32 31 31 39 47 51 51 51 51 51 51 51 51 50 50 50 51 51 52 51 51 51 51 51 51 51 52 54 55 56 56 56 55 55 54 54 54 52
25 26 27 28 31 27 27 27 28 28 29 28 29 32 38 46 50 51 51 50 50 50 50 50 50 49 49 49 50 50 53 52 51 52 52 52 52 53 53 54 56 55 55 55 54 55 54 53 54
25 29 27 29 26 24 25 27 24 26 25 27 27 34 39 44 49 51 51 50 50 49 49 49 49 48 48 47 49 49 51 52 52 52 52 52 53 53 54 54 55 54 54 54 54 55 54 52 52
25 23 29 30 28 22 22 24 31 29 31 32 28 30 37 44 48 50 51 51 49 48 47 48 48 48 47 47 47 50 52 53 54 54 53 53 53 53 54 55 56 55 55 54 54 54 51 51 50
23 25 28 26 27 29 26 22 28 31 32 31 27 26 37 43 46 49 51 51 49 48 45 46 47 47 50 51 51 52 52 53 53 54 53 54 54 54 55 56 56 55 55 53 53 51 50 49 48

GFSSGP_sfc_dewp_081.txt.gz
Dewpoint
54 43 41 31 19 21 17 16 18 18 21 30 47 44 45 51 43 37 62 64 65 69 70 70 70 71 71 71 71 71 71 71 71 70 70 70 70 70 70 69 68 68 67 65 65 64 65 64 64
46 42 35 27 17 13 13 18 18 19 25 39 54 52 50 46 57 57 61 63 64 65 69 70 70 70 70 70 71 71 72 71 71 71 71 70 70 69 69 68 67 67 67 65 64 64 64 64 64
41 35 31 24 20 13 14 18 19 19 23 30 38 51 50 50 58 60 63 63 64 65 67 69 69 69 69 69 68 69 70 69 70 70 70 70 69 69 69 68 67 67 66 64 63 64 63 63 64
33 30 25 21 16 18 18 19 20 19 31 41 40 38 51 54 59 61 62 63 63 65 66 67 67 68 68 68 67 67 67 68 69 69 70 69 69 69 68 67 66 67 66 66 63 64 63 63 63
31 27 23 21 19 19 20 19 20 20 26 40 42 36 44 53 59 59 61 62 63 65 65 66 66 67 66 65 67 67 66 68 67 69 69 68 68 68 67 67 67 67 67 66 64 63 62 62 62
30 26 20 14 16 19 20 22 20 29 32 42 42 42 45 58 56 59 61 60 63 64 65 65 65 64 65 67 65 65 67 66 67 67 68 68 67 67 67 67 65 65 66 66 64 62 61 61 60
29 25 18 18 18 20 21 21 25 28 36 38 46 40 47 54 58 60 60 61 62 63 65 66 66 65 66 65 65 65 65 66 66 67 67 66 66 66 66 65 64 64 66 65 63 62 61 61 60
27 25 22 20 19 18 20 21 36 37 29 50 48 42 44 53 57 60 60 60 61 61 64 64 64 63 63 65 64 65 65 65 66 66 65 65 65 66 64 63 64 65 65 64 63 62 61 61 60
25 24 21 21 21 18 19 20 31 45 43 47 52 53 54 57 58 59 58 59 60 60 61 63 62 61 62 63 64 65 66 65 65 66 65 63 63 63 61 61 64 65 64 63 62 61 61 60 60
24 24 22 22 21 21 22 20 20 34 40 42 50 55 55 57 57 57 57 58 58 59 59 60 61 61 61 62 64 65 64 64 64 66 63 62 61 60 58 61 63 64 63 62 62 61 60 57 54
24 22 23 21 22 21 21 20 26 35 30 37 43 51 54 55 57 56 56 57 58 58 59 59 60 60 60 61 63 64 65 64 64 63 62 61 59 59 58 57 58 61 62 58 58 57 53 54 52
23 23 22 22 22 22 20 24 31 37 29 46 43 52 54 55 55 56 56 57 57 57 58 59 59 58 59 61 61 62 64 62 62 62 60 59 58 56 56 53 54 55 58 59 57 54 55 54 52
24 23 22 22 21 20 23 24 26 36 38 50 53 53 54 54 55 56 56 56 57 57 57 58 58 57 58 58 60 61 61 61 61 61 60 57 55 54 52 51 48 49 51 54 53 52 52 52 51
26 22 21 24 25 25 25 28 40 29 43 51 53 53 53 54 54 55 55 55 56 57 57 57 57 57 57 58 60 60 60 60 60 60 58 57 54 51 49 47 48 48 47 48 50 51 51 50 50
27 25 25 24 23 22 25 27 35 35 49 50 52 53 53 53 54 53 54 55 56 57 57 56 56 57 57 58 60 60 60 60 60 58 58 56 53 50 48 47 48 48 46 47 47 49 50 49 48
25 24 22 20 22 23 25 17 27 34 45 48 52 52 51 52 53 53 54 54 55 57 57 56 56 56 57 57 59 60 60 60 59 58 56 56 54 50 49 47 50 50 49 46 44 44 46 46 45
25 16 20 18 21 22 25 22 26 40 43 45 51 51 51 52 53 53 53 54 55 57 57 56 56 56 57 57 59 60 59 60 59 57 55 55 53 52 49 48 51 52 49 48 45 44 43 42 41
21 21 22 20 20 24 22 21 23 31 41 42 47 51 52 52 53 53 54 54 55 56 57 57 56 57 57 59 59 59 59 59 59 56 54 54 52 51 50 49 52 52 50 48 47 46 46 43 41
24 22 19 21 24 23 21 21 21 26 41 42 46 50 52 54 54 54 54 54 54 56 57 57 56 56 58 57 58 58 57 58 58 58 56 55 54 52 52 51 51 52 51 51 52 49 48 45 45
24 22 21 23 24 24 22 22 24 26 32 41 43 48 51 53 54 54 54 55 54 55 57 57 56 56 56 57 58 58 58 58 58 58 57 55 55 54 52 53 51 52 51 53 51 50 47 47 46
28 27 25 23 24 24 23 22 24 26 36 40 44 46 50 52 53 54 54 55 54 55 56 57 56 56 56 58 57 57 57 57 57 57 55 56 55 54 53 54 53 54 54 52 53 52 51 48 48
24 27 27 26 24 18 24 18 23 24 26 34 40 46 48 51 53 53 53 54 54 54 56 56 56 56 56 57 56 56 54 54 55 55 53 53 56 55 54 54 54 55 54 54 54 53 52 52 50
24 27 27 26 24 23 18 19 23 26 26 27 30 41 45 50 53 53 53 53 52 53 55 56 56 56 56 56 56 55 55 54 54 54 55 57 57 56 54 55 56 56 56 56 56 55 54 54 53
29 26 26 27 25 21 21 23 23 24 27 28 30 33 43 48 52 53 54 54 52 52 53 54 54 55 55 55 55 55 55 55 54 54 54 56 56 57 58 57 57 57 57 57 57 57 56 55 54
27 26 22 24 24 18 25 25 24 27 27 28 29 30 39 47 51 52 53 52 52 52 52 53 53 54 55 54 54 55 54 55 54 55 55 55 56 56 58 58 59 58 58 58 58 57 56 56 56
27 26 21 14 20 19 26 24 23 30 31 33 33 33 35 45 50 52 52 53 53 52 51 52 54 54 55 55 54 53 54 53 53 54 54 54 55 55 56 57 58 58 58 58 58 59 58 58 57
28 25 26 26 32 28 25 28 28 30 29 29 29 30 34 42 48 50 52 53 53 52 53 53 53 54 54 54 55 54 54 54 53 54 54 55 55 54 56 56 57 57 58 58 58 59 58 58 58
27 29 25 26 19 19 23 26 21 25 26 30 33 33 34 40 47 50 51 52 52 52 52 54 53 53 53 54 54 54 54 54 54 55 55 55 56 55 55 56 56 57 57 58 58 58 58 57 57
22 25 29 27 27 20 20 23 32 30 30 33 35 33 33 42 47 50 51 52 52 52 51 52 52 52 52 52 53 54 54 54 55 55 55 55 56 55 55 55 56 56 57 58 58 57 56 55 55
24 23 25 27 27 29 26 22 29 33 33 34 33 32 30 38 46 49 51 51 51 51 50 50 51 51 53 53 53 53 54 54 54 53 54 56 55 55 55 55 55 55 56 56 55 56 55 53 52

GFSSGP_sfc_dewp_084.txt.gz
Dewpoint
53 37 36 32 19 14 10 11 16 16 18 23 31 35 38 41 32 32 63 65 66 68 67 69 71 71 72 72 72 72 72 72 72 71 70 71 71 71 71 70 69 69 68 66 66 66 64 64 64
38 39 36 27 13 5 9 15 16 17 19 27 35 46 45 36 50 55 61 64 64 67 69 69 71 71 71 71 71 71 72 72 71 71 71 71 71 71 70 69 68 68 68 65 66 66 65 64 64
40 40 28 19 12 6 10 14 17 19 20 23 30 44 43 41 54 57 63 64 63 65 68 68 70 70 71 71 71 69 69 71 70 70 71 71 71 70 69 68 67 67 67 66 66 65 65 64 64
34 29 24 14 8 13 15 16 19 20 26 25 27 34 46 52 56 61 62 63 62 63 67 69 69 69 70 70 69 68 69 68 68 69 69 70 70 70 69 67 67 67 67 65 64 64 64 64 64
30 25 15 12 9 10 18 17 20 20 24 35 35 29 39 52 58 60 60 62 62 64 67 69 67 68 69 68 67 68 69 68 67 68 69 69 69 69 68 67 66 66 66 65 63 63 63 63 63
23 24 12 7 7 9 17 18 21 23 27 37 38 36 38 56 55 59 61 61 64 64 67 67 66 67 67 67 67 66 67 67 67 67 68 68 68 68 67 66 66 66 66 65 64 63 62 62 61
23 19 11 10 7 8 15 20 21 23 26 26 39 32 42 54 57 59 60 61 63 65 66 66 67 66 65 66 65 66 67 67 67 67 67 67 67 67 67 67 67 67 65 64 63 63 62 61 60
24 20 13 11 6 9 17 19 21 25 24 42 41 27 32 54 58 59 59 60 62 63 64 65 65 66 65 66 66 65 66 65 66 66 66 66 66 66 65 65 66 66 65 64 63 62 61 60 61
27 18 13 11 12 10 18 19 23 33 32 36 42 41 50 55 57 58 59 60 61 62 63 65 65 64 64 65 65 65 65 65 65 64 65 64 64 64 63 63 65 65 64 63 63 62 61 60 60
23 17 15 13 14 17 18 20 19 21 21 27 38 48 53 56 56 55 56 56 59 60 61 63 62 62 63 63 64 64 66 65 65 64 65 63 64 62 61 63 65 64 63 62 62 62 60 57 52
20 17 17 18 18 19 18 19 19 22 21 24 28 32 51 53 54 54 55 55 57 59 60 60 61 62 62 62 64 64 67 66 65 64 64 64 63 62 62 63 63 62 59 55 57 56 51 51 49
18 19 16 15 15 18 17 19 19 22 26 26 36 39 48 52 53 54 54 54 54 58 59 60 60 60 60 62 63 64 64 66 66 62 63 62 60 59 60 60 60 59 55 55 54 52 53 52 50
22 16 18 19 20 21 21 20 20 20 24 28 40 46 48 52 52 54 54 54 55 57 58 59 59 58 59 60 63 63 65 64 63 61 62 61 59 56 57 59 59 58 57 56 54 53 52 51 49
21 22 20 21 21 22 22 19 20 23 26 31 41 43 46 51 52 54 54 54 56 56 58 59 58 58 59 60 61 61 63 62 60 60 60 59 59 55 53 54 55 57 58 56 54 53 51 48 47
25 22 21 22 22 22 20 17 17 24 33 35 40 44 47 50 52 53 53 54 56 56 58 58 58 58 58 60 60 60 61 60 59 59 58 57 56 55 53 50 51 52 54 56 53 53 49 47 45
23 24 21 20 18 18 20 13 13 20 33 33 39 45 48 50 51 53 52 54 55 56 57 58 57 57 58 59 60 60 60 59 59 58 57 55 54 52 50 49 50 50 51 52 51 49 48 47 45
20 18 20 20 20 17 21 12 17 30 30 32 37 44 47 48 51 52 53 54 54 55 57 58 57 57 58 60 60 59 60 59 59 57 55 53 52 51 49 50 50 49 48 49 47 46 47 45 44
17 19 21 20 18 19 16 16 16 21 28 32 36 44 45 47 49 52 53 54 54 56 58 58 57 57 58 60 59 59 59 59 59 56 52 51 49 51 51 49 51 47 45 46 45 46 45 44 42
20 21 20 19 20 21 19 18 15 16 26 32 37 41 45 47 50 53 54 55 55 56 57 57 56 57 59 58 58 58 57 58 58 56 55 54 48 49 50 49 50 48 47 49 51 48 48 44 44
25 22 20 19 19 23 20 17 15 16 24 27 31 39 43 47 51 53 54 55 55 55 57 57 56 56 57 58 59 58 58 58 57 56 55 54 54 49 49 51 51 51 51 53 52 52 49 47 46
25 23 22 19 20 22 22 20 18 12 23 30 35 36 40 45 50 53 54 55 56 55 56 57 56 56 57 58 58 58 57 58 57 57 55 54 54 51 50 52 53 54 53 53 54 53 52 48 49
22 21 22 22 21 17 21 14 14 19 23 26 31 39 40 44 47 52 53 54 56 55 55 57 57 56 56 57 57 56 54 54 55 55 55 55 55 54 50 52 53 55 53 53 55 53 53 53 50
22 22 19 22 23 23 21 18 15 14 19 21 24 32 40 43 47 51 53 54 55 54 54 56 57 56 56 57 57 57 55 54 56 54 53 53 56 56 53 53 54 55 53 55 55 55 55 53 53
26 26 26 26 24 22 22 17 15 16 23 24 24 26 35 41 46 50 53 54 54 54 54 56 56 56 56 56 57 57 56 55 55 53 52 49 52 53 56 53 55 55 54 55 56 57 57 56 55
26 23 21 23 23 20 17 17 18 21 24 25 24 26 33 40 45 49 52 53 54 54 54 54 55 55 56 56 56 56 56 55 55 53 52 50 50 49 54 56 55 55 56 56 58 59 58 58 57
24 24 22 17 19 20 20 18 18 24 24 25 27 30 33 39 44 48 51 53 53 54 54 54 54 54 56 56 56 57 56 56 55 54 52 52 53 53 55 57 58 58 58 58 59 59 59 59 59
21 23 24 24 23 26 20 23 26 26 26 27 27 27 31 34 42 46 50 53 54 54 54 54 54 55 55 55 56 56 57 56 56 55 55 54 56 53 57 58 58 58 59 59 59 58 58 59 60
17 20 23 24 19 18 17 21 20 23 24 24 27 31 33 32 39 45 48 53 53 54 54 55 55 55 55 56 56 55 55 56 55 56 56 56 56 56 56 57 57 57 57 57 58 58 58 58 59
21 23 24 23 22 19 18 17 24 25 26 26 30 31 32 36 40 45 47 50 53 54 54 54 54 53 54 54 56 56 56 55 56 56 56 56 58 56 56 56 55 55 54 55 56 58 58 58 58
22 22 24 23 18 24 24 21 27 29 30 31 30 32 32 38 42 45 47 49 51 53 53 53 53 52 54 55 55 56 56 56 56 57 57 58 57 57 55 55 54 54 53 54 55 56 57 57 57

GFSSGP_sfc_dewp_087.txt.gz
Dewpoint
53 39 31 29 21 16 9 7 10 12 15 18 25 29 30 32 27 34 60 64 66 66 66 69 71 71 72 73 72 72 72 72 72 71 71 71 71 71 70 70 70 69 69 67 67 66 66 66 66
38 29 32 27 14 8 6 12 13 14 17 21 26 34 33 30 37 47 56 63 63 67 69 68 71 71 72 72 71 71 72 72 72 71 71 71 71 71 70 70 69 69 69 67 65 65 65 65 65
43 32 30 22 15 9 8 13 14 16 19 19 21 31 35 33 45 51 62 63 63 65 67 69 70 70 71 71 70 70 70 70 70 70 71 71 71 71 70 69 68 68 68 66 65 65 65 65 65
31 28 24 12 10 11 12 13 15 18 20 21 21 26 36 50 48 57 61 62 61 62 66 69 69 70 71 70 69 69 68 68 68 70 70 70 70 70 69 68 67 68 68 67 66 65 65 65 64
29 24 19 15 13 11 10 13 16 17 19 26 25 23 32 49 55 58 60 61 61 63 66 69 68 69 70 71 69 67 66 67 66 65 68 68 69 69 68 67 67 67 67 67 65 65 64 64 64
21 19 16 12 10 9 9 14 17 18 22 25 33 27 31 52 53 57 60 60 62 63 65 68 68 67 67 69 68 66 67 65 65 66 67 67 68 67 67 67 66 66 65 65 65 64 63 63 62
23 19 18 15 12 10 8 15 19 20 21 21 30 27 36 51 53 59 59 61 63 64 65 67 69 67 65 66 66 66 66 66 66 66 65 64 66 66 66 66 66 66 65 65 64 64 63 62 62
21 19 18 17 12 10 9 13 18 19 19 31 30 27 28 50 57 58 59 59 61 62 64 65 67 68 67 66 65 65 65 65 64 65 65 65 66 66 66 66 66 66 65 64 63 63 62 62 61
24 19 17 15 13 12 10 16 19 21 22 23 30 30 44 53 55 56 57 58 59 62 62 65 65 66 66 66 65 65 65 65 64 65 64 61 65 64 65 64 65 65 64 63 62 62 61 61 60
23 20 18 16 14 14 12 15 16 16 18 21 26 32 42 52 52 53 53 55 59 59 61 63 65 64 65 63 65 65 65 65 65 65 65 65 65 65 64 65 64 64 63 63 62 61 60 56 52
22 20 19 17 16 13 12 12 15 16 17 20 22 24 31 48 50 51 51 52 55 57 59 61 63 63 64 65 64 64 66 66 65 65 65 64 64 64 65 65 63 62 61 57 56 55 49 50 49
19 20 18 17 14 14 13 13 13 16 19 21 22 27 34 36 47 49 50 52 52 58 58 60 61 61 62 62 63 65 66 66 65 64 63 64 63 63 64 63 60 58 56 55 53 50 54 52 49
20 18 17 14 17 16 16 16 16 16 19 21 21 24 33 39 44 49 51 52 52 56 58 59 61 60 61 61 63 64 65 66 65 64 64 64 63 62 62 61 58 55 56 55 53 52 50 50 50
21 17 18 19 18 20 19 20 18 16 20 20 22 24 30 40 46 48 52 52 52 54 58 58 59 60 60 60 61 63 64 65 64 63 63 62 61 61 61 60 57 57 56 55 54 53 50 48 48
22 21 22 21 21 20 21 19 20 20 18 16 23 28 37 39 46 48 52 53 53 54 57 59 59 59 59 61 61 61 63 63 62 60 60 59 59 59 60 60 59 59 58 58 57 54 50 46 46
24 24 22 22 22 21 21 20 21 16 15 16 27 30 37 42 46 48 51 52 52 53 57 57 58 58 59 60 60 61 60 60 59 59 59 58 57 56 57 57 58 59 59 56 55 53 49 48 46
25 21 22 20 21 20 18 18 20 17 22 23 27 29 38 43 47 48 51 52 52 54 56 57 58 57 59 60 60 59 59 58 58 57 57 56 56 56 54 54 54 57 55 55 54 53 53 50 46
20 20 18 19 21 21 19 18 19 17 22 25 26 30 37 43 45 48 51 52 53 54 56 58 58 58 59 60 59 58 57 57 57 56 55 55 54 54 53 52 53 52 51 53 51 52 51 50 47
19 18 17 20 21 21 21 21 20 18 16 18 26 29 34 40 43 48 52 53 54 55 56 57 57 58 59 58 57 56 56 56 56 55 56 55 54 52 52 50 51 49 48 49 52 52 52 48 47
21 19 20 20 21 21 20 21 21 20 19 16 19 26 32 39 43 48 52 54 55 55 56 56 57 57 58 58 57 56 56 55 55 54 53 51 52 50 51 52 50 51 49 52 53 53 49 46 49
20 22 23 21 21 20 21 21 21 22 22 21 17 24 27 35 43 48 52 54 56 55 55 55 56 56 58 59 58 57 56 57 56 55 52 51 50 48 50 55 52 54 54 54 56 55 53 49 49
22 23 22 20 20 18 20 17 21 20 17 16 18 27 28 31 42 48 51 53 55 56 55 56 56 56 57 59 57 55 53 52 53 52 50 53 54 52 50 54 56 55 55 55 56 54 55 54 50
23 23 22 22 19 20 19 16 19 21 18 17 23 27 30 33 40 46 51 53 54 56 55 56 57 56 56 58 57 57 54 52 52 52 52 53 56 56 53 52 56 56 55 57 58 57 56 54 52
26 23 23 23 21 21 21 21 20 20 18 22 23 23 25 31 38 44 50 52 54 55 56 56 56 56 56 57 57 56 55 53 54 52 52 54 54 55 55 52 56 56 57 57 57 58 57 57 57
24 23 21 23 23 22 20 19 22 21 21 21 22 23 26 30 37 43 49 51 53 55 54 56 56 55 56 57 57 57 56 54 55 53 53 51 52 53 55 55 57 56 57 57 57 59 59 59 57
23 23 22 19 21 22 21 19 18 20 21 21 23 25 28 32 37 42 48 51 52 54 54 54 54 55 56 56 56 57 57 54 54 55 53 51 51 52 54 58 57 56 57 57 58 58 59 60 60
18 22 23 21 23 25 23 22 23 23 23 24 24 25 27 29 35 40 46 52 53 54 54 55 54 55 56 56 57 56 57 57 55 55 54 52 50 48 51 56 57 58 58 58 59 59 60 60 61
11 7 16 19 19 19 17 17 16 22 24 24 25 27 28 27 31 39 44 51 52 54 55 55 55 54 56 56 57 57 57 57 57 56 55 55 52 52 53 55 57 58 58 59 59 59 59 59 60
14 13 17 20 21 17 18 15 23 23 24 25 28 29 31 32 31 37 43 48 52 53 54 54 54 53 55 56 56 57 57 58 58 58 57 57 56 55 55 55 57 57 58 58 58 58 58 57 58
18 19 18 19 19 19 20 18 22 26 26 28 28 31 33 36 35 37 43 47 51 52 53 53 53 52 55 57 57 57 57 57 57 58 59 59 57 57 56 56 56 56 56 57 57 57 56 56 57

GFSSGP_sfc_dewp_090.txt.gz
Dewpoint
55 46 35 30 23 21 16 11 7 11 11 18 20 23 24 30 25 41 59 63 66 67 69 68 71 72 73 73 72 72 72 72 72 71 71 72 71 71 71 70 70 69 70 68 68 67 67 66 67
39 32 28 26 23 15 10 11 12 13 17 20 21 25 26 27 37 53 60 61 64 67 70 69 70 71 72 72 72 72 72 72 72 71 71 72 71 71 71 70 69 69 69 68 67 67 67 66 68
47 36 26 27 21 15 13 11 14 14 18 18 17 23 28 34 44 55 62 62 62 65 67 70 70 70 71 72 72 71 71 71 71 71 71 71 71 71 71 70 69 69 69 67 66 67 66 66 67
36 28 26 21 15 14 11 11 15 15 17 20 19 17 30 47 41 57 60 60 61 63 67 69 70 70 71 71 71 71 70 69 68 66 63 70 71 70 70 69 68 68 68 66 66 66 65 65 66
31 27 22 19 16 15 14 9 14 15 16 21 23 19 29 46 55 57 60 61 63 65 68 69 69 70 71 71 70 70 69 68 67 64 63 65 69 69 68 68 68 67 67 66 65 65 65 65 64
25 22 17 14 14 13 11 11 13 16 18 20 27 29 31 49 53 58 62 62 65 67 68 68 68 68 69 70 69 68 66 66 63 63 63 63 66 67 67 67 67 67 67 66 65 65 64 64 64
24 20 17 16 17 17 14 11 13 18 19 19 25 26 39 48 54 60 60 62 65 67 66 68 68 67 66 68 67 66 66 65 65 64 63 63 66 66 67 66 67 67 66 66 65 64 64 63 62
23 21 18 16 15 16 14 9 13 17 17 24 28 27 35 50 57 58 59 60 63 64 65 66 68 67 67 67 66 66 66 65 64 64 64 63 65 65 66 66 66 66 66 65 64 64 63 62 61
23 19 16 16 16 16 13 11 15 18 18 20 21 27 42 54 55 55 58 59 60 63 63 64 63 67 67 66 65 65 66 66 65 65 64 64 64 63 65 65 65 65 64 64 63 63 62 61 59
22 20 18 18 17 18 15 12 13 15 18 20 23 28 39 51 51 52 53 56 59 60 61 62 64 65 66 65 65 64 65 65 65 64 64 64 64 64 65 63 64 64 63 63 63 62 60 57 54
21 20 21 19 19 18 15 13 12 13 15 20 21 23 30 47 49 49 50 50 56 59 59 61 62 63 65 65 65 66 66 65 65 64 64 63 64 64 63 64 63 61 62 60 60 58 53 51 51
20 20 20 20 19 17 16 14 14 13 16 19 20 29 30 30 41 46 47 50 51 58 58 60 61 62 63 63 65 65 65 65 64 64 64 63 64 63 64 62 61 58 57 56 55 53 51 52 52
22 20 20 20 19 17 15 16 15 16 20 23 19 21 25 31 34 39 47 50 52 58 58 59 61 60 61 62 64 63 64 65 64 64 64 63 63 63 63 62 57 55 54 52 50 52 50 51 50
24 21 19 20 19 18 17 17 20 20 24 20 19 18 20 23 32 40 47 51 54 57 58 60 60 61 60 61 62 63 63 64 65 63 63 63 63 63 62 61 54 54 55 51 52 51 51 49 51
25 24 22 21 19 20 22 20 20 21 22 22 21 19 23 26 35 44 48 54 54 55 58 59 59 59 60 60 61 62 63 64 63 64 63 63 62 62 62 60 54 55 56 54 56 54 52 51 50
24 24 21 21 21 23 22 20 23 23 23 21 20 18 25 29 38 44 48 52 52 54 58 58 58 57 60 61 61 62 62 63 61 61 63 62 61 61 61 59 59 58 57 57 55 53 51 50 50
25 22 23 22 23 23 22 20 20 21 20 16 18 20 27 34 41 46 49 52 52 53 58 58 57 57 59 60 60 59 59 59 60 59 59 59 59 59 59 59 59 59 58 57 54 53 52 50 49
21 21 22 22 23 21 20 20 20 21 21 23 25 25 28 35 41 46 49 52 52 55 58 57 57 59 60 59 58 58 57 57 58 57 57 57 56 56 56 57 57 57 56 56 54 52 53 50 49
20 19 20 21 23 20 21 22 20 21 23 22 26 26 28 32 41 47 51 54 54 57 57 57 56 59 59 57 56 55 55 55 56 56 55 55 55 54 55 55 55 53 53 52 52 53 52 49 51
16 17 18 22 24 20 20 21 21 21 22 23 22 21 28 30 37 47 52 54 55 56 57 57 57 58 58 57 56 55 54 54 54 55 55 54 55 54 54 54 52 51 50 51 52 52 50 49 50
19 21 20 24 26 23 22 21 21 21 23 24 24 23 20 30 38 46 52 54 56 56 56 57 56 57 58 57 56 56 54 54 52 53 54 54 54 55 54 52 50 52 50 50 52 53 49 48 49
16 21 24 26 27 26 23 18 22 21 22 23 25 27 24 26 37 45 51 54 55 56 56 56 56 57 58 57 55 53 51 50 51 51 50 50 52 51 51 50 51 50 50 53 53 55 52 52 48
18 23 25 30 29 25 21 20 19 21 19 21 23 25 26 33 34 45 50 54 55 56 56 56 56 56 58 56 55 53 51 51 53 52 51 49 50 50 51 54 54 55 54 54 55 56 57 56 56
23 22 25 27 27 25 24 20 19 20 22 23 20 23 29 31 35 44 50 53 54 56 55 56 56 56 57 57 55 53 52 52 53 50 50 50 50 52 52 53 55 56 54 56 56 57 56 56 56
22 23 21 23 25 25 22 19 22 23 23 23 23 25 32 32 36 41 50 52 53 56 55 55 55 55 56 57 56 54 52 52 52 50 48 49 50 54 55 54 54 54 56 56 57 57 57 57 56
21 25 21 18 26 30 30 24 19 23 23 24 22 28 31 32 39 41 50 52 53 56 55 54 55 55 56 57 57 55 53 53 53 50 50 50 50 52 54 55 55 54 55 57 57 57 58 58 57
21 22 23 23 25 26 25 29 28 25 21 24 24 25 30 33 36 38 48 52 53 55 55 55 54 55 56 56 56 57 56 53 52 52 51 52 52 52 54 54 55 56 57 57 57 57 57 57 58
17 23 22 23 19 15 16 19 22 26 24 23 25 28 31 31 32 38 44 52 53 55 55 56 54 55 55 56 56 56 56 55 54 54 52 52 51 51 52 53 55 54 55 57 57 57 57 57 58
8 9 14 13 15 16 19 22 31 33 31 27 30 32 35 36 35 38 43 52 53 55 55 55 55 54 55 55 56 56 56 56 54 54 55 53 52 51 51 51 52 54 55 56 57 57 57 57 57
15 13 12 16 16 22 22 20 23 29 29 31 30 32 36 37 38 38 42 51 52 54 54 54 54 54 55 56 56 56 56 57 56 55 55 55 54 52 51 50 50 51 55 56 56 57 56 56 56

GFSSGP_sfc_dewp_093.txt.gz
Dewpoint
57 54 46 33 26 23 19 17 17 13 19 23 24 26 29 27 37 43 61 65 68 67 69 70 71 72 72 72 71 71 70 71 71 72 72 71 71 71 71 70 69 69 69 68 68 68 68 68 69
48 44 35 28 23 21 19 17 15 18 20 21 25 27 29 30 53 59 61 66 67 68 68 69 70 72 72 72 71 71 71 72 71 72 72 71 71 71 71 70 69 70 70 68 67 67 68 68 68
49 43 28 27 23 20 17 15 15 19 20 19 19 24 30 44 55 60 62 65 66 67 68 68 69 71 72 72 71 71 71 71 71 70 65 66 69 71 71 70 69 69 70 68 67 66 67 68 67
41 36 26 23 21 21 20 17 17 17 19 20 21 19 36 50 52 61 62 62 64 66 68 68 69 70 71 72 72 71 71 71 67 64 65 64 64 69 70 70 69 69 69 67 67 66 67 67 66
35 31 24 24 20 18 16 15 15 15 19 26 21 23 43 57 60 60 61 62 62 67 68 69 69 70 70 71 72 71 70 70 66 66 65 65 62 63 69 68 69 68 68 68 66 66 66 66 66
28 26 20 18 18 18 19 16 17 21 22 27 29 30 39 56 57 62 61 61 62 65 67 68 69 70 70 70 70 70 69 68 66 66 65 64 62 62 66 67 68 67 67 66 66 66 66 66 64
29 24 19 18 17 17 17 16 19 22 21 21 32 30 43 52 59 60 60 61 62 62 66 66 67 68 68 68 68 67 67 66 66 65 64 62 64 66 67 68 67 67 66 66 66 65 65 64 63
27 23 20 19 17 16 17 15 18 18 18 22 29 29 44 56 59 59 59 61 61 62 63 65 65 66 65 66 66 66 66 65 65 64 64 62 63 65 66 66 66 67 66 66 65 64 64 63 61
28 22 20 19 17 16 19 16 22 20 19 22 25 25 46 57 57 57 57 59 60 61 62 62 66 66 66 65 66 66 66 65 65 64 64 63 63 65 65 65 66 66 65 65 64 63 62 61 59
26 22 21 21 19 20 21 17 13 17 18 20 25 31 53 56 55 55 57 56 58 60 60 61 63 66 66 65 63 64 65 64 64 64 63 63 63 64 65 65 64 65 64 64 63 62 61 57 53
24 23 22 21 21 22 20 17 16 15 14 21 25 24 53 53 53 52 55 56 57 59 60 61 61 62 65 65 64 63 64 64 64 64 63 62 63 64 64 64 63 62 63 61 60 58 54 52 52
24 23 21 20 21 21 19 18 16 15 16 21 20 27 50 50 49 50 50 50 57 58 59 60 60 61 62 65 64 64 63 63 64 63 62 62 63 62 63 62 61 60 59 58 56 54 51 50 51
26 25 24 22 21 20 20 19 16 16 20 26 25 23 23 39 47 48 49 49 57 57 59 59 60 60 61 62 63 63 63 63 63 63 62 63 63 62 62 61 59 57 57 55 52 52 50 50 51
27 27 26 23 22 21 20 18 19 18 25 23 22 20 19 20 26 34 46 51 57 57 58 59 59 59 60 59 60 60 62 63 63 63 62 62 63 63 62 59 56 55 53 50 51 49 50 50 49
27 26 25 26 25 22 22 20 20 22 23 25 23 22 19 20 25 35 47 51 57 57 58 59 59 60 60 58 59 60 61 63 63 63 63 62 63 63 60 58 55 53 49 50 52 50 51 49 51
28 27 24 25 24 23 22 19 23 24 23 21 21 21 20 22 25 41 50 52 57 58 58 58 58 58 60 59 59 59 61 63 64 63 63 62 62 62 59 57 54 55 48 52 52 51 50 51 50
28 25 25 24 25 24 22 20 23 24 23 22 21 21 19 22 37 46 51 52 57 57 57 57 57 58 60 60 59 59 61 61 61 62 63 62 62 62 60 58 55 57 50 55 52 51 50 50 50
24 23 23 23 24 24 23 22 23 22 20 20 20 22 22 29 40 47 51 51 57 57 57 57 57 59 59 59 58 58 58 58 59 60 61 62 62 62 60 59 57 56 55 53 51 50 50 50 49
21 21 21 21 19 20 22 23 24 22 21 21 25 24 24 26 41 47 51 53 57 57 56 56 57 59 58 57 56 56 55 56 56 58 59 60 61 60 59 58 57 55 54 51 50 52 49 49 48
14 16 16 16 19 19 20 26 29 28 22 22 23 25 26 27 42 49 51 55 56 56 56 56 57 58 57 57 56 55 55 55 55 56 56 57 58 58 57 56 55 54 52 51 51 51 49 48 50
4 10 17 19 23 26 30 28 28 26 23 23 23 24 24 27 42 50 50 54 56 55 55 56 57 58 57 57 55 55 54 54 53 53 54 55 56 56 56 55 53 52 51 51 50 50 48 46 48
5 6 10 17 27 26 30 28 30 30 25 23 22 23 24 22 45 50 50 54 55 55 56 56 56 58 57 56 54 53 52 51 52 52 53 54 55 55 54 53 52 52 50 49 51 52 49 47 45
15 15 14 28 28 29 29 30 30 26 23 22 22 23 24 24 46 50 51 53 55 56 55 55 56 57 56 55 54 52 51 51 52 52 52 53 54 55 54 53 52 52 52 50 52 53 52 51 50
24 24 27 29 30 28 30 29 27 25 24 22 23 23 26 26 46 51 52 53 55 55 55 55 56 57 56 55 53 51 50 50 50 50 51 51 51 51 52 52 50 51 51 53 53 55 55 55 54
24 22 22 24 24 23 24 27 29 28 25 22 23 24 25 28 45 51 52 53 54 54 54 55 55 57 56 54 53 51 52 52 50 49 50 49 49 50 52 51 52 53 53 55 54 55 56 56 56
23 22 25 20 25 30 28 30 31 33 35 25 24 25 27 32 45 51 52 53 53 54 54 54 54 56 56 55 53 51 52 52 51 49 50 49 48 49 51 53 54 54 54 55 56 56 56 57 56
23 21 24 25 25 28 26 25 29 33 30 26 23 23 27 34 44 50 52 53 54 53 54 54 54 55 56 56 54 52 52 52 51 50 49 50 50 50 54 53 53 53 55 56 56 56 56 56 55
19 24 23 25 19 16 17 16 27 28 32 32 26 27 29 34 41 50 51 52 54 54 54 54 54 54 55 56 56 53 52 52 52 51 50 50 50 50 53 54 54 53 54 56 56 56 56 56 56
14 18 23 19 24 20 19 21 29 31 32 35 36 32 32 33 34 43 50 52 54 54 53 53 53 54 54 55 56 56 54 53 52 52 50 52 52 52 52 53 53 53 54 55 56 55 56 56 56
14 11 12 14 14 18 20 17 30 27 35 37 41 42 33 32 34 39 50 52 54 54 54 54 53 54 55 55 55 56 56 55 53 52 52 51 52 52 51 51 52 53 53 53 55 55 55 56 56

GFSSGP_sfc_dewp_096.txt.gz
Dewpoint
56 52 43 33 25 23 20 19 19 17 20 24 26 25 26 32 32 32 60 67 67 67 69 71 71 71 71 71 71 71 72 72 72 72 71 71 71 71 71 70 70 70 70 69 68 70 69 69 69
48 46 33 27 22 20 19 21 17 18 21 25 27 28 28 49 56 60 63 67 67 68 69 69 71 71 71 71 71 70 72 71 72 72 71 71 71 71 71 70 69 70 70 69 69 69 69 69 69
44 43 30 24 23 20 20 18 17 19 21 18 19 25 33 50 58 60 62 67 67 67 68 69 70 71 71 71 71 71 71 71 71 70 69 68 69 71 70 69 70 69 70 68 68 69 68 68 67
40 35 29 23 23 24 21 21 20 17 19 20 19 20 44 54 59 62 65 66 67 68 67 68 69 70 72 72 71 71 71 71 67 67 66 66 67 67 68 69 69 69 69 69 68 68 68 67 66
35 29 23 24 22 22 21 19 16 16 18 24 20 23 47 59 61 61 63 65 67 68 67 67 68 69 71 72 72 71 71 69 67 66 65 65 65 64 65 66 67 68 69 69 68 68 67 67 66
28 27 21 20 21 22 20 20 20 19 21 28 27 39 47 59 60 61 62 63 67 67 67 68 69 69 70 71 71 70 70 67 66 65 65 65 64 64 64 63 67 67 67 67 67 67 67 66 65
29 25 21 19 18 20 20 20 18 23 21 21 32 30 51 56 60 61 61 62 64 66 66 66 67 69 69 69 69 69 69 66 66 66 65 65 64 64 63 65 67 67 67 67 67 66 66 65 63
29 25 24 21 20 19 21 19 19 20 19 23 30 36 49 52 60 60 61 61 62 63 64 64 64 65 65 67 67 67 67 66 66 66 65 64 64 65 64 66 65 66 67 66 66 65 64 63 62
29 25 21 20 19 19 20 20 19 20 19 20 23 31 44 58 59 58 59 59 59 61 62 64 64 64 64 65 66 66 66 65 65 65 64 63 62 64 64 64 66 65 65 65 65 64 63 61 61
29 25 25 24 22 22 21 22 19 16 17 19 23 49 56 58 57 56 57 58 58 59 61 62 64 64 64 65 65 65 65 64 63 62 62 61 63 63 65 65 65 64 64 64 64 63 62 58 55
27 27 28 26 23 23 21 22 19 15 14 20 22 35 56 56 55 56 56 57 59 59 60 61 62 64 64 63 63 64 65 63 62 62 62 61 62 64 64 65 64 64 64 62 61 60 56 52 52
29 28 25 24 25 22 21 21 19 17 18 19 20 30 55 55 54 55 56 56 57 59 60 60 60 61 62 63 63 64 64 64 63 63 62 62 62 62 63 64 64 62 61 59 57 55 53 51 52
28 28 28 27 25 23 22 20 20 19 20 24 23 37 53 54 54 54 55 55 58 58 59 59 59 60 60 62 62 63 63 64 63 63 62 62 62 62 63 62 62 60 59 57 54 52 51 50 51
28 28 27 27 27 25 22 22 21 19 24 22 22 21 42 51 51 51 49 53 57 59 59 58 58 59 60 60 60 62 62 62 63 63 62 63 62 62 61 61 59 58 56 55 53 50 50 50 51
27 25 26 27 26 25 25 22 20 22 23 23 23 22 21 24 45 48 46 55 57 58 58 58 58 58 59 58 60 61 62 63 63 63 62 63 62 62 60 59 58 56 54 51 51 49 50 49 51
28 29 26 26 26 25 23 21 24 24 23 23 23 23 23 23 22 28 48 55 57 58 58 58 59 58 58 57 58 59 60 63 63 63 62 63 62 62 59 58 56 53 51 51 51 49 49 49 51
28 24 26 26 26 25 23 22 24 23 24 24 24 24 23 23 22 41 53 56 57 58 58 58 58 58 58 59 60 58 60 62 63 63 62 62 63 61 59 57 53 51 49 52 50 49 49 50 50
24 25 26 24 24 25 24 23 24 25 26 28 28 24 21 22 25 48 53 56 57 57 57 57 57 58 59 60 59 59 59 60 61 62 62 62 62 60 59 56 53 48 51 53 51 49 51 50 50
26 24 23 22 22 20 19 18 19 26 30 29 28 23 22 21 37 50 54 56 57 57 56 56 57 58 58 58 57 56 56 57 58 60 62 62 62 61 58 57 55 47 52 52 51 49 49 50 50
16 16 18 19 19 17 16 21 26 28 28 29 29 26 25 25 45 51 54 56 56 56 56 56 57 57 57 57 56 56 56 55 56 57 58 62 62 61 59 57 56 49 53 51 50 49 49 49 49
10 10 11 12 15 22 27 22 21 24 31 31 31 29 25 26 44 50 54 55 55 55 55 55 56 56 57 56 56 55 54 54 54 55 56 57 61 60 59 56 56 53 52 50 50 48 47 47 49
9 10 8 6 9 11 27 18 21 24 26 29 31 29 26 25 44 50 53 55 55 55 55 56 56 56 56 56 55 53 53 52 53 53 54 56 58 59 58 57 56 54 52 50 50 49 48 47 46
12 14 12 8 23 28 29 27 21 31 29 29 29 28 26 25 42 49 53 54 55 55 55 56 56 55 56 55 54 53 53 52 53 52 53 54 56 57 56 56 55 53 52 51 52 51 50 49 50
23 21 24 28 28 25 29 26 18 27 28 29 28 28 27 25 43 49 52 55 55 55 55 55 56 54 55 54 54 53 52 52 52 51 52 53 55 55 55 54 54 53 52 53 51 53 51 52 51
22 20 19 21 23 22 26 27 24 28 30 31 31 30 31 29 40 49 53 54 54 54 54 55 55 53 55 54 53 51 51 51 51 51 51 52 53 54 54 54 54 54 53 54 53 53 54 53 53
21 22 22 17 21 22 30 27 31 34 33 33 35 34 33 32 47 50 53 54 54 54 54 55 55 53 54 54 53 51 51 51 51 51 51 51 52 53 53 53 53 53 53 53 55 54 54 56 54
19 21 25 23 26 23 25 27 27 31 36 38 38 36 30 29 46 50 52 54 54 54 54 54 55 54 54 54 53 51 52 51 51 51 51 50 50 51 51 51 52 54 53 53 54 54 54 56 55
22 24 22 23 19 18 20 18 20 30 37 39 39 39 39 41 49 51 52 53 54 54 54 54 55 55 54 54 53 51 52 51 51 50 50 50 49 50 52 52 53 54 53 53 54 54 55 55 55
18 17 25 25 26 20 19 19 36 39 40 40 38 38 39 39 47 51 52 53 54 54 54 54 54 55 54 55 54 52 51 52 52 51 50 50 51 50 53 52 53 53 53 54 54 53 54 55 55
25 19 24 25 22 25 24 21 35 39 43 40 38 40 42 41 39 50 52 53 54 53 54 53 53 54 55 55 55 53 52 52 52 51 50 51 51 51 51 52 51 52 52 53 54 54 54 55 54

GFSSGP_sfc_dewp_099.txt.gz
Dewpoint
58 52 40 32 25 23 22 19 19 18 18 22 25 25 26 32 29 27 59 65 67 68 71 70 71 71 71 71 71 72 72 72 72 72 72 72 72 72 72 71 70 70 69 69 69 70 70 70 70
49 45 31 27 22 18 16 21 19 18 20 26 28 29 35 44 56 59 64 66 66 68 70 70 71 71 71 71 71 72 72 72 72 71 72 72 71 72 71 71 71 70 69 68 69 69 69 69 69
45 40 28 24 22 18 16 20 19 20 21 22 20 25 43 46 57 60 63 66 67 67 69 70 70 70 71 71 71 71 71 71 71 71 71 71 71 70 71 70 70 70 70 68 69 69 69 69 68
39 37 30 24 23 24 20 20 24 19 18 20 20 25 45 55 59 61 66 67 66 67 68 68 70 70 71 71 71 71 71 71 70 70 70 71 71 70 70 70 70 70 70 69 69 69 68 67 67
33 29 24 23 22 23 24 23 21 18 17 21 20 23 45 58 61 64 67 67 67 67 66 67 68 70 71 72 71 71 71 69 69 68 69 69 70 70 69 69 69 68 68 68 69 68 67 67 66
28 27 23 21 20 22 22 23 21 21 22 24 25 43 49 59 61 64 65 66 68 67 66 67 69 70 71 71 71 70 70 68 67 67 67 67 68 68 68 69 68 68 68 68 67 67 66 66 65
28 24 22 21 19 20 21 22 21 22 20 24 32 41 48 58 60 61 63 66 66 66 66 66 67 68 69 69 69 69 68 67 67 66 66 65 65 65 66 67 67 68 67 67 67 66 66 65 64
30 27 27 22 21 20 21 20 21 19 18 23 33 43 49 56 60 61 62 63 64 65 65 65 65 66 67 69 68 68 67 66 66 66 66 66 65 65 65 65 66 67 67 65 66 65 65 63 63
29 26 23 23 20 20 22 21 24 21 19 20 29 47 47 58 60 60 58 59 60 63 63 63 63 63 63 66 67 68 67 66 66 66 66 65 63 63 63 65 65 66 66 64 66 65 63 61 61
32 28 26 25 22 22 24 22 22 20 18 18 22 49 57 59 58 58 58 58 58 60 61 63 62 62 63 65 65 65 67 66 65 65 64 62 60 62 64 65 65 66 65 65 65 64 61 60 59
31 28 28 26 25 25 24 24 24 19 17 20 20 33 57 58 57 57 57 57 57 59 61 62 62 62 63 63 63 65 64 63 63 63 62 61 62 62 63 63 64 64 63 63 62 61 54 57 56
29 27 30 29 28 27 24 24 21 19 20 23 20 32 56 56 56 56 56 57 58 58 60 60 61 61 61 62 62 64 64 63 62 62 61 60 62 62 63 63 62 62 63 61 61 57 52 53 53
30 30 30 30 29 27 26 25 23 22 24 26 22 33 54 55 56 56 55 55 57 58 59 60 60 61 62 61 61 63 63 63 62 62 61 61 61 62 63 63 63 63 62 59 58 55 51 52 53
27 27 27 28 29 28 27 26 24 23 25 24 24 24 50 54 54 54 54 55 57 58 59 59 59 60 60 61 60 61 62 62 62 62 61 61 62 62 62 62 62 62 61 58 56 53 51 52 53
27 26 26 26 27 26 26 24 23 25 24 23 23 23 29 50 53 53 53 53 56 58 59 58 58 59 60 60 60 60 61 62 62 62 62 62 62 61 62 61 60 60 59 56 54 52 51 51 52
27 29 26 27 27 27 25 23 25 26 24 23 23 24 24 25 44 52 52 52 55 58 58 58 59 58 58 58 58 59 62 62 62 63 62 62 62 61 60 61 59 58 57 53 52 50 50 52 52
27 23 25 26 28 26 23 23 25 26 25 25 26 27 27 27 26 28 48 50 56 58 58 58 58 57 57 57 57 57 61 62 63 62 62 62 62 61 60 59 58 56 55 52 51 50 50 51 52
22 25 26 25 25 25 25 24 25 24 25 26 29 29 29 26 25 28 36 50 56 58 58 58 58 57 57 58 58 58 60 61 62 63 62 62 62 60 59 58 56 54 52 52 50 49 50 51 52
25 25 25 23 24 21 21 20 20 19 24 28 28 29 28 27 29 42 52 56 57 58 57 57 57 58 58 57 57 57 58 58 60 62 62 61 62 60 59 57 55 52 51 51 49 49 50 50 52
20 20 20 20 22 20 20 17 15 22 27 27 28 30 31 30 41 51 55 56 56 57 56 56 56 57 57 57 56 56 56 56 58 59 60 62 62 60 58 57 55 47 50 51 49 49 50 49 51
13 14 13 15 14 14 19 15 20 24 25 28 28 30 30 30 36 51 55 56 56 56 56 56 56 56 56 56 55 55 55 55 55 56 58 59 62 60 59 57 55 47 52 51 48 49 49 48 49
9 12 10 10 9 6 21 7 10 20 22 27 29 29 27 30 36 49 54 55 55 55 56 56 56 55 55 56 54 54 53 53 53 54 55 57 59 61 59 58 55 49 54 51 49 49 49 49 47
13 17 14 13 9 11 16 25 18 27 25 23 24 29 30 31 31 48 53 54 55 55 55 56 55 55 56 55 53 53 53 53 53 53 54 56 57 60 59 57 54 52 55 52 50 50 50 49 50
24 19 20 20 17 20 18 26 17 18 25 28 29 31 36 31 30 46 51 54 54 54 55 55 55 55 55 54 53 52 53 52 52 52 53 54 55 57 58 57 55 55 55 53 52 52 50 51 51
20 19 20 21 24 19 27 27 21 25 28 30 35 40 39 36 32 45 52 54 54 53 54 54 54 54 54 54 53 52 52 53 52 52 53 54 54 54 56 57 56 55 55 54 53 52 52 51 51
18 20 20 15 18 17 26 25 24 33 36 39 40 40 39 39 38 43 51 54 53 53 53 54 54 54 53 53 53 52 52 52 52 52 52 53 54 54 55 55 55 55 55 54 54 53 53 53 52
17 20 21 20 24 23 25 27 25 33 40 40 41 40 40 39 41 44 51 53 53 53 54 54 54 53 53 53 52 51 51 51 52 52 52 52 54 54 55 55 55 55 55 55 54 55 53 54 54
16 20 20 23 18 17 18 20 21 35 40 40 40 41 41 40 41 47 52 53 54 54 54 54 54 53 53 53 52 51 51 51 51 52 51 51 52 53 54 54 55 55 55 55 54 53 54 54 55
18 20 23 22 24 18 17 18 37 37 38 41 43 43 42 42 40 51 52 53 54 54 54 54 54 53 53 53 52 51 51 51 51 51 51 50 51 51 52 52 53 53 53 53 53 52 52 54 54
19 21 25 22 20 24 23 21 34 33 40 42 43 45 42 43 40 42 52 53 54 54 54 54 54 53 53 53 53 51 52 51 51 50 51 51 50 51 51 52 52 53 53 53 52 51 51 53 53

GFSSGP_sfc_dewp_102.txt.gz
Dewpoint
58 50 37 31 24 23 22 18 19 18 18 21 25 27 28 29 32 23 57 65 66 68 70 70 71 72 72 72 72 72 73 73 73 72 72 72 72 72 72 72 71 71 72 71 70 71 70 70 70
52 42 30 27 21 16 13 21 20 20 20 24 28 33 36 34 55 58 63 66 67 69 69 70 71 71 71 71 72 72 72 72 72 72 72 72 72 72 72 72 70 70 71 71 70 70 70 70 69
45 38 27 24 22 16 11 20 19 23 21 23 20 26 38 43 57 59 64 66 67 68 69 70 70 70 71 71 72 72 71 72 72 72 72 72 72 72 72 71 70 69 69 70 69 69 70 69 69
39 37 29 24 22 23 18 19 24 22 20 21 18 23 43 54 57 60 65 66 66 67 69 69 69 70 71 71 72 72 71 71 71 71 72 72 72 72 71 70 69 68 69 69 68 69 69 68 67
32 30 24 23 21 23 25 25 23 22 20 21 19 19 41 57 61 65 66 66 65 66 66 68 69 70 71 71 71 71 71 70 70 71 71 71 71 70 69 69 69 68 68 69 69 69 68 67 66
29 27 23 18 15 22 23 23 24 23 23 24 23 35 43 58 62 65 66 65 66 65 65 67 70 70 70 71 70 70 69 70 69 70 70 70 70 70 69 69 68 68 68 68 68 67 68 66 66
28 25 24 24 21 20 20 21 21 23 23 21 35 36 44 57 61 64 64 65 65 65 64 65 67 69 70 69 69 69 68 68 68 68 69 68 68 68 69 69 68 67 67 68 68 67 66 66 64
29 26 25 22 20 20 20 21 20 20 20 22 38 33 34 55 61 62 63 64 64 64 64 64 65 66 68 69 68 68 68 67 67 66 66 65 65 66 66 67 67 67 67 67 66 66 65 64 63
29 25 24 22 21 20 21 23 26 24 20 19 26 40 48 59 61 60 60 63 64 65 64 64 64 64 65 66 68 68 68 66 66 66 66 65 64 64 64 65 65 66 65 65 65 65 64 63 63
30 27 22 24 23 22 24 24 24 22 21 21 24 45 58 59 59 60 59 62 63 64 64 63 63 62 62 65 67 67 68 66 66 65 65 64 63 63 64 64 64 65 64 64 64 63 63 61 59
33 27 28 27 25 24 24 24 24 26 21 24 23 26 57 58 58 58 59 60 61 63 63 63 61 61 61 65 66 66 66 66 66 65 64 63 62 63 64 63 64 64 63 63 63 61 59 58 58
30 30 29 29 28 29 27 26 23 22 23 26 23 27 55 57 57 58 58 57 57 58 61 61 61 60 61 64 64 64 63 64 64 64 62 62 62 61 63 63 63 63 62 62 62 58 57 57 56
29 31 30 30 28 27 27 27 26 23 25 28 26 26 45 55 57 57 57 57 57 57 59 60 61 61 61 62 62 63 63 63 62 62 62 61 61 61 62 63 62 63 63 62 57 56 56 55 54
23 23 23 28 29 29 28 28 28 26 28 26 25 24 27 53 55 56 55 55 56 57 57 59 60 61 62 62 62 62 63 63 62 62 61 61 61 62 62 63 62 62 61 61 56 55 54 54 54
26 22 25 27 28 27 28 25 25 27 27 26 25 24 24 43 51 54 55 55 55 56 58 59 59 60 62 62 61 62 62 63 62 62 61 61 60 61 63 62 61 61 61 59 55 54 54 53 53
28 27 25 27 27 27 26 23 27 27 26 25 24 24 25 25 41 50 53 54 55 56 58 59 60 59 61 62 61 61 61 62 62 62 61 61 61 62 62 61 61 61 60 58 55 53 53 53 53
25 22 25 26 27 26 26 23 26 27 26 25 26 27 28 29 28 35 46 50 53 55 58 58 59 59 59 58 60 61 61 61 61 62 61 61 62 61 61 61 60 61 58 57 55 53 54 52 52
21 25 27 24 25 26 26 25 26 25 22 23 23 27 29 28 29 29 27 32 51 55 58 58 58 58 57 57 58 59 60 61 61 61 61 62 62 60 60 59 58 58 57 56 55 53 54 52 52
23 23 24 24 25 23 23 22 22 22 21 19 25 27 27 29 30 35 43 36 54 56 57 58 58 57 57 58 58 58 59 59 60 61 62 62 62 60 59 57 56 57 55 54 53 53 53 53 53
23 23 23 22 22 23 22 21 20 17 17 20 21 26 29 30 30 35 52 53 55 56 57 58 57 57 58 58 59 57 57 57 59 61 62 62 62 60 59 57 56 55 55 53 52 52 52 52 52
19 20 17 19 14 11 13 9 9 16 22 26 28 29 30 30 30 31 50 54 54 55 56 57 57 57 57 57 57 55 55 55 56 57 59 61 61 60 59 57 56 54 55 53 52 52 51 51 52
15 15 15 13 8 4 15 5 9 13 16 22 25 28 27 28 35 31 43 53 54 55 56 56 56 57 57 56 55 54 53 52 54 55 57 58 60 60 59 57 55 54 53 52 50 50 51 51 50
12 15 13 12 10 8 19 12 15 18 18 20 22 25 31 39 38 34 37 52 54 55 55 56 56 56 56 55 55 54 53 53 54 54 55 56 57 60 59 57 56 52 52 52 49 50 50 51 51
19 18 18 19 15 15 14 12 15 16 20 27 29 35 41 40 40 40 38 52 54 55 55 55 55 55 55 54 54 53 52 53 53 53 54 55 56 58 60 58 56 53 54 53 49 52 51 52 51
18 19 18 20 21 16 19 19 16 22 28 35 38 40 41 41 41 41 41 52 54 54 54 54 54 54 54 54 54 52 51 52 52 52 53 54 55 56 58 58 56 53 55 54 52 52 52 52 51
18 18 19 15 17 17 26 23 24 33 40 41 41 40 41 40 41 42 42 47 54 54 54 55 54 54 54 54 53 52 52 52 52 53 53 54 54 55 57 57 54 54 55 54 54 53 53 52 52
18 18 20 18 21 21 20 25 25 36 39 40 41 41 40 40 41 42 42 47 53 54 54 54 53 54 54 53 52 52 52 52 52 52 53 54 54 55 55 56 55 55 55 54 54 52 52 53 52
15 20 19 23 18 15 18 21 21 30 34 40 41 41 43 42 42 43 42 51 53 54 54 54 53 53 53 53 52 52 52 52 52 52 52 53 54 55 55 55 55 55 55 54 54 54 54 53 53
17 17 21 21 22 16 14 17 28 33 36 40 42 43 44 43 42 42 45 52 53 53 53 54 53 53 53 53 52 51 51 51 52 51 52 52 54 54 54 54 54 54 54 54 54 53 53 53 53
20 22 20 19 19 24 20 18 36 34 39 42 44 43 44 45 44 44 47 51 53 53 53 53 53 53 54 53 52 51 51 51 51 51 51 51 51 53 54 54 54 54 54 54 53 53 53 52 52

GFSSGP_sfc_dewp_108.txt.gz
Dewpoint
54 48 34 28 18 13 7 5 9 17 19 21 22 30 29 29 29 27 55 60 62 63 67 69 69 71 72 72 73 73 73 73 73 73 73 73 73 73 73 72 72 72 72 71 71 71 72 71 71
45 36 29 23 10 4 3 8 13 14 19 22 25 26 28 26 37 48 56 62 62 64 68 69 69 71 72 72 73 73 73 73 73 73 73 73 73 73 73 72 72 72 72 72 71 71 71 71 70
41 31 20 14 9 3 2 7 13 21 23 22 23 27 27 29 43 47 53 63 62 64 67 68 69 71 71 72 72 73 73 73 73 73 73 73 73 73 72 72 71 72 72 71 71 70 71 70 69
32 26 22 13 7 11 10 10 21 20 21 22 20 21 32 45 46 49 58 61 62 63 65 69 69 70 71 71 72 73 73 72 72 72 73 73 73 73 72 71 71 70 70 71 71 71 70 69 68
32 24 13 11 7 6 16 14 22 21 18 21 20 19 27 48 53 52 59 62 62 64 66 70 69 70 71 71 72 72 72 72 72 72 72 72 72 71 71 70 70 70 70 70 71 70 69 68 68
22 22 12 7 7 9 17 15 19 19 16 20 22 22 24 51 55 56 61 64 64 67 69 70 70 70 70 71 71 71 71 71 71 71 72 72 71 70 70 69 69 69 69 70 70 69 68 68 68
25 18 12 9 7 7 12 16 18 16 16 19 24 21 30 46 57 61 62 65 68 68 69 71 71 70 69 69 70 69 69 70 70 70 70 71 70 69 69 69 69 67 68 68 69 69 67 67 67
23 21 17 12 12 10 13 18 15 13 14 24 28 25 31 45 60 62 62 64 67 67 68 69 70 70 70 70 68 68 68 69 69 70 69 68 68 68 68 68 67 67 68 68 68 67 67 66 66
26 20 17 16 14 13 17 16 21 22 22 22 24 26 37 52 59 61 61 62 64 65 65 67 68 69 69 69 69 68 68 68 68 69 68 66 69 67 68 66 66 67 67 67 67 67 66 65 64
24 20 20 19 19 18 16 17 18 19 18 21 23 30 42 51 54 57 58 59 61 63 64 64 67 67 68 66 69 69 69 69 69 69 68 68 67 67 64 65 66 66 66 66 66 66 65 64 64
26 21 23 22 20 19 17 17 19 18 14 19 22 24 29 40 45 51 53 55 57 59 61 63 67 68 68 66 65 68 70 69 70 69 69 68 68 68 67 67 64 64 65 62 66 66 65 64 64
25 23 24 23 22 20 19 18 18 19 20 20 23 28 30 31 40 43 46 51 53 57 60 64 66 67 68 65 65 65 68 70 69 69 70 68 67 67 67 67 63 63 62 64 64 65 65 64 63
25 26 24 26 24 23 23 22 22 22 24 27 26 28 30 31 33 39 43 45 51 56 60 63 66 68 67 67 64 64 66 68 69 68 69 69 66 66 66 66 66 63 64 65 64 65 63 62 62
22 23 24 25 26 25 26 24 25 26 29 28 29 28 27 29 31 34 41 46 50 54 58 63 65 68 67 67 67 66 66 65 67 68 67 68 67 66 66 66 64 64 64 65 65 64 63 62 61
20 19 19 20 21 21 22 21 21 21 23 24 24 25 26 29 30 32 37 45 49 51 55 61 65 67 67 66 66 65 64 65 66 66 66 67 67 66 66 66 65 64 65 65 65 63 63 62 60
20 20 17 19 20 21 22 21 24 26 27 27 28 28 30 30 29 30 36 39 42 46 50 57 59 64 66 65 64 63 64 65 65 65 65 66 65 66 65 65 65 65 65 64 62 60 59 59 59
21 17 19 21 24 23 22 21 22 24 25 26 28 28 28 29 29 30 32 33 37 40 46 52 59 62 64 65 64 64 65 65 65 64 64 64 64 65 64 64 64 64 62 61 60 59 58 58 58
16 19 21 22 23 25 24 23 24 26 27 28 28 29 29 29 28 29 30 34 33 35 41 47 54 60 62 65 65 63 64 64 64 64 63 64 64 63 64 64 64 62 59 58 58 58 58 57 57
16 14 13 14 21 23 23 22 22 24 27 28 28 28 28 28 27 25 35 41 43 45 46 46 52 59 60 63 62 61 62 62 62 64 63 63 63 64 63 63 63 61 58 57 58 57 56 57 58
19 20 15 12 22 24 20 19 20 21 22 23 21 19 19 20 17 30 39 44 46 49 50 51 54 58 60 61 61 61 62 62 62 63 64 63 63 63 62 62 62 60 58 58 58 57 56 56 57
21 21 19 12 14 19 18 14 13 13 11 11 12 15 16 21 28 36 41 44 48 48 51 51 54 57 60 61 61 61 62 62 62 62 62 62 62 62 62 62 61 60 59 57 57 57 55 54 56
15 16 14 17 23 12 10 3 7 9 12 14 17 22 25 34 39 40 42 44 46 49 51 53 54 56 58 60 60 60 59 58 59 60 61 62 62 62 62 62 61 59 59 57 56 57 56 55 55
14 13 15 17 16 13 6 4 3 14 11 15 20 27 37 40 42 42 43 44 45 48 54 55 55 56 58 59 60 60 59 58 59 59 59 60 62 62 62 60 58 57 57 57 57 57 56 56 55
18 17 16 15 13 9 8 3 4 10 14 19 30 37 39 41 41 41 42 43 44 48 52 56 56 56 58 59 60 60 60 58 57 57 58 58 60 61 61 59 58 57 57 56 57 57 56 56 56
15 17 18 18 16 11 14 11 10 17 22 25 32 35 37 39 39 40 40 42 44 47 50 54 55 55 57 59 59 60 60 59 58 57 57 56 57 59 60 58 58 57 56 57 56 57 56 56 56
17 18 12 11 14 13 18 14 13 18 28 35 33 34 36 37 39 39 40 42 44 46 49 52 54 54 56 57 58 58 59 58 57 56 55 55 56 58 60 58 58 57 57 57 57 56 57 57 56
19 19 18 19 19 18 15 19 27 32 33 35 33 33 34 37 38 40 42 45 46 48 51 53 54 54 55 57 57 57 58 58 56 57 56 56 57 57 59 58 57 57 56 55 55 55 56 57 56
15 17 18 18 9 6 4 11 12 29 30 33 32 32 36 39 42 43 43 46 46 47 51 53 55 54 55 56 56 56 58 57 57 56 55 56 57 57 57 59 57 56 55 55 55 54 54 55 56
12 17 18 16 15 7 7 12 22 23 28 30 31 35 39 43 43 43 44 45 44 47 48 53 54 54 55 55 55 57 57 57 56 56 55 56 57 56 56 58 58 56 55 55 54 53 54 54 55
10 11 16 15 13 16 13 11 29 32 32 34 36 40 42 44 42 42 43 44 43 44 43 51 54 54 55 55 56 56 56 56 55 55 55 56 56 56 56 56 56 55 55 55 53 52 53 53 53

GFSSGP_sfc_dewp_111.txt.gz
Dewpoint
53 45 40 27 17 11 6 5 2 9 15 17 20 25 24 24 26 33 50 56 54 60 66 69 71 72 72 72 73 73 73 73 73 73 73 73 73 73 73 73 72 73 73 72 71 71 71 71 71
40 36 33 21 13 6 6 4 6 6 17 22 23 23 25 27 30 46 51 55 54 60 66 67 70 71 72 73 73 73 73 73 73 73 73 73 73 73 73 72 71 72 73 72 71 71 71 71 71
53 34 21 13 12 4 3 4 6 12 20 21 20 22 24 27 33 40 51 53 55 59 64 67 70 71 72 73 73 73 73 73 73 73 73 73 73 73 73 71 71 72 72 72 71 71 71 71 70
36 28 21 16 11 10 8 7 6 17 18 20 20 22 26 40 38 42 53 53 55 58 60 68 69 70 71 72 73 73 73 72 72 72 73 73 73 73 72 71 71 72 72 72 72 71 70 69 69
30 20 14 10 8 7 7 8 12 16 15 20 20 19 26 38 42 46 53 55 56 60 64 70 69 70 71 72 72 73 73 72 72 72 72 72 73 72 71 71 71 71 71 71 70 70 69 69 68
25 21 16 11 10 9 8 13 12 17 18 18 22 21 24 40 44 50 56 57 59 62 66 71 70 70 71 71 71 71 71 72 72 72 72 72 72 71 71 71 71 70 70 70 70 69 69 68 68
26 20 15 14 11 10 9 15 13 17 17 16 21 20 25 38 45 53 56 59 63 65 68 71 71 70 70 70 70 70 70 71 71 71 71 70 70 69 70 70 69 69 69 69 70 69 68 68 68
25 23 20 18 15 12 11 12 13 11 13 16 21 19 24 42 54 56 56 59 62 65 67 69 70 70 69 70 69 69 69 69 70 70 70 69 68 69 69 68 68 68 68 69 69 68 67 67 67
26 23 20 20 19 17 15 13 16 15 8 16 20 22 35 44 52 55 55 57 61 63 64 66 67 68 69 69 69 69 69 69 69 70 69 68 68 67 67 67 67 67 67 68 68 67 66 66 65
25 24 23 22 21 20 17 16 15 15 14 17 23 28 35 41 47 52 52 55 58 60 60 62 65 66 67 65 69 68 68 69 68 68 69 70 68 67 66 65 67 66 66 66 67 66 65 65 66
26 24 26 23 22 21 19 18 17 16 16 16 21 24 29 34 40 46 48 48 54 57 57 58 64 67 66 64 64 65 68 67 68 69 68 68 67 69 67 68 68 68 65 62 64 65 64 64 65
25 26 26 25 24 22 21 21 20 18 20 18 17 22 26 28 33 37 42 45 46 52 56 58 61 65 67 63 62 62 67 67 68 67 71 70 70 68 67 65 66 66 64 62 64 66 65 65 64
24 25 26 26 24 24 24 23 22 22 21 22 22 22 25 29 28 33 36 38 40 45 53 58 62 65 66 67 63 63 67 67 67 67 68 68 66 67 66 66 65 64 63 63 65 65 65 64 64
24 25 24 25 26 25 25 24 24 24 26 25 25 26 25 26 26 28 33 36 39 42 48 58 61 66 66 66 66 65 65 67 68 68 67 69 67 67 69 67 66 65 65 65 66 66 63 64 64
20 19 20 22 23 25 26 25 24 25 26 26 27 27 27 26 26 27 30 35 39 40 44 58 62 67 67 65 65 65 63 64 65 66 68 68 68 67 67 67 67 66 65 65 66 65 65 64 63
19 20 18 19 20 21 22 21 23 24 25 24 24 26 27 26 26 27 29 30 33 40 44 49 57 64 67 67 65 65 63 64 63 65 67 67 68 68 66 65 66 67 67 66 65 65 63 63 61
22 18 19 19 19 19 20 20 21 22 25 26 27 28 28 28 29 31 31 31 32 35 42 46 57 61 65 67 65 66 65 63 63 63 64 66 66 67 65 63 65 67 65 65 64 62 62 60 60
20 20 19 19 19 19 20 21 22 22 24 25 26 28 28 29 29 31 32 33 32 34 39 44 49 58 63 64 66 63 63 63 63 63 64 65 65 65 65 64 65 65 64 63 62 60 60 59 59
20 20 19 20 20 24 25 23 22 23 25 27 28 29 29 30 30 31 33 35 36 41 41 41 44 53 60 60 61 63 63 63 63 62 63 63 63 64 64 63 63 64 62 60 60 59 59 58 59
20 20 22 21 20 20 20 21 21 22 23 24 26 28 28 28 28 30 29 34 42 44 45 47 47 48 52 57 59 64 62 62 63 63 63 63 64 63 63 63 63 61 60 60 59 58 57 57 59
17 19 21 17 18 20 18 18 17 16 17 19 23 24 22 21 20 23 29 40 44 46 47 47 48 49 53 57 61 63 63 62 62 63 63 63 63 62 64 63 63 61 60 58 58 57 56 55 57
13 18 19 19 20 20 23 17 16 16 11 14 16 17 16 17 20 25 35 39 43 46 48 51 50 50 52 58 60 61 60 59 60 61 61 62 63 62 62 63 62 61 59 58 58 59 57 56 55
14 20 22 21 19 18 15 16 16 12 8 11 15 17 22 28 34 35 37 38 39 42 47 52 54 53 53 55 60 61 60 60 60 60 61 61 62 62 62 62 62 61 59 58 57 57 56 56 55
18 17 17 17 17 14 15 11 9 8 12 10 13 22 32 35 36 35 37 38 38 42 48 51 53 54 54 56 59 61 60 60 58 59 59 59 62 62 62 62 62 61 60 58 57 57 57 56 55
19 21 18 17 16 15 13 10 10 10 14 17 24 30 34 35 35 36 35 36 38 42 46 48 48 52 55 57 57 61 61 62 60 60 59 59 59 61 62 61 61 60 60 59 57 57 56 56 56
19 18 23 17 17 14 12 12 10 11 17 24 28 31 32 34 36 35 36 40 42 43 46 48 49 49 54 56 57 60 61 60 60 59 58 58 58 59 60 60 59 59 59 59 58 57 56 56 56
18 14 17 19 22 22 18 15 22 17 21 29 28 27 29 31 33 38 40 43 45 45 46 48 49 50 52 55 58 59 60 60 59 60 59 57 57 56 59 60 59 59 58 58 57 57 56 56 56
17 16 16 17 11 10 8 13 16 21 25 28 27 28 30 33 37 40 41 43 44 45 46 48 51 51 51 55 57 58 59 60 60 60 58 57 56 58 60 59 58 58 57 57 57 56 56 56 56
11 15 16 13 12 9 10 12 24 24 26 28 28 29 31 35 39 39 40 42 43 44 44 46 49 52 52 56 57 58 58 59 59 58 58 57 57 57 57 59 58 57 56 56 55 55 56 56 56
6 13 15 12 11 12 15 24 24 27 27 28 29 32 36 40 44 43 42 43 43 43 43 44 45 53 56 56 57 57 57 58 58 58 56 57 57 56 56 57 58 57 56 55 54 54 54 54 55

GFSSGP_sfc_dewp_114.txt.gz
Dewpoint
55 46 42 38 22 18 10 8 8 3 9 16 19 18 22 26 34 39 52 57 63 64 68 69 71 72 72 72 73 73 74 73 73 73 73 73 73 73 73 73 73 73 73 72 72 71 71 71 71
39 34 34 30 18 10 8 8 3 4 14 20 21 22 25 26 40 47 53 55 62 66 67 69 71 72 72 73 73 74 74 73 73 73 73 73 73 73 73 72 72 73 73 72 71 71 71 71 71
45 41 31 22 16 13 9 4 6 12 19 20 19 19 23 24 36 45 53 56 61 64 65 69 70 71 72 73 73 73 73 73 73 73 73 73 73 73 73 72 71 72 73 72 71 71 71 71 70
45 42 28 18 13 10 11 10 7 11 16 18 17 20 22 41 36 49 51 54 59 61 66 68 70 71 72 73 73 73 73 72 73 73 73 73 73 73 72 71 71 72 73 72 72 71 70 70 69
42 28 20 14 11 12 13 9 8 8 15 16 17 17 26 39 39 50 52 55 60 66 70 69 69 70 71 73 73 73 73 72 72 73 73 73 73 72 72 71 71 71 71 71 70 70 70 69 69
33 28 20 15 13 12 10 10 9 13 15 16 19 19 28 37 41 51 56 60 65 71 71 69 70 70 71 72 72 72 72 72 72 72 72 72 72 71 71 71 71 70 70 70 69 69 69 68 68
32 25 21 17 15 14 12 13 12 13 16 15 19 19 30 40 46 54 57 63 67 70 71 70 70 70 70 70 70 70 71 71 71 71 71 71 70 70 70 70 70 69 69 69 69 68 68 68 68
30 27 21 18 16 14 15 14 13 13 11 16 16 17 27 39 49 52 56 59 65 67 71 70 70 70 70 70 69 69 70 70 70 71 70 70 69 69 69 69 69 68 68 68 69 68 67 67 67
30 27 23 22 20 20 19 17 16 15 11 10 16 20 40 46 53 53 57 58 63 66 67 70 69 69 70 69 69 69 69 69 69 70 70 68 70 69 69 68 67 68 68 68 69 67 67 66 66
28 28 25 24 23 23 21 20 17 15 13 14 16 26 35 42 48 52 51 56 61 63 64 66 68 68 69 66 69 69 69 69 70 70 70 69 70 69 67 67 67 67 66 67 67 67 66 65 65
25 25 26 25 24 23 22 21 19 16 15 19 20 24 30 35 41 50 50 51 58 61 61 62 68 69 68 66 68 68 68 68 68 69 69 70 69 68 67 68 67 67 66 65 66 65 65 65 65
22 26 26 25 25 25 22 22 20 20 19 21 19 26 28 31 38 42 46 48 51 57 58 59 65 68 68 66 66 67 66 68 68 68 69 69 69 68 68 67 67 66 66 64 64 64 63 64 64
21 23 25 26 25 25 25 24 23 22 24 25 22 23 28 31 31 36 39 43 46 52 57 58 63 67 68 69 66 67 68 68 68 68 69 68 68 68 68 67 66 65 65 63 64 64 64 64 64
21 21 23 24 25 26 25 24 24 24 27 25 25 23 23 27 28 31 34 38 44 46 54 60 61 66 67 68 68 66 69 68 68 68 68 69 68 68 67 67 66 66 66 65 65 65 64 64 64
23 22 24 23 24 25 26 24 24 26 26 25 25 26 26 27 27 29 32 40 44 44 47 61 63 66 67 68 67 68 67 68 67 68 68 68 69 68 67 67 66 66 66 64 65 64 64 64 63
19 21 20 22 21 23 23 23 26 26 26 26 26 27 28 29 29 28 32 32 36 40 44 59 60 66 67 67 67 65 66 67 68 67 67 68 68 68 67 66 66 66 65 65 64 64 63 63 62
21 18 20 20 21 20 21 21 24 26 25 26 26 27 28 29 29 31 33 32 31 35 47 51 63 67 68 68 67 67 67 67 65 66 66 67 67 67 66 65 65 66 65 64 64 63 62 62 62
18 19 19 19 20 21 19 20 21 22 22 24 26 28 28 28 28 30 32 32 33 35 46 52 61 64 68 67 67 67 66 65 65 65 65 66 64 67 66 64 65 65 65 64 63 62 63 61 61
19 18 19 21 21 22 22 21 19 21 23 25 27 28 30 32 32 35 39 42 46 46 46 48 52 63 65 65 66 65 65 64 64 64 65 64 64 66 65 64 64 64 63 62 62 61 60 59 60
16 16 18 21 22 26 27 28 24 23 25 25 26 28 29 31 31 34 37 44 44 44 50 51 51 52 58 62 62 64 64 64 63 64 64 64 65 65 63 64 63 63 62 61 61 59 58 58 60
12 14 19 19 26 31 28 27 20 23 24 25 26 28 29 30 31 32 34 44 49 49 52 50 50 51 54 54 60 63 65 64 62 62 62 64 64 64 64 63 63 62 61 60 60 59 57 56 58
10 12 16 19 24 28 26 17 18 19 21 20 20 23 28 30 28 27 34 43 47 50 52 51 53 53 53 57 57 63 62 61 61 62 62 63 64 63 63 63 62 61 61 59 59 59 58 57 56
8 13 16 19 22 26 23 19 19 21 22 24 21 21 24 27 25 29 38 41 44 48 52 53 55 55 55 56 59 63 61 61 61 61 61 62 62 62 62 63 62 60 60 59 58 58 57 57 56
10 16 20 21 22 20 21 19 18 19 23 24 19 17 25 33 37 37 40 41 43 48 51 53 53 51 56 57 59 62 61 60 60 61 60 61 62 62 63 62 62 61 59 59 58 58 57 57 57
16 18 18 20 19 19 20 18 19 17 18 20 19 19 35 37 38 37 37 38 44 47 50 50 50 49 52 58 58 61 62 61 60 60 61 60 61 61 62 62 61 61 59 58 58 58 57 56 56
18 18 20 13 16 16 16 16 16 18 16 17 26 34 35 36 39 39 40 44 45 47 47 48 47 48 50 52 57 59 62 61 60 61 60 60 60 60 62 62 61 60 60 59 58 58 57 56 56
18 19 23 21 26 24 16 16 18 16 21 26 30 33 33 34 37 39 42 45 45 45 47 48 47 48 50 52 53 59 60 61 60 61 61 60 59 59 61 61 60 59 59 59 58 57 57 56 56
19 22 21 21 17 18 28 16 21 18 26 30 32 30 31 33 38 40 41 44 44 45 47 47 46 46 49 51 53 58 58 59 60 61 60 59 59 59 60 60 59 58 58 58 57 57 57 56 56
21 17 19 19 18 13 17 25 30 25 30 37 29 32 40 42 43 43 43 43 44 45 44 44 44 44 46 48 54 57 57 59 60 60 60 59 59 59 59 59 59 58 57 57 57 56 56 55 55
15 16 18 19 16 15 18 21 34 33 29 30 43 42 44 43 42 42 42 42 42 43 43 42 42 43 44 46 55 57 59 58 59 60 59 59 57 58 59 59 58 57 56 56 56 55 56 55 55

GFSSGP_sfc_dewp_117.txt.gz
Dewpoint
55 51 45 40 31 21 16 14 15 12 9 20 24 22 27 34 42 44 62 65 67 69 70 71 71 72 72 73 73 73 73 74 73 73 73 73 73 73 73 73 73 74 74 73 72 71 71 71 71
47 42 37 34 23 16 14 15 13 10 20 23 22 22 28 39 48 55 60 64 67 68 69 70 71 71 72 72 73 73 74 74 73 73 73 73 73 73 73 72 72 72 73 73 72 71 71 71 71
43 40 35 30 23 17 15 13 14 20 22 21 21 20 29 40 51 52 61 65 65 67 69 70 70 71 72 72 73 73 73 73 73 73 73 73 73 73 73 72 72 73 73 73 72 72 71 71 70
38 44 41 22 19 18 16 16 14 16 21 19 19 20 31 43 50 54 62 63 64 66 68 69 69 71 72 73 73 73 72 71 72 73 73 73 73 73 72 71 71 73 73 73 72 72 71 69 69
38 40 26 19 17 16 15 14 14 11 17 21 18 20 34 49 51 55 60 62 63 67 68 69 69 70 72 73 73 73 71 71 72 72 73 73 73 72 71 71 71 71 71 72 71 71 70 69 68
38 33 23 20 18 17 16 15 13 13 18 22 20 24 36 49 49 53 58 64 68 67 68 69 70 70 71 72 72 72 71 71 72 72 72 72 72 71 71 70 71 71 70 70 70 69 69 69 68
38 32 25 23 21 19 17 17 17 17 18 19 23 20 35 46 51 56 61 69 69 69 68 68 69 70 70 70 70 70 71 71 71 71 71 71 70 70 71 70 70 69 69 69 69 69 68 68 68
36 33 30 27 21 19 18 17 16 14 15 19 19 18 22 43 53 58 61 68 69 69 68 68 68 68 67 68 69 69 70 70 69 70 70 70 69 69 69 69 69 69 68 68 68 68 68 67 67
32 30 27 27 25 24 22 21 21 17 15 15 22 22 47 51 54 56 60 63 66 69 69 68 68 68 67 67 69 69 70 69 69 70 68 69 69 69 69 68 68 68 67 68 67 67 67 66 66
30 29 28 28 26 26 25 23 22 15 14 15 24 43 44 50 52 54 57 60 63 65 68 68 68 68 68 68 68 67 69 69 69 69 68 69 69 68 68 68 67 67 67 67 67 67 66 65 64
25 27 29 28 28 27 25 24 23 17 15 17 20 37 41 41 51 51 55 60 61 63 66 68 68 68 68 67 67 68 68 68 68 68 68 67 69 68 67 67 66 66 66 66 66 65 65 64 63
20 23 26 27 27 26 25 25 25 23 19 22 19 32 38 39 42 51 50 56 60 62 62 66 67 67 67 66 67 67 67 67 67 67 67 68 67 66 66 66 65 65 64 64 64 64 63 64 63
15 19 21 23 26 26 26 25 25 25 27 28 27 27 28 35 37 40 48 50 60 60 60 63 66 67 66 65 67 67 67 67 67 67 67 68 67 66 66 65 65 65 64 63 64 63 63 63 63
22 20 20 21 22 24 26 25 26 26 28 26 26 25 25 31 31 30 31 33 43 59 59 60 63 66 65 65 65 65 66 67 67 67 67 67 67 66 66 65 65 65 65 64 64 63 63 63 62
22 21 22 23 20 22 24 24 24 26 27 27 26 25 26 26 28 29 29 31 34 45 57 58 63 65 65 64 66 65 67 67 67 67 67 67 67 66 66 65 64 65 64 63 64 63 62 62 63
5 14 17 20 23 22 23 21 25 27 26 25 26 25 26 26 27 27 29 29 32 36 53 58 62 65 66 65 64 65 67 67 66 67 67 67 67 67 66 65 64 64 63 63 63 62 62 62 62
6 10 13 18 21 22 22 21 24 26 26 25 26 26 26 26 28 29 29 30 29 36 38 58 62 64 65 66 66 65 65 67 67 66 67 65 67 66 65 65 64 64 63 62 62 61 61 62 61
8 10 12 18 19 21 21 21 22 23 24 25 26 26 26 26 27 28 30 31 29 30 38 58 62 64 65 66 66 65 65 65 65 66 66 65 65 66 65 65 64 64 62 61 62 61 60 61 61
13 15 12 17 20 20 20 20 19 21 21 22 23 24 25 26 27 28 29 30 31 38 44 56 64 65 66 65 65 64 64 64 63 64 65 66 65 66 66 64 64 65 63 62 62 62 61 60 60
13 11 16 18 20 23 22 26 21 26 22 20 21 24 26 30 30 28 28 37 37 42 46 46 58 65 66 65 64 64 64 64 63 63 64 64 64 65 65 65 63 63 62 62 62 60 59 59 61
12 10 12 17 28 31 27 27 28 29 23 23 22 24 28 30 30 32 38 39 42 44 44 45 48 51 60 64 63 63 62 62 61 61 62 63 63 64 64 64 63 62 61 60 60 60 59 57 59
10 10 10 13 16 28 29 20 25 28 23 22 22 22 26 29 31 31 40 42 42 44 48 48 51 51 52 53 59 61 61 59 60 61 61 62 64 64 64 64 63 61 60 60 60 60 59 57 56
12 13 9 12 22 30 28 26 22 22 21 21 23 25 22 27 25 32 39 41 42 45 48 50 51 51 52 53 55 61 60 61 60 60 60 60 63 64 64 63 62 61 60 59 59 59 58 58 57
13 12 13 26 30 27 24 23 20 19 20 21 22 24 25 27 35 38 39 42 46 46 47 47 47 48 50 53 54 61 60 60 59 60 60 61 61 63 62 63 62 61 60 59 59 59 58 58 57
11 8 22 24 25 20 22 20 21 21 21 21 22 24 34 33 35 38 43 44 44 45 45 45 46 46 47 49 51 54 61 60 59 60 60 60 60 61 62 62 62 60 59 59 59 58 58 57 57
13 24 23 19 18 17 18 19 19 22 22 23 22 34 36 35 40 43 43 42 43 44 45 45 44 44 45 48 50 51 53 61 60 60 61 60 60 61 62 62 61 60 59 59 59 58 58 57 57
20 20 25 26 26 24 18 17 19 21 25 28 32 33 35 39 41 41 42 42 43 44 45 44 44 44 44 45 47 48 52 58 60 60 60 61 61 61 62 62 61 60 60 59 58 58 57 57 56
19 21 24 30 23 23 28 19 21 27 32 37 43 41 42 42 42 42 42 43 43 44 44 44 43 42 42 43 44 46 49 52 60 60 59 61 61 61 61 61 61 60 59 59 58 57 57 56 56
23 20 26 30 24 20 25 28 31 33 33 40 44 45 44 41 40 40 40 41 41 41 41 41 41 41 41 41 42 44 46 51 59 59 59 60 60 60 61 60 59 59 58 58 58 57 57 56 56
28 27 23 22 22 21 25 29 38 42 42 44 44 42 41 39 39 39 39 39 39 39 39 39 39 39 40 40 41 43 46 56 58 58 59 60 59 60 59 58 58 58 58 58 57 56 56 55 55

GFSSGP_sfc_dewp_120.txt.gz
Dewpoint
54 49 44 39 27 22 18 18 17 14 13 17 23 27 33 38 40 40 63 65 68 69 70 71 71 72 73 73 73 73 73 73 73 73 73 73 73 73 73 74 74 74 73 72 72 72 71 71 71
46 43 36 33 26 18 16 18 16 15 15 18 24 28 37 45 52 61 61 66 67 69 70 70 71 71 72 72 73 73 73 73 73 73 73 73 73 73 73 73 73 73 73 72 72 72 71 71 71
40 40 32 30 25 19 14 15 13 15 16 21 21 22 34 46 58 59 62 66 68 69 69 70 70 71 72 72 72 73 73 73 73 73 73 73 73 73 72 72 72 72 72 73 72 71 71 70 70
33 43 41 30 23 20 18 16 17 16 15 19 21 20 39 52 56 61 65 66 66 68 68 69 69 70 72 72 73 73 73 72 72 72 73 73 73 73 72 71 72 72 72 73 72 72 70 69 69
38 40 35 26 24 21 20 19 18 16 14 15 19 19 39 52 59 62 63 64 66 67 68 69 69 70 72 73 73 72 72 72 72 72 72 73 73 72 71 71 72 72 72 72 71 71 69 69 68
38 36 26 26 25 20 20 19 19 18 17 18 20 30 39 54 60 60 62 65 66 66 68 69 70 70 71 72 72 71 70 71 71 72 72 72 72 71 71 70 71 71 71 71 70 69 69 68 68
39 34 29 26 22 23 22 24 20 20 19 19 22 25 46 55 58 61 63 66 66 66 67 68 69 70 70 70 70 69 70 70 70 71 71 71 70 70 70 70 70 70 70 70 69 69 68 68 68
38 36 33 30 27 24 25 24 21 19 13 20 21 28 45 49 56 64 66 67 66 66 67 67 67 68 69 70 69 69 69 69 70 70 70 69 69 69 69 69 70 70 69 69 69 68 68 68 67
30 29 31 32 30 29 28 26 29 25 15 13 21 20 42 52 61 66 67 67 66 66 66 67 67 66 66 68 70 69 69 69 69 70 70 68 69 68 69 68 68 69 68 68 68 68 67 66 66
26 29 31 31 31 30 29 27 26 22 21 16 42 47 47 56 60 62 64 65 66 65 65 66 66 66 66 68 69 69 70 70 69 69 68 69 68 67 68 68 67 68 67 67 67 67 66 66 64
20 25 30 30 30 30 29 28 28 25 23 21 32 45 51 55 57 59 62 65 65 66 66 66 66 66 66 66 67 68 68 67 68 68 67 67 68 67 67 66 66 66 67 66 66 65 65 64 63
12 12 18 24 27 29 28 28 27 25 25 25 23 45 50 52 55 57 59 61 64 67 67 67 67 67 67 67 66 67 67 67 67 68 67 67 67 66 66 65 65 65 64 64 64 63 63 62 62
23 18 14 15 20 23 27 26 27 26 27 28 28 33 37 49 52 55 57 59 62 64 66 67 67 67 67 67 66 66 66 66 66 67 67 67 67 67 65 65 65 64 63 63 63 62 62 62 62
15 15 20 21 17 18 21 22 25 26 30 28 27 25 27 29 39 48 53 57 60 61 63 66 67 67 66 66 67 66 66 66 66 66 67 67 67 66 65 65 65 64 63 63 63 62 62 62 62
16 12 9 14 21 22 20 20 21 23 27 27 26 26 25 27 32 35 43 52 59 60 61 64 66 67 66 66 67 66 66 67 66 66 66 67 67 66 65 65 64 64 64 63 62 61 61 61 61
17 16 11 8 15 21 22 19 21 22 26 26 26 26 26 26 27 28 29 30 49 59 60 61 65 66 66 65 65 65 66 67 67 66 67 66 66 66 65 65 64 64 64 63 63 62 61 61 61
16 12 11 10 12 18 22 21 22 23 26 26 26 26 26 26 27 27 28 29 29 44 58 59 62 65 65 64 65 65 66 66 66 66 66 67 66 66 66 65 64 63 63 62 62 61 61 61 61
11 11 11 9 7 15 17 21 22 24 25 25 26 26 27 27 27 28 29 29 30 29 48 58 61 63 65 65 64 65 66 66 66 66 66 66 67 66 66 65 64 64 62 61 61 61 58 61 62
20 18 14 13 14 14 10 18 20 22 24 25 26 26 26 27 28 28 30 30 31 30 38 57 59 62 65 65 64 63 64 65 65 66 66 66 66 66 65 65 65 65 63 61 61 61 61 61 61
16 20 23 18 14 13 15 14 19 20 22 23 23 24 26 26 27 28 29 30 35 39 44 58 60 63 64 65 65 65 64 63 64 65 65 66 65 65 66 65 64 65 63 61 61 61 60 59 61
19 16 18 22 14 13 28 27 25 29 23 23 23 23 24 25 27 28 28 36 43 45 52 62 65 65 65 65 64 63 62 61 61 61 63 65 65 65 65 65 64 64 63 62 62 61 60 58 60
25 19 20 22 14 13 30 23 24 26 28 24 22 23 23 27 30 33 39 42 43 46 50 51 55 57 57 61 62 60 62 61 61 62 63 63 64 64 64 64 63 63 63 62 61 61 60 59 57
29 26 20 23 13 13 21 30 29 25 25 27 23 23 25 24 30 41 44 45 46 45 46 47 47 48 52 54 56 61 60 61 60 60 61 62 63 64 64 64 63 63 62 61 61 60 59 59 57
32 25 24 18 18 13 16 27 24 20 22 24 23 23 25 39 43 43 44 44 44 45 45 45 45 45 48 50 52 56 58 59 59 59 60 60 61 64 64 64 63 62 61 60 60 59 59 58 58
30 23 17 15 16 21 26 29 26 24 22 23 25 30 35 40 42 42 43 43 44 43 43 43 44 44 45 45 47 50 51 53 59 60 61 61 60 59 62 63 62 62 61 60 60 59 59 58 58
29 21 14 14 18 20 26 22 20 23 24 24 30 40 41 41 41 42 42 43 43 43 43 42 42 42 43 43 43 45 47 49 52 59 60 61 61 61 62 62 62 62 61 60 59 59 59 59 58
21 16 16 23 28 21 18 17 17 32 34 30 39 40 41 41 42 42 42 43 42 42 42 42 41 41 41 42 42 43 44 45 49 52 60 61 60 60 60 62 62 61 60 59 59 59 58 58 57
28 23 23 27 21 18 26 22 30 39 41 41 40 39 39 39 39 39 39 40 40 40 40 40 39 39 39 39 40 41 41 43 46 49 53 60 61 60 61 62 61 61 60 59 59 58 58 57 57
29 25 30 30 29 24 24 31 39 40 42 41 39 39 39 38 38 37 37 38 38 38 37 37 38 37 38 38 39 39 40 41 45 47 52 59 60 61 61 62 61 60 59 59 58 58 57 57 56
30 31 30 25 28 29 27 29 41 41 41 41 39 39 39 38 37 36 35 35 36 36 36 36 36 36 38 38 38 39 39 41 44 47 55 59 60 60 61 61 61 60 59 59 58 57 57 56 56

GFSSGP_sfc_dewp_123.txt.gz
Dewpoint
51 46 43 38 25 24 19 16 18 13 13 14 19 24 28 40 42 38 62 64 67 68 70 71 72 72 72 72 72 72 73 73 73 73 73 73 73 73 73 73 73 73 73 72 72 72 71 71 71
44 41 35 33 19 15 7 19 15 15 16 18 23 31 38 43 54 61 62 66 67 68 69 70 71 72 72 72 72 72 73 73 73 73 73 73 73 73 73 73 73 73 73 72 72 71 71 71 71
42 40 31 30 25 13 5 15 16 15 18 17 19 21 40 47 59 61 64 67 68 68 69 70 70 71 72 72 72 72 73 72 72 72 73 73 73 73 73 73 72 73 73 72 71 71 70 70 69
32 39 37 31 25 25 18 16 18 18 18 17 20 18 41 54 59 60 66 68 68 68 69 69 69 70 72 72 72 72 72 72 72 72 73 73 72 72 72 72 71 73 73 72 71 70 70 69 69
41 40 30 30 30 27 22 21 20 18 17 17 18 16 39 54 61 64 65 66 66 68 68 69 69 70 71 72 72 72 72 71 71 72 72 72 72 72 71 71 71 71 72 72 72 70 69 68 68
38 37 32 28 24 24 24 22 21 20 21 20 21 22 43 57 61 62 64 65 66 67 68 68 70 70 71 71 72 71 71 71 71 71 72 72 72 71 70 71 71 71 71 71 70 69 69 68 68
38 33 32 30 23 24 24 25 22 22 22 20 23 24 46 59 59 61 63 65 65 66 67 68 69 70 70 70 70 69 70 70 70 70 70 71 70 70 70 70 71 70 70 70 69 68 68 68 68
40 37 32 30 28 27 28 26 23 22 21 19 23 41 47 54 60 65 65 64 64 66 66 68 69 69 70 70 69 68 69 69 69 70 70 69 69 69 69 69 70 70 70 70 69 68 67 67 67
32 30 29 29 29 28 30 29 30 28 25 25 21 32 45 58 64 64 63 63 63 64 66 67 68 68 68 69 69 69 69 69 69 69 69 68 68 68 69 68 68 69 68 68 68 68 67 66 66
23 25 26 32 32 32 33 32 30 26 27 25 28 38 52 62 62 61 61 60 62 63 64 66 67 66 67 67 69 69 69 70 70 70 69 68 67 67 68 68 68 68 67 67 67 67 66 66 64
17 18 21 29 32 32 32 30 30 28 28 29 28 27 52 60 61 59 60 60 60 62 64 65 66 66 67 67 67 67 68 68 69 68 67 68 67 67 67 66 67 66 67 66 65 65 64 64 63
12 11 13 19 25 25 25 30 29 28 28 29 27 29 51 56 60 60 60 61 62 62 63 65 65 65 66 67 66 66 66 66 66 68 66 67 68 67 65 66 65 65 65 64 64 63 63 62 62
15 19 23 21 19 15 16 18 24 25 28 30 29 28 41 54 58 59 60 62 64 63 63 64 65 65 65 65 66 66 65 66 66 66 67 67 67 67 66 64 64 64 63 63 62 62 62 61 61
18 18 16 15 14 11 17 18 20 20 24 27 28 27 28 45 54 57 58 60 64 64 64 64 65 65 65 65 65 65 66 66 66 66 67 67 67 67 65 64 64 63 63 63 63 62 61 61 61
20 17 16 14 12 12 13 17 17 17 20 23 27 27 27 33 40 50 54 57 61 63 65 66 64 64 65 65 64 64 65 65 65 66 66 67 66 66 65 64 64 64 63 62 61 60 60 60 61
19 18 11 7 10 11 17 10 14 22 20 20 22 26 26 26 29 37 46 55 59 60 62 65 66 65 65 65 66 65 65 65 65 65 66 66 66 66 65 64 64 63 63 62 62 61 59 59 60
20 14 11 10 10 10 10 8 10 18 22 22 22 23 26 27 27 28 35 46 54 59 60 63 65 66 66 65 66 66 65 66 66 65 65 65 66 66 65 64 64 63 63 62 62 60 60 60 60
7 11 10 11 11 12 12 12 13 13 19 22 22 22 26 27 26 27 28 30 38 54 59 61 64 65 66 66 65 64 64 65 65 66 66 65 66 66 65 64 63 63 62 62 61 61 60 61 61
17 16 16 18 19 19 16 14 13 15 16 16 23 24 26 27 27 28 28 29 29 34 51 59 61 64 65 65 64 63 64 65 65 66 66 66 66 65 65 65 63 64 63 61 61 60 61 61 62
21 19 18 18 17 19 20 18 15 14 16 15 20 23 26 27 28 28 28 29 30 30 34 55 59 61 64 64 64 64 65 64 65 65 66 66 66 66 65 64 64 64 64 62 61 62 60 61 61
23 23 21 21 22 18 20 19 15 14 18 19 18 23 24 27 27 28 29 30 31 34 39 50 56 59 63 64 64 62 62 61 61 62 64 65 65 66 65 65 64 63 63 62 61 62 61 59 60
21 23 25 31 27 19 18 12 18 20 26 27 20 22 24 24 26 29 42 45 48 49 55 56 57 59 62 63 62 61 61 60 62 63 64 64 64 65 65 64 64 64 64 63 62 63 62 60 59
27 29 32 27 21 18 19 19 19 24 26 27 25 23 24 26 34 44 45 45 45 45 46 47 49 50 52 56 59 60 60 61 61 60 61 62 64 64 64 65 64 64 64 63 63 62 61 60 59
32 30 29 25 23 18 18 19 19 23 25 26 27 26 42 43 43 43 43 43 43 43 43 44 45 45 47 50 50 51 51 54 58 59 60 60 61 63 64 64 64 64 63 62 62 61 61 60 59
31 25 18 16 17 15 17 17 17 22 30 31 33 41 42 42 42 42 42 42 42 42 42 42 43 43 45 45 46 47 49 50 50 56 59 60 59 60 62 63 63 63 62 62 61 61 60 59 58
31 23 18 10 17 18 24 18 26 33 27 38 40 41 41 42 42 41 41 41 41 40 40 40 40 40 41 42 42 43 45 46 49 53 57 60 61 61 62 62 62 62 62 60 60 60 60 59 58
28 28 24 19 27 24 25 26 35 39 39 40 41 41 39 39 40 39 40 40 39 38 39 39 38 39 39 40 41 41 42 42 44 46 49 52 60 61 61 61 62 62 61 61 60 60 59 59 58
33 29 23 26 21 19 23 27 32 37 35 37 37 37 37 37 36 37 37 37 36 36 37 37 37 37 37 38 39 39 40 41 42 44 47 49 52 60 60 60 61 61 61 61 60 59 59 58 58
32 32 32 31 30 25 22 28 39 38 39 37 36 36 35 35 34 34 35 35 35 35 35 35 35 36 36 37 37 38 38 39 40 42 45 47 50 53 60 60 60 61 60 60 59 59 58 58 57
32 33 33 28 26 30 29 30 41 40 38 38 37 36 36 35 34 33 33 33 33 33 34 34 35 35 36 36 36 37 38 39 40 41 43 46 49 54 58 60 60 61 60 59 59 58 58 57 56

GFSSGP_sfc_dewp_126.txt.gz
Dewpoint
49 44 42 34 19 22 12 8 18 12 11 16 18 20 30 41 43 42 61 63 66 68 70 71 72 72 72 72 72 72 73 73 73 73 73 73 73 73 73 73 73 73 72 72 72 71 71 71 71
43 40 35 32 14 2 -4 17 15 15 15 18 19 30 37 40 51 60 62 65 66 68 70 71 71 72 72 72 72 72 73 73 73 73 73 73 73 73 73 73 73 73 73 71 71 71 71 71 71
40 39 27 29 19 1 -4 9 17 17 20 18 17 21 36 43 55 61 63 67 67 68 70 71 71 71 72 72 72 72 72 72 72 72 73 73 73 73 73 73 72 73 73 71 71 71 70 70 70
34 34 34 25 24 23 10 13 17 19 20 18 17 16 23 53 57 61 67 67 67 68 70 70 70 71 72 72 72 72 72 71 71 72 72 73 73 73 73 72 72 73 72 71 70 70 70 69 69
42 37 21 28 27 24 25 23 21 21 20 21 20 17 21 49 63 65 67 67 66 68 68 69 69 71 71 72 72 72 71 71 71 72 72 72 73 72 72 71 72 72 72 72 71 70 69 68 68
33 37 31 25 24 24 25 24 25 22 22 22 22 21 28 56 62 64 66 66 67 67 68 68 70 70 71 71 71 71 70 70 71 71 71 72 71 71 71 71 71 71 72 71 70 69 68 68 68
34 35 30 30 26 25 25 26 24 25 24 21 24 23 32 56 61 63 64 64 65 66 67 67 68 69 70 70 70 70 70 70 70 70 70 71 70 70 70 70 70 71 70 70 69 68 68 68 68
39 35 30 30 27 27 28 28 26 26 23 24 22 27 31 52 61 64 63 63 64 65 66 67 68 68 69 70 69 69 69 69 69 70 69 69 69 69 69 70 70 70 70 69 68 68 67 67 66
37 31 31 29 28 28 29 29 32 30 26 28 25 28 38 57 64 62 61 61 64 65 66 66 67 67 68 68 69 69 69 69 69 69 69 68 69 68 68 68 69 69 69 69 68 67 67 66 66
24 24 21 30 31 31 32 33 32 30 30 30 31 34 42 62 61 59 59 59 61 63 64 65 66 66 67 67 69 69 69 70 70 69 69 68 67 68 68 68 68 68 68 68 67 67 66 65 65
19 17 18 22 25 32 31 28 31 30 28 31 31 31 44 61 60 58 57 56 59 62 64 64 65 66 66 66 67 67 68 68 68 68 69 68 67 67 67 66 67 67 67 66 66 65 64 63 64
21 17 17 19 19 16 16 21 17 17 20 31 30 32 39 57 60 58 57 56 57 61 62 64 64 64 65 66 66 66 66 67 67 67 68 67 67 67 66 66 65 65 65 64 64 63 63 62 62
16 17 18 17 16 14 14 13 17 17 19 22 28 29 31 48 58 60 58 58 58 59 62 64 64 64 64 65 65 65 65 66 66 66 67 67 66 66 66 64 65 64 64 63 62 62 62 62 61
19 19 19 18 17 16 13 10 12 13 21 20 21 23 27 30 49 57 59 59 62 60 61 63 64 65 65 65 64 64 65 65 65 65 66 67 66 66 66 64 64 63 64 63 62 62 61 61 61
21 19 16 12 13 11 13 7 11 12 15 17 18 18 22 28 34 50 57 59 62 63 61 63 63 64 64 64 64 64 64 64 64 64 66 66 66 66 65 65 64 63 62 62 61 60 60 60 60
20 19 15 8 8 8 8 -0 4 14 17 17 18 20 20 23 29 40 54 58 60 62 63 63 63 64 64 64 64 64 64 64 64 64 65 65 65 65 64 64 64 62 62 62 61 60 59 59 60
19 10 12 10 10 9 8 6 7 13 14 15 14 14 20 22 26 29 46 55 57 62 63 64 63 63 63 63 64 63 63 64 63 63 65 65 65 65 64 64 63 63 62 61 61 59 59 60 60
8 11 12 11 12 14 14 15 17 17 14 13 14 15 16 20 23 27 29 43 53 58 61 64 65 64 63 63 64 64 64 64 64 64 64 64 65 65 64 64 62 63 63 62 61 61 61 61 61
17 16 16 17 18 18 18 19 19 20 19 17 16 14 16 16 22 26 28 29 39 54 59 61 64 65 64 64 63 63 63 64 64 65 64 64 65 65 65 65 63 63 62 63 62 62 61 60 62
20 19 19 20 21 21 19 20 22 21 20 20 19 16 13 16 18 26 28 29 32 43 56 60 62 64 65 64 63 63 64 64 64 65 65 65 65 65 65 65 64 63 63 62 62 62 60 61 62
23 22 20 20 21 23 24 25 25 23 21 20 19 16 14 16 18 27 28 29 30 31 40 56 60 62 64 65 64 61 62 62 63 64 65 65 65 65 65 65 64 63 64 62 62 62 61 59 61
20 22 22 22 25 24 24 17 18 18 17 17 17 14 16 23 19 26 30 44 48 51 48 55 59 60 62 63 63 61 62 62 62 63 64 65 65 65 65 65 64 64 64 62 62 63 62 61 59
23 26 28 28 29 25 19 20 14 16 17 18 19 22 23 23 21 42 45 44 45 48 49 50 51 52 56 60 61 61 59 60 59 61 62 62 64 65 65 64 64 64 64 63 62 62 62 61 60
26 30 30 29 25 18 16 16 14 15 15 25 35 42 42 42 43 42 42 42 42 43 43 43 44 45 47 50 52 54 55 57 59 60 57 59 61 63 64 64 64 64 64 64 63 62 62 61 61
30 24 17 14 15 12 18 22 16 19 24 24 35 42 41 41 40 40 39 39 39 41 42 41 42 42 44 45 47 48 49 51 53 56 60 60 61 62 63 64 64 64 64 63 63 62 62 61 61
28 30 19 10 12 14 21 21 25 39 42 41 41 40 40 38 38 37 38 38 38 39 39 40 40 40 42 44 44 43 44 45 47 49 51 56 60 60 61 63 63 64 63 62 62 62 61 61 61
31 28 26 22 22 21 21 26 35 38 38 39 38 37 37 38 38 37 37 37 37 37 38 38 39 39 39 40 40 40 41 41 42 43 45 48 50 55 60 61 62 63 63 61 61 61 61 60 60
33 32 25 23 17 20 24 26 26 34 34 35 35 36 36 37 37 36 36 36 36 37 37 37 37 36 36 37 38 38 39 39 40 41 42 44 47 50 51 59 61 62 62 62 61 60 60 59 59
31 31 32 34 29 24 22 27 32 34 36 35 35 36 35 35 35 35 35 35 36 35 35 35 34 34 34 35 36 37 38 39 39 40 41 43 45 47 50 52 58 60 60 61 60 59 59 59 58
33 33 33 28 26 28 28 25 34 34 34 35 35 36 35 34 35 35 34 32 32 32 33 33 33 33 34 34 34 35 37 37 38 39 40 41 43 45 47 52 54 57 59 60 59 58 58 58 58

GFSSGP_sfc_dewp_129.txt.gz
Dewpoint
47 42 41 33 13 19 8 1 15 12 14 17 18 19 22 35 40 31 62 63 66 68 69 71 71 72 72 72 72 73 73 74 74 73 73 73 73 73 73 73 73 73 73 71 71 71 71 71 72
42 38 36 32 6 -6 -11 10 12 14 12 20 19 27 31 37 46 52 61 64 66 68 69 71 71 72 72 72 72 72 73 74 73 73 73 73 73 73 73 73 73 73 73 72 71 71 71 71 71
40 37 27 27 13 -7 -8 1 12 16 19 19 17 18 24 40 50 58 63 66 66 68 69 70 71 71 72 72 72 72 72 72 73 73 73 73 73 73 73 73 72 72 73 72 71 71 71 71 70
35 35 34 20 14 12 1 8 17 18 18 18 19 16 23 41 53 61 66 66 67 68 69 70 70 71 71 72 72 72 72 72 72 72 73 73 73 73 73 72 72 72 72 72 71 71 71 70 69
42 32 19 23 19 21 23 23 22 19 21 21 20 18 25 39 63 66 66 66 67 69 70 71 69 70 71 72 72 71 71 71 71 72 72 73 73 73 72 72 72 72 72 71 71 70 70 69 68
26 37 23 17 18 21 21 24 23 21 22 23 22 22 27 55 60 65 67 67 68 69 70 71 70 70 71 71 71 70 70 70 71 71 72 72 72 72 71 72 72 71 71 71 70 69 69 68 68
25 32 24 27 25 25 24 26 25 26 25 23 23 24 29 47 59 65 66 67 68 69 70 71 71 71 70 70 70 69 69 70 70 70 70 71 70 70 71 71 71 71 71 70 69 68 68 68 67
37 34 30 29 25 24 28 28 27 26 26 26 25 25 28 37 61 64 65 66 67 68 69 70 71 71 71 71 69 68 68 69 69 70 69 69 69 69 70 70 70 70 70 69 68 68 67 68 67
37 25 26 24 25 25 30 30 31 33 32 31 30 29 31 51 62 62 63 64 66 66 67 68 69 70 71 70 70 69 69 68 68 69 69 68 70 70 70 69 69 69 69 68 68 67 67 66 66
20 23 20 26 30 29 27 26 26 28 29 30 32 34 34 57 60 59 60 61 63 64 66 66 68 68 69 67 69 70 70 69 69 70 70 70 70 70 69 69 68 69 68 68 67 67 66 66 67
18 14 19 18 22 17 17 17 18 19 20 28 30 30 32 32 39 57 58 59 61 62 64 65 67 68 67 66 68 69 69 69 69 70 70 70 70 70 69 70 69 70 68 67 65 66 65 67 66
18 19 17 19 17 16 14 14 14 15 17 19 20 23 25 28 30 43 55 58 57 59 63 65 66 66 67 66 66 67 67 68 68 68 69 69 68 69 69 68 69 69 68 68 67 67 66 66 66
16 16 18 18 18 17 15 12 11 9 12 15 13 18 22 24 26 34 49 55 57 57 61 64 64 65 65 66 66 66 67 67 67 68 68 69 67 68 68 68 68 68 68 67 67 66 65 65 65
19 18 17 17 17 15 14 12 11 6 10 11 14 14 17 22 27 29 35 52 57 57 59 64 63 64 64 65 66 66 66 67 67 67 68 68 67 67 67 68 68 68 68 67 66 66 64 64 64
20 17 16 13 12 11 10 5 5 9 14 14 15 16 17 19 22 25 32 45 56 58 58 62 64 63 64 64 65 65 65 65 66 66 67 68 68 67 67 66 67 68 69 68 67 67 66 65 64
18 17 9 7 10 9 8 3 7 11 14 14 15 18 17 16 17 22 31 33 46 57 59 61 63 64 64 64 64 64 65 65 65 65 65 67 67 67 67 66 66 68 68 68 67 66 65 65 64
17 5 11 11 12 11 10 7 10 12 16 19 21 20 19 19 18 18 21 31 35 53 61 60 63 64 65 65 64 64 65 64 64 64 64 66 66 66 66 65 66 68 67 67 66 66 66 64 63
7 10 11 12 12 14 14 15 18 19 20 22 22 23 21 20 19 18 20 25 31 49 62 62 62 64 65 65 65 64 64 64 64 63 64 65 64 65 65 66 66 67 66 66 66 65 65 64 64
18 17 15 15 17 19 19 19 20 22 23 23 22 23 22 22 22 22 23 28 34 46 61 64 63 63 63 63 63 63 63 63 64 64 66 66 65 64 65 66 66 66 65 64 64 65 64 63 63
20 19 18 19 21 23 22 21 22 24 24 24 25 26 26 24 24 24 23 26 34 39 58 63 64 63 62 61 62 64 64 64 63 65 65 65 66 66 66 66 66 65 64 64 64 64 63 63 63
21 21 21 21 23 26 23 19 15 16 18 18 20 24 25 25 25 24 23 25 32 41 48 60 63 64 64 63 64 64 65 65 65 64 63 64 65 66 66 66 65 65 65 64 64 64 64 62 62
22 22 22 22 26 23 25 18 16 13 16 18 17 20 21 21 21 23 23 22 33 41 46 57 62 64 65 66 65 64 62 61 63 63 65 65 66 66 66 66 66 66 65 65 64 64 65 64 61
24 25 25 25 26 27 19 20 13 17 18 18 22 28 39 40 25 21 20 23 48 51 49 56 61 63 65 66 65 65 65 65 65 66 64 65 66 65 65 64 64 65 65 66 65 64 64 65 64
26 27 29 28 28 19 18 18 15 20 34 35 39 40 40 39 33 39 44 45 45 46 49 52 52 50 53 58 63 65 64 64 64 64 63 64 64 61 60 60 61 64 65 65 65 65 64 64 64
30 28 20 15 16 10 15 18 18 36 37 36 37 37 38 37 38 38 39 40 41 42 43 45 46 45 45 46 47 49 52 55 59 62 62 62 61 62 60 61 62 64 65 65 65 64 64 64 64
26 30 22 17 13 16 19 17 27 32 37 36 37 36 37 36 37 36 36 37 38 40 39 40 40 40 42 43 43 44 45 47 48 50 51 57 60 62 62 63 63 64 65 65 64 64 64 64 64
34 30 30 27 23 21 19 27 33 29 33 35 34 34 34 35 36 36 37 37 37 37 37 38 38 38 39 40 41 42 43 43 44 45 46 48 49 49 53 61 63 63 64 64 63 63 62 63 63
32 34 28 28 20 17 20 26 24 28 30 33 32 32 33 35 35 36 35 36 36 36 37 36 36 36 36 37 38 39 40 41 42 43 44 45 46 47 48 51 53 60 62 63 63 62 62 62 62
29 26 29 30 29 24 22 23 31 30 32 31 32 32 32 33 34 33 34 35 35 35 35 34 34 34 35 35 36 38 37 38 39 40 41 42 44 45 46 48 50 52 57 61 62 61 61 60 61
26 27 30 27 25 28 27 23 34 33 33 33 32 32 32 33 34 34 33 32 33 33 34 34 33 33 34 35 36 36 36 37 37 38 39 41 42 43 44 46 48 50 53 56 60 60 60 59 59